[[{"header":{"parameterUnit":"m.s-1","parameterCategory":1,"la1":30.6,"la2":28.766,"lo1":-90.7593,"lo2":-88.6598,"dx":0.0162,"dy":0.0183,"nx":116,"ny":114,"refTime":"2022-12-22T06:00:00:Z","depth":0,"parameterNumber":2,"parameterNumberName":"U-component_of_WINDS"},"data":[0.0,0.0,0.0,0.0,0.0,0.0,0.0,0.0,0.0,0.0,0.0,0.0,0.0,0.0,0.0,0.0,0.0,0.0,0.0,0.0,0.0,0.0,0.0,0.0,0.0,0.0,0.0,0.0,0.0,0.0,0.0,0.0,0.0,0.0,0.0,0.0,0.0,0.0,0.0,0.0,0.0,0.0,0.0,0.0,0.0,0.0,0.0,0.0,0.0,0.0,0.0,0.0,0.0,0.0,0.0,0.0,0.0,0.0,0.0,0.0,0.0,0.0,0.0,0.0,0.0,0.0,0.0,0.0,0.0,0.0,0.0,0.0,0.0,0.0,0.0,0.0,0.0,0.0,0.0,0.0,0.0,0.0,0.0,0.0,0.0,0.0,0.0,0.0,0.0,0.0,0.0,0.0,0.0,0.0,0.0,0.0,0.0,0.0,0.0,0.0,0.0,0.0,0.0,0.0,0.0,0.0,0.0,0.0,0.0,0.0,0.0,0.0,0.0,0.0,0.0,0.0,0.0,0.0,0.0,0.0,0.0,0.0,0.0,0.0,0.0,0.0,0.0,0.0,0.0,0.0,0.0,0.0,0.0,0.0,0.0,0.0,0.0,0.0,0.0,0.0,0.0,0.0,0.0,0.0,0.0,0.0,0.0,0.0,0.0,0.0,0.0,0.0,0.0,0.0,0.0,0.0,0.0,0.0,0.0,0.0,0.0,0.0,0.0,0.0,0.0,0.0,0.0,0.0,0.0,0.0,0.0,0.0,0.0,0.0,0.0,0.0,0.0,0.0,0.0,0.0,0.0,0.0,0.0,0.0,0.0,0.0,0.0,0.0,0.0,0.0,0.0,0.0,0.0,0.0,0.0,0.0,0.0,0.0,0.0,0.0,0.0,0.0,0.0,0.0,0.0,0.0,0.0,0.0,0.0,0.0,0.0,0.0,0.0,0.0,0.0,0.0,0.0,0.0,0.0,0.0,0.0,0.0,0.0,0.0,0.0,0.0,0.0,0.0,0.0,0.0,0.0,0.0,0.0,0.0,0.0,0.0,0.0,0.0,0.0,0.0,0.0,0.0,0.0,0.0,0.0,0.0,0.0,0.0,0.0,0.0,0.0,0.0,0.0,0.0,0.0,0.0,0.0,0.0,0.0,0.0,0.0,0.0,0.0,0.0,0.0,0.0,0.0,0.0,0.0,0.0,0.0,0.0,0.0,0.0,0.0,0.0,0.0,0.0,0.0,0.0,0.0,0.0,0.0,0.0,0.0,0.0,0.0,0.0,0.0,0.0,0.0,0.0,0.0,0.0,0.0,0.0,0.0,0.0,0.0,0.0,0.0,0.0,0.0,0.0,0.0,0.0,0.0,0.0,0.0,0.0,0.0,0.0,0.0,0.0,0.0,0.0,0.0,0.0,0.0,0.0,0.0,0.0,0.0,0.0,0.0,0.0,0.0,0.0,0.0,0.0,0.0,0.0,0.0,0.0,0.0,0.0,0.0,0.0,0.0,0.0,0.0,0.0,0.0,0.0,0.0,0.0,0.0,0.0,0.0,0.0,0.0,0.0,0.0,0.0,0.0,0.0,0.0,0.0,0.0,0.0,0.0,0.0,0.0,0.0,0.0,0.0,0.0,0.0,0.0,0.0,0.0,0.0,0.0,0.0,0.0,0.0,0.0,0.0,0.0,0.0,0.0,0.0,0.0,0.0,0.0,0.0,0.0,0.0,0.0,0.0,0.0,0.0,0.0,0.0,0.0,0.0,0.0,0.0,0.0,0.0,0.0,0.0,0.0,0.0,0.0,0.0,0.0,0.0,0.0,0.0,0.0,0.0,0.0,0.0,0.0,0.0,0.0,0.0,0.0,0.0,0.0,0.0,0.0,0.0,0.0,0.0,0.0,0.0,0.0,0.0,0.0,0.0,0.0,0.0,0.0,0.0,0.0,0.0,0.0,0.0,0.0,0.0,0.0,0.0,0.0,0.0,0.0,0.0,0.0,0.0,0.0,0.0,0.0,0.0,0.0,0.0,0.0,0.0,0.0,0.0,0.0,0.0,0.0,0.0,0.0,0.0,0.0,0.0,0.0,0.0,0.0,0.0,0.0,0.0,0.0,0.0,0.0,0.0,0.0,0.0,0.0,0.0,0.0,0.0,0.0,0.0,0.0,0.0,0.0,0.0,0.0,0.0,0.0,0.0,0.0,0.0,0.0,0.0,0.0,0.0,0.0,0.0,0.0,0.0,0.0,0.0,0.0,0.0,0.0,0.0,0.0,0.0,0.0,0.0,0.0,0.0,0.0,0.0,0.0,0.0,0.0,0.0,0.0,0.0,0.0,0.0,0.0,0.0,0.0,0.0,0.0,0.0,0.0,0.0,0.0,0.0,0.0,0.0,0.0,0.0,0.0,0.0,0.0,0.0,0.0,0.0,0.0,0.0,0.0,0.0,0.0,0.0,0.0,0.0,0.0,0.0,0.0,0.0,0.0,0.0,0.0,0.0,0.0,0.0,0.0,0.0,0.0,0.0,0.0,0.0,0.0,0.0,0.0,0.0,0.0,0.0,0.0,0.0,0.0,0.0,0.0,0.0,0.0,0.0,0.0,0.0,0.0,0.0,0.0,0.0,0.0,0.0,0.0,0.0,0.0,0.0,0.0,0.0,0.0,0.0,0.0,0.0,0.0,0.0,0.0,0.0,0.0,0.0,0.0,0.0,0.0,0.0,0.0,0.0,0.0,0.0,0.0,0.0,0.0,0.0,0.0,0.0,0.0,0.0,0.0,0.0,0.0,0.0,0.0,0.0,0.0,0.0,0.0,0.0,0.0,0.0,0.0,0.0,0.0,0.0,0.0,0.0,0.0,0.0,0.0,0.0,0.0,0.0,0.0,0.0,0.0,0.0,0.0,0.0,0.0,0.0,0.0,0.0,0.0,0.0,0.0,0.0,0.0,0.0,0.0,0.0,0.0,0.0,0.0,0.0,0.0,0.0,0.0,0.0,0.0,0.0,0.0,0.0,0.0,0.0,0.0,0.0,0.0,0.0,0.0,0.0,0.0,0.0,0.0,0.0,0.0,0.0,0.0,0.0,0.0,0.0,0.0,0.0,0.0,0.0,0.0,0.0,0.0,0.0,0.0,0.0,0.0,0.0,0.0,0.0,0.0,0.0,0.0,0.0,0.0,0.0,0.0,0.0,0.0,0.0,0.0,0.0,0.0,0.0,0.0,0.0,0.0,0.0,0.0,0.0,0.0,0.0,0.0,0.0,0.0,0.0,0.0,0.0,0.0,0.0,0.0,0.0,0.0,0.0,0.0,0.0,0.0,0.0,0.0,0.0,0.0,0.0,0.0,0.0,0.0,0.0,0.0,0.0,0.0,0.0,0.0,0.0,0.0,0.0,0.0,0.0,0.0,0.0,0.0,0.0,0.0,0.0,0.0,0.0,0.0,0.0,0.0,0.0,0.0,0.0,0.0,0.0,0.0,0.0,0.0,0.0,0.0,0.0,0.0,0.0,0.0,0.0,0.0,0.0,0.0,0.0,0.0,0.0,0.0,0.0,0.0,0.0,0.0,0.0,0.0,0.0,0.0,0.0,0.0,0.0,0.0,0.0,0.0,0.0,0.0,0.0,0.0,0.0,0.0,0.0,0.0,0.0,0.0,0.0,0.0,0.0,0.0,0.0,0.0,0.0,0.0,0.0,0.0,0.0,0.0,0.0,0.0,0.0,0.0,0.0,0.0,0.0,0.0,0.0,0.0,0.0,0.0,0.0,0.0,0.0,0.0,0.0,0.0,0.0,0.0,0.0,0.0,0.0,0.0,0.0,0.0,0.0,0.0,0.0,0.0,0.0,0.0,0.0,0.0,0.0,0.0,0.0,0.0,0.0,0.0,0.0,0.0,0.0,0.0,0.0,0.0,0.0,0.0,0.0,0.0,0.0,0.0,0.0,0.0,0.0,0.0,0.0,0.0,0.0,0.0,0.0,0.0,0.0,0.0,0.0,0.0,0.0,0.0,0.0,0.0,0.0,0.0,0.0,0.0,0.0,0.0,0.0,0.0,0.0,0.0,0.0,0.0,0.0,0.0,0.0,0.0,0.0,0.0,0.0,0.0,0.0,0.0,0.0,0.0,0.0,0.0,0.0,0.0,0.0,0.0,0.0,0.0,0.0,0.0,0.0,0.0,0.0,0.0,0.0,0.0,0.0,0.0,0.0,0.0,0.0,0.0,0.0,0.0,0.0,0.0,0.0,0.0,0.0,0.0,0.0,0.0,0.0,0.0,0.0,0.0,0.0,0.0,0.0,0.0,0.0,0.0,0.0,0.0,0.0,0.0,0.0,0.0,0.0,0.0,0.0,0.0,0.0,0.0,0.0,0.0,0.0,0.0,0.0,0.0,0.0,0.0,0.0,0.0,0.0,0.0,0.0,0.0,0.0,0.0,0.0,0.0,0.0,0.0,0.0,0.0,0.0,0.0,0.0,0.0,0.0,0.0,0.0,0.0,0.0,0.0,0.0,0.0,0.0,0.0,0.0,0.0,0.0,0.0,0.0,0.0,0.0,0.0,0.0,0.0,0.0,0.0,0.0,0.0,0.0,0.0,0.0,0.0,0.0,0.0,0.0,0.0,0.0,0.0,0.0,0.0,0.0,0.0,0.0,0.0,0.0,0.0,0.0,0.0,0.0,0.0,0.0,0.0,0.0,0.0,0.0,0.0,0.0,0.0,0.0,0.0,0.0,0.0,0.0,0.0,0.0,0.0,0.0,0.0,0.0,0.0,0.0,0.0,0.0,0.0,0.0,0.0,0.0,0.0,0.0,0.0,0.0,0.0,0.0,0.0,0.0,0.0,0.0,0.0,0.0,0.0,0.0,0.0,0.0,0.0,0.0,0.0,0.0,0.0,0.0,0.0,0.0,0.0,0.0,0.0,0.0,0.0,0.0,0.0,0.0,0.0,0.0,0.0,0.0,0.0,0.0,0.0,0.0,0.0,0.0,0.0,0.0,0.0,0.0,0.0,0.0,0.0,0.0,0.0,0.0,0.0,0.0,0.0,0.0,0.0,0.0,0.0,0.0,0.0,0.0,0.0,0.0,0.0,0.0,0.0,0.0,0.0,0.0,0.0,0.0,0.0,0.0,0.0,0.0,0.0,0.0,0.0,0.0,0.0,0.0,0.0,0.0,0.0,0.0,0.0,0.0,0.0,0.0,0.0,0.0,0.0,0.0,0.0,0.0,0.0,0.0,0.0,0.0,0.0,0.0,0.0,0.0,0.0,0.0,0.0,0.0,0.0,0.0,0.0,0.0,0.0,0.0,0.0,0.0,0.0,0.0,0.0,0.0,0.0,0.0,0.0,0.0,0.0,0.0,0.0,0.0,0.0,0.0,0.0,0.0,0.0,0.0,0.0,0.0,0.0,0.0,0.0,0.0,0.0,0.0,0.0,0.0,0.0,0.0,0.0,0.0,0.0,0.0,0.0,0.0,0.0,0.0,0.0,0.0,0.0,0.0,0.0,0.0,0.0,0.0,0.0,0.0,0.0,0.0,0.0,0.0,0.0,0.0,0.0,0.0,0.0,0.0,0.0,0.0,0.0,0.0,0.0,0.0,0.0,0.0,0.0,0.0,0.0,0.0,0.0,0.0,0.0,0.0,0.0,0.0,0.0,0.0,0.0,0.0,0.0,0.0,0.0,0.0,0.0,0.0,0.0,0.0,0.0,0.0,0.0,0.0,0.0,0.0,0.0,0.0,0.0,0.0,0.0,0.0,0.0,0.0,0.0,0.0,0.0,0.0,0.0,0.0,0.0,0.0,0.0,0.0,0.0,0.0,0.0,0.0,0.0,0.0,0.0,0.0,0.0,0.0,0.0,0.0,0.0,0.0,0.0,0.0,0.0,0.0,0.0,0.0,0.0,0.0,0.0,0.0,0.0,0.0,0.0,0.0,0.0,0.0,0.0,0.0,0.0,0.0,0.0,0.0,0.0,0.0,0.0,0.0,0.0,0.0,0.0,0.0,0.0,0.0,0.0,0.0,0.0,0.0,0.0,0.0,0.0,0.0,0.0,0.0,0.0,0.0,0.0,0.0,0.0,0.0,0.0,0.0,0.0,0.0,0.0,0.0,0.0,0.0,2.1143,0.0,0.0,0.0,0.0,0.0,0.0,0.0,0.0,0.0,0.0,0.0,0.0,0.0,0.0,0.0,0.0,0.0,0.0,0.0,0.0,0.0,0.0,0.0,0.0,0.1359,0.1181,0.0891,0.0598,0.0,0.0,0.0,0.0,0.0,0.0,0.0,0.125,0.3772,0.5753,0.7086,0.5998,0.6927,0.9694,0.8738,0.809,0.7627,0.0,0.0,0.0,0.0,0.0,0.0,0.0,0.0,0.0,0.0,0.0,0.0,0.0,0.0,0.0,0.0,0.0,0.0,0.0,0.0,0.0,0.0,0.0,0.0,0.0,0.0,0.0,0.0,0.0,0.0,0.0,0.0,0.0,0.0,0.0,0.0,0.0,0.0,0.0,0.0,0.0,0.0,0.0,0.0,0.0,0.0,0.0,0.0,0.0,0.0,0.0,0.0,0.0,0.0,0.0,0.0,0.0,0.0,0.0,0.0,0.0,0.0,0.0,0.0,0.0,0.0,0.0,0.0,0.0,0.0,0.0,2.1909,0.0,0.0,0.0,0.0,0.0,0.0,0.0,0.0,0.0,0.0,0.0,0.0,0.0,0.0,0.0,0.0,0.0,0.0,0.0,0.0,0.0,0.3179,0.2184,0.2397,0.2464,0.2136,0.1722,0.19,0.2821,0.4286,0.0,0.0,0.3844,0.3149,0.3188,0.4544,0.6504,0.9057,0.8436,0.9335,1.1631,1.2399,1.2439,1.1759,0.9813,0.0,0.0,0.0,0.0,0.0,0.0,0.0,0.0,0.0,0.0,0.0,0.0,0.0,0.0,0.0,0.0,0.0,0.0,0.0,0.0,0.0,0.0,0.0,0.0,0.0,0.0,0.0,0.0,0.0,0.0,0.0,0.0,0.0,0.0,0.0,0.0,0.0,0.0,0.0,0.0,0.0,0.0,0.0,0.0,0.0,0.0,0.0,0.0,0.0,0.0,0.0,0.0,0.0,0.0,0.0,0.0,0.0,0.0,0.0,0.0,0.0,0.0,0.0,2.5671,2.5752,2.5491,2.5239,2.6433,2.8528,2.5534,2.5596,2.7401,0.0,0.0,0.0,0.0,0.0,0.0,0.0,0.0,0.0,0.0,0.0,0.0,0.0,0.0,0.0,0.0,0.0,0.0,0.0,0.0,0.2839,0.2386,0.2302,0.2537,0.3232,0.3624,0.3908,0.4052,0.4731,0.5117,0.5117,0.5168,0.5294,0.5447,0.5806,0.6771,0.8404,1.0804,1.296,1.4933,1.6047,1.6954,1.7454,1.3865,1.2582,1.2932,0.0,0.0,0.0,0.0,0.0,0.0,0.0,0.0,0.0,0.0,0.0,0.0,0.0,0.0,0.0,0.0,0.0,0.0,0.0,0.0,0.0,0.0,0.0,0.0,0.0,0.0,0.0,0.0,0.0,0.0,0.0,0.0,0.0,0.0,0.0,0.0,0.0,0.0,0.0,0.0,0.0,2.0314,2.1106,0.0,0.0,0.0,0.0,0.0,0.0,0.0,0.0,0.0,0.0,0.0,0.0,0.0,2.3522,2.3987,2.6885,2.8374,2.8456,3.0883,3.1988,3.1931,3.1132,3.118,3.1797,3.0625,0.0,2.7685,2.7235,0.0,0.0,0.0,0.0,0.0,0.0,0.0,0.0,0.0,0.0,0.0,0.0,0.0,0.0,0.0,0.0,0.0,0.0,0.0,0.0,0.0,0.2793,0.3389,0.3865,0.4774,0.5287,0.5266,0.5148,0.5179,0.5306,0.5437,0.5593,0.5833,0.6637,0.7976,0.988,1.2271,1.4094,1.5399,1.6744,1.8175,1.9569,1.7835,1.6604,1.5697,1.3175,0.0,0.0,0.0,0.0,0.0,0.0,0.0,0.0,0.0,0.0,0.0,0.0,0.0,0.0,0.0,0.0,0.0,0.0,0.0,0.0,0.0,0.0,0.0,0.0,0.0,0.0,0.0,0.0,0.0,0.0,0.0,0.0,0.0,0.0,0.0,0.0,0.0,0.0,0.0,1.8574,1.9809,2.0462,1.9081,1.7371,0.0,0.0,0.0,0.0,0.0,0.0,0.0,0.0,0.0,2.5804,2.6372,2.7245,2.8628,3.0661,3.1715,3.1715,3.2949,3.3255,3.2795,3.2366,3.2056,3.1768,3.1351,3.0751,2.9929,2.8547,2.6631,2.45,0.0,0.0,0.0,0.0,2.3953,2.4303,0.0,0.0,0.0,0.0,0.0,0.0,0.0,0.0,0.0,0.0,0.0,0.0,0.2188,0.3143,0.3923,0.4137,0.5405,0.6218,0.6317,0.5793,0.5626,0.596,0.5651,0.5679,0.6145,0.7784,0.9629,1.1591,1.3179,1.4499,1.5544,1.6773,1.8252,1.9934,2.0026,1.9526,1.8383,1.6032,1.4366,1.3073,0.0,0.0,0.0,0.0,0.0,0.0,0.0,0.0,0.0,0.0,0.0,0.0,0.0,0.0,0.0,0.0,0.0,0.0,0.0,0.0,0.0,0.0,0.0,0.0,0.0,0.0,0.0,0.0,0.0,0.0,0.0,0.0,0.0,0.0,0.0,0.0,0.0,2.0184,2.065,2.1045,2.0478,1.8779,0.0,0.0,0.0,0.0,0.0,0.0,2.5364,2.5481,2.6585,2.8895,2.9648,3.0852,3.2602,3.3396,3.3807,3.3807,3.3726,3.3255,3.2502,3.2366,3.1914,3.119,3.119,3.1466,3.174,2.9741,2.8798,2.8422,2.6498,2.5474,2.5328,2.6943,2.7383,2.7714,0.0,0.0,0.0,0.0,0.0,0.0,0.0,0.0,0.0,0.0,0.0,0.321,0.2541,0.2992,0.35,0.3963,0.5514,0.6662,0.711,0.675,0.6745,0.7203,0.6238,0.6137,0.7099,0.9635,1.1614,1.3018,1.361,1.4675,1.616,1.6808,1.7675,1.8734,1.9281,2.0523,2.1894,1.8643,1.7404,1.7317,1.3209,0.0,0.0,0.0,0.0,0.0,0.0,0.0,0.0,0.0,0.0,0.0,0.0,0.0,0.0,0.0,0.0,0.0,0.0,0.0,0.0,0.0,0.0,0.0,0.0,0.0,0.0,0.0,0.0,0.0,0.0,0.0,0.0,0.0,0.0,0.0,0.0,0.0,0.0,2.592,2.5559,0.0,0.0,0.0,0.0,2.274,2.43,2.6282,2.8608,2.9452,3.1125,3.378,3.3633,3.3718,3.4078,3.3891,3.3807,3.3807,3.3437,3.2983,3.2466,3.2022,3.1585,3.119,3.119,3.1428,3.1844,3.2122,3.1164,2.9557,2.9807,2.8962,2.7824,2.9439,3.098,3.2485,0.0,0.0,0.0,-0.2398,-0.2012,-0.1125,0.0905,0.1541,0.205,0.2707,0.3016,0.3075,0.2781,0.3786,0.4554,0.4814,0.6476,0.7628,0.785,0.7342,0.7546,0.8667,0.7645,0.8207,1.0688,1.1979,1.2933,1.361,1.3761,1.4179,1.4841,1.5553,1.6365,1.7258,1.7978,1.8929,1.994,1.9575,1.8958,1.8216,1.7008,1.4794,0.0,0.0,0.0,0.0,0.0,0.0,0.0,0.0,0.0,0.0,0.0,0.0,0.0,0.0,0.0,0.0,0.0,0.0,0.0,0.0,0.0,0.0,0.0,0.0,0.0,0.0,0.0,0.0,0.0,0.0,0.0,0.0,0.0,0.0,0.0,0.0,0.0,2.6465,2.711,0.0,2.4138,2.5521,2.6827,2.7336,2.919,3.0902,3.2252,3.2622,3.3189,3.4162,3.4117,3.4377,3.5019,3.4212,3.4064,3.455,3.4111,3.3673,3.321,3.3276,3.3059,3.2611,3.2611,3.2861,3.3332,3.3776,3.3473,3.2726,3.3131,3.3293,3.333,3.3917,3.4504,3.5055,0.0,0.0,0.0,-0.212,-0.155,-0.0226,0.2672,0.2702,0.2578,0.3138,0.3142,0.313,0.3188,0.4145,0.486,0.5035,0.6805,0.8055,0.843,0.801,0.8382,0.9788,0.8983,0.9912,1.2914,1.3129,1.3402,1.3849,1.3742,1.3821,1.4141,1.474,1.5478,1.614,1.6631,1.7092,1.7639,1.8942,1.9405,1.9246,1.9065,1.7409,1.5062,0.0,0.0,0.0,0.0,0.0,0.0,0.0,0.0,0.0,0.0,0.0,0.0,0.0,0.0,0.0,0.0,0.0,0.0,0.0,0.0,0.0,0.0,0.0,0.0,0.0,0.0,0.0,0.0,0.0,0.0,0.0,0.0,0.0,0.0,2.6787,2.8628,2.8338,2.9601,2.9486,2.7,2.8844,3.044,3.0953,3.2575,3.3799,3.436,3.436,3.4405,3.4492,3.4292,3.4657,3.561,3.4966,3.4908,3.5459,3.5387,3.4911,3.4023,3.4228,3.3973,3.3389,3.3598,3.3928,3.4361,3.4871,3.5205,3.5436,3.5418,3.5789,3.6303,3.6303,3.645,3.6743,0.0,0.0,-0.3045,-0.195,-0.0741,0.1196,0.4539,0.4167,0.3582,0.3801,0.3526,0.3443,0.377,0.4063,0.4307,0.4505,0.6387,0.792,0.8781,0.8706,0.9176,1.0423,1.0216,1.1138,1.3481,1.2955,1.3042,1.3858,1.3601,1.375,1.4107,1.459,1.5,1.541,1.541,1.541,1.5468,1.6881,1.8657,2.0527,1.9176,1.8978,1.9161,0.0,0.0,0.0,0.0,0.0,0.0,0.0,0.0,0.0,0.0,0.0,0.0,0.0,0.0,0.0,0.0,0.0,0.0,0.0,0.0,0.0,0.0,0.0,0.0,0.0,0.0,0.0,0.0,0.0,0.0,0.0,0.0,0.0,2.9227,3.0149,3.1091,3.2055,3.3326,3.3121,3.0656,3.227,3.345,3.345,3.4262,3.4733,3.4733,3.4733,3.4832,3.5069,3.4513,3.4772,3.5975,3.6181,3.6303,3.6376,3.711,3.6536,3.4836,3.4801,3.4356,3.3499,3.4037,3.4504,3.4907,3.5421,3.6412,3.7441,3.6633,3.634,3.6376,3.6413,3.6927,3.7698,-0.2233,-0.1452,-0.0904,-0.0746,0.0721,0.2378,0.3855,0.3763,0.3756,0.4435,0.3938,0.3715,0.42,0.4343,0.4423,0.447,0.5492,0.6448,0.7298,0.7391,0.8246,1.0136,1.2288,1.3697,1.4179,1.3992,1.4167,1.4746,1.42,1.418,1.4609,1.4727,1.5,1.541,1.541,1.541,1.541,1.5833,1.6461,1.7466,2.0482,2.0527,1.8933,0.0,0.0,0.0,0.0,0.0,0.0,0.0,0.0,0.0,0.0,0.0,0.0,0.0,0.0,0.0,0.0,0.0,0.0,0.0,0.0,0.0,0.0,0.0,0.0,0.0,0.0,0.0,0.0,0.0,0.0,0.0,2.6806,2.9536,2.9855,3.2519,3.4721,3.5538,3.6036,3.5988,3.5123,3.5014,3.4979,3.494,3.4971,3.4981,3.4981,3.4981,3.5016,3.5124,3.4735,3.555,3.7627,3.6118,3.6266,3.8028,3.6883,3.6079,3.5578,3.544,3.5241,3.5013,3.5545,3.5873,3.6038,3.6934,3.7455,3.7766,3.732,3.7514,3.8102,3.8689,3.9126,3.9478,-0.0908,-0.0065,0.0589,0.091,0.1775,0.281,0.3905,0.3752,0.3847,0.4839,0.418,0.3881,0.4562,0.4481,0.4409,0.4477,0.4498,0.4877,0.5878,0.7224,0.9077,1.149,1.2781,1.3747,1.4395,1.4192,1.4253,1.4648,1.4668,1.4805,1.5039,1.5039,1.5176,1.541,1.5059,1.4977,1.5128,1.5188,1.5111,1.5352,1.9095,1.9672,1.8493,1.9999,1.931,1.7532,1.7581,1.7535,1.7643,1.9156,0.0,0.0,0.0,0.0,0.0,0.0,0.0,0.0,0.0,0.0,0.0,0.0,0.0,0.0,0.0,0.0,0.0,0.0,0.0,0.0,0.0,0.0,0.0,0.0,2.9769,3.2363,3.3044,3.5295,3.7222,3.8102,3.7924,3.7516,3.6978,3.6138,3.5584,3.5507,3.5354,3.5254,3.5254,3.5254,3.5407,3.5752,3.5401,3.6201,3.8267,3.7118,3.7294,3.8689,3.768,3.6968,3.6463,3.6084,3.5941,0.0,3.6498,3.704,3.7595,3.8399,3.8958,0.0,0.0,0.0,0.0,0.0,4.0336,4.0239,0.0969,0.1317,0.1842,0.2653,0.2604,0.2906,0.4316,0.4073,0.4088,0.5123,0.4478,0.4199,0.4845,0.459,0.4287,0.4252,0.3408,0.3458,0.4776,0.781,1.0646,1.3038,1.2049,1.2264,1.396,1.3654,1.3673,1.3978,1.4956,1.537,1.537,1.5508,1.5488,1.537,1.4639,1.4416,1.4631,1.4756,1.4397,1.3999,1.6128,1.7284,1.7737,1.8753,1.9006,1.878,1.8543,1.832,1.8323,1.9153,0.0,0.0,0.0,0.0,0.0,0.0,0.0,0.0,0.0,0.0,0.0,0.0,0.0,0.0,0.0,0.0,0.0,0.0,0.0,0.0,0.0,0.0,0.0,0.0,3.2711,3.5567,3.6957,3.7745,3.8583,3.9726,3.8945,3.7921,3.7073,3.6179,3.5584,3.5507,3.5493,3.5532,3.5622,0.0,0.0,0.0,0.0,3.6804,3.8403,3.8517,3.8652,3.8836,3.8928,3.8331,3.7173,3.6811,3.6596,3.6596,3.7232,3.8186,3.9263,3.9812,4.0524,4.1185,4.0341,4.0084,4.0267,4.0899,4.0815,4.0454,0.3775,0.3805,0.3762,0.3474,0.3686,0.3956,0.4164,0.4668,0.5175,0.5567,0.5421,0.5248,0.5071,0.5061,0.4429,0.2773,0.2471,0.3379,0.573,0.8036,0.9392,0.9659,1.063,1.1464,1.2056,1.2619,1.3285,1.3949,1.4833,1.536,1.536,1.609,1.6008,1.5278,1.5151,1.4693,1.4048,1.4048,1.3798,1.3347,1.4231,1.5155,1.63,1.8559,1.9745,2.0273,2.1362,2.2606,2.3784,2.4443,2.2644,2.0247,2.0515,1.8343,0.0,0.0,0.0,0.0,0.0,0.0,0.0,0.0,0.0,0.0,0.0,0.0,0.0,0.0,0.0,0.0,0.0,0.0,0.0,2.9939,3.2697,3.5135,3.6179,3.6826,3.7822,3.9529,3.8437,3.7374,3.7034,3.6218,3.5622,3.5507,3.5493,3.5776,3.643,3.6469,3.6853,3.7738,3.7186,3.7634,3.927,3.8257,3.8358,3.9643,0.0,0.0,3.7208,3.7768,3.7772,3.7478,3.9037,3.9842,4.0131,4.0653,4.1332,4.1992,4.1185,4.1258,4.1812,4.1433,4.142,4.1434,0.573,0.5288,0.4848,0.4547,0.462,0.4729,0.4787,0.5057,0.5478,0.6087,0.5626,0.525,0.5302,0.4604,0.3595,0.2255,0.267,0.3873,0.6011,0.7314,0.8319,0.9097,0.9494,0.9982,1.0653,1.1697,1.2491,1.3075,1.4748,1.5608,1.5608,1.6351,1.6192,1.5256,1.4867,1.4247,1.3483,1.3551,1.3269,1.2784,1.3529,1.387,1.4277,1.6917,1.8186,1.867,2.0468,2.1743,2.2717,2.346,2.2082,2.0124,2.0344,1.817,1.5353,0.0,0.0,0.0,0.0,0.0,0.0,0.0,0.0,0.0,0.0,0.0,0.0,0.0,0.0,2.556,2.7454,0.0,3.0516,3.2173,3.4057,3.5531,3.6102,3.6626,3.7284,3.8317,3.7734,3.7029,3.6495,3.6396,3.6301,3.6224,3.6969,3.7584,3.7969,3.8392,3.9008,3.9854,3.8897,3.8939,4.0184,3.8804,3.8505,3.9276,3.8782,3.8366,3.8186,3.8747,3.8986,3.8986,3.9911,4.0709,4.1356,4.2001,4.2543,4.2873,4.247,4.2406,4.245,4.2155,4.1944,4.1768,0.7082,0.6427,0.583,0.5726,0.5473,0.5382,0.5609,0.5484,0.5607,0.6286,0.5647,0.5192,0.5282,0.4084,0.3017,0.2422,0.357,0.4828,0.6028,0.646,0.7349,0.8755,0.8247,0.8337,0.9251,1.0635,1.1484,1.1866,1.4514,1.5733,1.5801,1.6393,1.6095,1.4927,1.4063,1.3218,1.2359,1.2714,1.2497,1.207,1.3025,1.2952,1.2563,1.4962,1.6088,1.6638,1.8548,1.955,2.0118,2.0578,1.9811,1.8731,1.8576,1.7019,1.5193,1.4983,1.5167,0.0,0.0,0.0,0.0,0.0,0.0,0.0,0.0,2.2975,2.3214,2.5777,2.6785,2.7822,2.9976,3.0809,3.1927,3.425,3.5183,3.5778,3.6021,3.6374,3.6698,3.6879,3.7067,3.6914,3.6172,3.6968,3.7488,3.7392,3.8738,3.9623,3.9777,4.0392,4.1162,4.2047,4.076,4.0358,4.091,3.9583,3.8946,3.8946,3.9173,3.9262,3.9372,3.9872,4.0269,4.0528,4.0818,4.1538,4.258,4.3204,4.3497,4.3497,4.3644,4.3469,4.3061,4.2832,4.2542,4.2192,0.7694,0.7621,0.7367,0.6829,0.6357,0.6082,0.6118,0.6248,0.6171,0.57,0.6068,0.592,0.4671,0.4368,0.399,0.3383,0.5092,0.6209,0.6197,0.6257,0.6294,0.6369,0.6395,0.6742,0.7368,0.9284,1.0453,1.0743,1.3813,1.5317,1.5317,1.6173,1.5618,1.3742,1.2841,1.1426,0.9777,1.0662,1.1057,1.1081,1.207,1.2378,1.2439,1.3603,1.4977,1.6573,1.7652,1.9041,2.0075,1.9008,1.7968,1.6976,1.587,1.5638,1.5702,1.5237,1.6221,1.7437,1.7486,1.9302,2.1436,2.2662,2.3303,2.4864,0.0,2.8741,2.7886,3.0784,3.1719,3.225,3.3004,3.3488,3.3902,3.4209,3.4583,3.4926,3.5204,3.5492,3.5688,3.5765,3.6606,3.7109,3.6914,3.8396,3.9335,3.9114,4.0008,4.0816,4.1508,4.1623,4.2047,4.2931,4.2205,4.1505,4.091,4.014,3.9753,3.9753,3.9795,3.9932,4.0203,4.1429,4.1794,4.1432,4.2629,4.3243,4.3351,4.3461,4.3497,4.3571,4.4305,4.4526,4.4346,4.3263,4.3306,4.3684,0.8147,0.8115,0.799,0.765,0.7039,0.6613,0.6613,0.6433,0.6332,0.6317,0.6237,0.5942,0.5349,0.4662,0.4069,0.3644,0.4691,0.542,0.5422,0.5589,0.5698,0.5768,0.5609,0.6029,0.6933,0.8381,0.958,1.0479,1.3419,1.4746,1.4386,1.586,1.5246,1.2781,1.2371,1.1131,0.9301,0.9744,0.9895,0.997,1.0346,1.0571,1.0645,1.1675,1.2809,1.4134,1.5738,1.6665,0.0,1.6197,1.5334,1.441,1.3506,1.3309,1.3532,1.4218,1.5592,1.7654,2.102,2.3017,2.4266,2.4996,2.5692,2.677,2.89,2.8405,2.8386,3.1466,3.2097,3.2362,3.3234,3.3505,3.3828,3.442,3.4593,3.4851,3.5254,3.5412,3.5699,3.6199,3.714,3.7786,3.7812,3.9336,4.0539,4.1039,4.2228,4.3063,4.3371,4.3778,4.4162,4.4547,4.3406,4.2397,4.1628,4.0919,4.0377,3.99,4.0855,4.1342,4.15,4.2548,4.288,4.2703,4.3245,4.3497,4.3534,4.4011,4.4195,4.4268,4.5076,4.57,4.5882,4.4228,4.3828,4.393,0.851,0.8489,0.8407,0.8274,0.7651,0.7109,0.6996,0.6613,0.6409,0.668,0.6286,0.594,0.5806,0.4877,0.4198,0.3993,0.4551,0.485,0.4734,0.5145,0.5396,0.5296,0.5111,0.5445,0.6308,0.7674,0.8826,0.9799,1.2716,1.3992,1.3469,1.4927,1.4182,1.1611,1.1335,1.0109,0.8365,0.8663,0.8738,0.8748,0.9105,0.9275,0.935,1.001,1.0839,1.1853,1.4073,1.449,1.4047,1.3866,1.3138,1.2226,1.1992,1.1949,1.2352,1.4232,1.6035,1.83,2.2489,2.4652,2.5814,2.6175,2.7366,2.8431,2.8357,2.8184,2.8689,3.0833,3.1351,3.1671,3.2592,3.3009,3.3533,3.4551,3.4713,3.4889,3.5412,3.5699,3.6045,3.6622,3.7791,3.8644,3.9,4.058,4.1875,4.2539,4.4043,4.4924,4.485,4.5372,4.5624,4.5586,4.4195,4.3137,4.2459,4.1638,4.0988,4.0561,4.1735,4.2433,4.2653,4.3204,4.3497,4.3497,4.3718,4.3828,4.3901,4.4709,4.5039,4.5112,4.592,4.6617,4.6907,4.5336,4.4749,4.4565,0.8773,0.8773,0.8728,0.8599,0.8142,0.7636,0.7256,0.6848,0.65,0.6248,0.6195,0.6016,0.5558,0.5001,0.4668,0.4669,0.5279,0.524,0.4272,0.5212,0.5429,0.4567,0.4619,0.4775,0.4931,0.7112,0.8226,0.8236,1.1382,1.2931,1.2946,1.3013,1.1941,1.003,0.9114,0.7655,0.5957,0.6944,0.7371,0.7459,0.866,0.9114,0.9114,0.9114,0.9471,1.0309,1.2967,1.3312,1.247,1.2582,1.1798,1.0835,1.1593,1.2258,1.3443,1.6252,1.8577,2.0217,2.034,2.2496,2.4872,2.5491,2.78,2.9947,2.9914,2.9947,2.992,2.9565,3.0228,3.104,3.1564,3.2492,3.3533,3.4551,3.4713,3.4889,3.5412,3.6161,3.6661,3.6699,3.82,3.9615,4.0559,4.2382,4.3476,4.3358,4.5038,4.5986,4.5753,4.5796,4.5719,4.5586,4.4401,4.3627,4.3265,4.2155,4.1785,4.2213,4.2286,4.2727,4.3461,4.3497,4.3497,4.3534,4.4305,4.4672,4.4745,4.5516,4.5847,4.5957,4.6764,4.7095,4.7016,4.6507,4.6295,4.6187,0.9094,0.9033,0.8861,0.8634,0.8156,0.7651,0.7272,0.698,0.6723,0.65,0.6465,0.0,0.0,0.0,0.0,0.0,0.5656,0.5784,0.5472,0.546,0.5459,0.551,0.5001,0.5099,0.5856,0.6598,0.7757,0.9185,1.085,1.1798,1.1901,1.2579,1.1519,0.9093,0.8754,0.7566,0.58,0.6151,0.6294,0.6373,0.6873,0.6961,0.6977,0.7269,0.7888,0.8711,0.0,1.1472,1.1196,1.1535,1.1118,1.0584,1.1366,1.1835,1.2659,1.554,1.7401,1.9078,2.1562,2.3131,2.453,2.6459,2.769,2.8418,2.8418,2.8418,2.8607,2.9271,2.9685,3.0303,3.1519,3.2423,3.3267,3.4097,3.464,3.5259,3.6157,3.6546,3.7123,3.8277,3.8931,3.9638,4.05,4.1814,4.2875,4.3476,4.4609,4.5207,4.5099,4.5519,4.5757,4.5586,4.4995,4.422,4.3303,4.3231,4.2891,4.2323,4.2837,4.324,4.3497,4.3497,4.3791,4.4305,4.4599,4.5002,4.5553,4.6361,4.6728,4.6801,4.7609,4.7902,4.7862,4.7277,4.6774,4.6257,0.9778,0.9462,0.9059,0.8773,0.8351,0.0,0.0,0.0,0.0,0.0,0.0,0.0,0.0,0.0,0.0,0.0,0.0,0.5767,0.5504,0.5175,0.5077,0.5344,0.459,0.4617,0.5441,0.5724,0.6847,0.8903,0.9756,1.0571,1.1263,1.1822,1.0691,0.826,0.826,0.7256,0.5569,0.5569,0.563,0.5725,0.5677,0.5623,0.5569,0.5985,0.6515,0.0,0.8783,0.9559,0.9992,1.0798,1.0781,1.0529,1.1435,1.2712,1.425,1.6177,1.7856,1.978,2.2908,2.3895,2.4683,2.703,2.761,2.761,2.761,2.776,2.8125,2.8904,2.9406,3.0126,3.1482,3.2353,3.3377,3.489,3.5874,3.6736,3.7516,3.8161,3.8738,3.9238,3.9546,3.9931,4.0431,4.1193,4.2032,4.2978,4.3904,4.4477,4.4681,4.5153,4.547,4.5586,4.5093,4.4484,4.3756,4.3755,4.3416,4.2727,4.324,4.3644,4.3938,4.3938,4.4378,4.5149,4.5443,4.5847,4.6397,4.7205,4.7535,4.7609,4.8122,4.8306,4.8229,4.7385,4.6952,4.6645,1.0776,1.0087,0.9421,0.0,0.0,0.0,0.0,0.0,0.0,0.0,0.0,0.0,0.0,0.0,0.0,0.0,0.0,0.0,0.4515,0.4432,0.4331,0.4223,0.3623,0.348,0.3785,0.4495,0.5701,0.741,0.8102,0.9271,1.0835,1.0555,0.9445,0.7655,0.7604,0.6706,0.5114,0.5114,0.5291,0.5549,0.5179,0.5094,0.5116,0.5247,0.5515,0.5904,0.6774,0.7774,0.8903,1.0416,1.0766,1.075,1.1933,1.4821,1.7793,1.812,1.9914,2.219,2.4061,2.4731,2.5316,2.7181,2.761,2.761,2.766,2.8076,2.8511,2.8497,2.9476,3.0516,3.1281,3.2207,3.3771,3.6512,3.7985,3.8912,3.9262,4.0662,4.1085,3.9546,4.0046,4.0508,4.0508,4.0716,4.1222,4.2058,0.0,4.4008,4.4681,4.4752,4.503,4.5586,4.4778,4.4421,4.4612,4.378,4.3399,4.3532,4.3569,4.3975,4.4709,4.4745,4.5223,4.5993,4.6764,4.7094,4.7241,4.8012,4.8306,4.8306,4.8306,4.8306,4.8153,4.6945,4.6979,4.74,0.0,0.0,0.0,0.0,0.0,0.0,0.0,0.0,0.0,0.0,0.0,0.0,0.0,0.0,0.0,0.0,0.0,0.0,0.5326,0.473,0.4402,0.4362,0.3825,0.3621,0.3785,0.3983,0.4828,0.638,0.6582,0.7377,0.8711,0.8631,0.7972,0.6867,0.6668,0.6082,0.5228,0.5006,0.4395,0.3732,0.4128,0.4573,0.4967,0.5068,0.5353,0.5934,0.7418,0.8121,0.8638,1.0643,1.2458,1.3951,1.4855,1.6034,1.7489,1.9611,2.094,2.2272,2.4643,2.5696,2.6403,2.7887,2.7959,2.786,2.8717,2.8717,2.8592,2.8952,2.9468,2.969,2.9248,3.116,3.3054,3.3799,3.5816,3.7717,3.9123,3.9662,4.0008,4.0162,4.0354,4.0508,4.0508,4.127,4.1853,4.2097,4.3102,4.4008,4.4681,4.5269,4.5586,4.5586,4.5355,4.517,4.4966,4.4202,4.3841,4.3881,4.4257,4.4525,4.4745,4.5333,4.603,4.6838,4.7021,4.7462,4.8012,4.8233,4.8306,4.8306,4.8306,4.8306,4.8265,4.8034,4.7772,4.7611,0.0,0.0,0.0,0.0,0.0,0.0,0.0,0.0,0.0,0.0,0.0,0.0,0.0,0.0,0.0,0.0,0.0,0.0,0.0,0.4672,0.4256,0.4209,0.3629,0.3328,0.3392,0.3263,0.4033,0.5755,0.5512,0.6315,0.8123,0.7856,0.7291,0.6484,0.6138,0.544,0.454,0.3965,0.3756,0.0,0.0,0.4412,0.4904,0.4996,0.512,0.5425,0.711,0.8645,1.0223,1.2669,1.4418,1.5615,1.6254,1.7433,1.8955,2.0759,2.2325,2.3793,2.554,2.6674,2.755,2.8319,2.8463,2.8513,2.8844,2.8838,2.8725,2.8477,2.905,2.9386,2.8594,3.1111,3.3552,3.422,3.6931,3.9277,4.0277,4.0739,4.0854,4.0546,4.0508,4.0508,4.0508,4.1463,4.2253,4.2649,4.33,4.4008,4.4681,4.5114,4.5432,4.5586,4.5586,4.5438,4.5115,4.4535,4.4362,4.4556,4.4786,4.5215,4.5773,4.6214,4.6874,4.7645,0.0,4.7902,4.8306,4.8306,4.8306,4.8343,4.871,4.8663,4.8416,4.8569,4.8622,4.8697,0.0,0.0,0.0,0.0,0.0,0.0,0.0,0.0,0.0,0.7968,0.7391,0.7006,0.6963,0.7098,0.0,0.0,0.0,0.0,0.0,0.0,0.4113,0.3969,0.3325,0.2925,0.2891,0.2617,0.3394,0.5214,0.4722,0.5633,0.7829,0.7352,0.6757,0.6105,0.562,0.4719,0.3501,0.2879,0.3351,0.453,0.4307,0.4525,0.5001,0.0,0.5016,0.5042,0.6622,0.913,1.2209,1.5028,1.619,1.6565,1.7368,1.9239,2.1345,2.2133,2.3928,2.5879,2.6562,2.76,2.8559,2.8701,2.9088,2.9259,2.8683,2.8804,2.8793,2.7631,2.8356,2.8996,2.8397,3.1191,3.4116,3.5719,3.8958,4.1393,4.1585,4.2277,4.2239,4.0816,4.0662,4.07,4.087,4.1825,4.2781,4.3548,4.3888,4.427,4.4829,4.4882,4.5086,4.5586,4.5586,4.5534,4.5333,4.5,4.5047,4.5529,4.5519,4.6116,4.7169,4.7205,4.7645,4.8306,4.8306,0.0,4.8306,4.8306,4.8306,4.8379,4.926,4.9117,4.8551,4.9055,4.9539,4.9999,0.0,0.0,0.0,0.0,0.0,0.0,0.0,0.0,0.0,0.0,0.9952,0.7454,0.0,0.0,0.0,0.0,0.0,0.0,0.0,0.0,0.0,0.378,0.3426,0.3089,0.2732,0.2892,0.3202,0.3697,0.3786,0.4292,0.509,0.4983,0.4871,0.4735,0.4124,0.3651,0.3294,0.3487,0.3598,0.38,0.4661,0.5178,0.5382,0.5232,0.5585,0.0,0.7671,0.9142,1.0953,1.4374,1.6522,1.8165,2.1043,2.2222,2.3065,2.5052,2.5973,2.6614,2.7819,2.8319,2.8748,2.9717,2.9673,2.9479,2.9742,2.9197,2.837,2.7432,2.7385,2.7374,2.6871,2.9379,3.2144,3.4012,3.6765,3.9123,4.0508,4.0854,4.1123,4.1508,4.1585,4.1893,4.2656,4.3667,4.4345,4.4597,4.5389,4.5804,4.5685,4.5708,4.5663,4.5586,4.5586,4.5914,4.6589,4.6194,4.6397,4.7186,4.7245,4.7392,4.759,4.7942,4.8196,4.8306,4.8306,0.0,4.8306,4.8306,4.8306,4.8379,4.926,4.9117,4.874,5.0782,5.0873,5.0264,0.0,0.0,0.0,0.0,0.0,0.0,0.0,1.1166,1.2146,1.5731,1.4218,1.2241,1.0828,0.931,0.8169,0.0,0.0,0.0,0.0,0.0,0.0,0.3834,0.3838,0.3621,0.3134,0.3414,0.3612,0.3677,0.0,0.3864,0.4395,0.4249,0.4342,0.4567,0.3901,0.3719,0.3909,0.3714,0.3803,0.4122,0.4885,0.5399,0.5711,0.5826,0.6561,0.0,0.8737,1.0019,1.1624,1.4526,1.7035,1.9391,2.2135,2.3826,2.5051,2.6147,2.7019,2.765,2.8319,2.895,2.9585,3.0182,3.0309,3.0179,2.9656,2.8623,2.7399,2.6044,2.5575,2.5309,2.5086,2.8045,3.0997,3.2502,3.5696,3.843,3.97,4.0623,4.1316,4.1739,4.22,4.2662,4.3156,4.4111,4.4744,4.4886,4.5781,4.6191,4.5918,4.5786,4.5719,4.5586,4.6047,4.6471,4.6894,4.7127,4.7559,4.8205,4.8261,4.8281,4.8319,4.8489,4.8532,4.8306,4.8306,0.0,4.8306,4.8306,4.8563,4.904,4.9884,5.0283,5.0551,5.2149,5.2377,5.2008,0.0,0.0,0.0,0.0,0.0,0.0,0.0,1.3303,1.4679,1.8738,1.8704,1.7572,1.5506,1.2378,0.984,0.0,0.0,0.0,0.0,0.0,0.0,0.0,0.4373,0.4242,0.3633,0.0,0.0,0.4118,0.3842,0.0,0.0,0.0,0.0,0.0,0.3971,0.3945,0.4452,0.402,0.4105,0.0,0.0,0.5767,0.6091,0.0,0.0,0.0,0.0,1.0428,1.1927,1.4731,1.7309,1.9859,2.248,2.4777,2.6496,2.6654,2.758,2.8511,2.8654,2.9496,3.0351,3.0477,3.0838,3.0789,2.9202,2.7909,2.651,2.4718,2.3858,2.3597,2.3967,2.6886,2.9803,3.1674,3.5045,3.7892,3.9123,4.0739,4.1893,4.2047,4.2854,4.3487,4.3734,4.4505,4.5035,4.518,4.5858,0.0,4.5919,4.5703,4.5701,4.5855,4.6547,4.7086,4.7432,4.8048,4.8662,4.9213,4.9105,4.9056,4.9011,4.8911,4.8674,4.8306,4.8306,0.0,0.0,4.86,4.9077,4.9921,5.0729,5.1493,5.2221,5.3195,5.362,5.3823,0.0,0.0,0.0,0.0,0.0,0.0,0.0,1.4465,1.7111,2.4137,2.2473,2.0687,2.0662,1.644,1.2446,0.0,0.0,0.0,0.0,0.0,0.0,0.0,0.0,0.0,0.0,0.0,0.0,0.4552,0.4381,0.0,0.0,0.0,0.0,0.0,0.0,0.3716,0.4083,0.4646,0.0,0.0,0.0,0.0,0.0,0.0,0.0,0.0,0.0,0.9086,0.9889,1.4298,1.6821,1.8906,2.3082,2.534,2.6602,2.7306,2.7978,2.8606,2.918,2.9805,3.0435,3.0958,3.1151,3.0692,2.8802,2.7512,2.6203,2.4251,2.3044,2.2862,2.4562,2.5869,2.7982,3.2135,3.443,3.6584,3.8969,4.0739,4.2085,4.2893,4.3701,4.4547,4.5565,4.5723,4.5917,4.6165,4.6158,0.0,4.5918,4.5697,4.597,4.6778,4.6855,4.7625,4.9163,4.924,4.9702,5.0509,5.0176,4.9796,4.9416,4.9075,4.8674,4.8306,4.8306,0.0,0.0,4.9481,4.9958,5.0765,5.1573,5.2003,5.2293,5.3796,5.447,5.457,0.0,0.0,0.0,0.0,0.0,0.0,1.5692,1.5824,1.8006,2.521,2.4968,2.408,2.3978,2.0925,1.6436,1.0386,0.0,0.0,0.0,0.0,0.0,0.0,0.0,0.0,0.0,0.0,0.5482,0.5078,0.5307,0.0,0.0,0.0,0.0,0.0,0.0,0.4808,0.55,0.5326,0.0,0.0,0.0,0.0,0.0,0.0,0.0,0.0,0.0,0.0,1.0686,1.3267,1.5577,1.7782,1.9953,2.2527,2.5136,2.7031,2.7753,2.8093,2.9098,2.9848,3.0435,3.1072,3.119,3.0696,2.8733,2.7087,2.5457,2.3636,2.1994,2.1456,2.3332,2.4387,2.6365,3.0686,3.2814,3.4814,3.7392,3.9623,4.1354,4.22,4.3508,4.4701,4.5796,4.5917,4.6235,4.7031,4.6877,0.0,4.7456,4.6815,4.6586,4.6894,4.7894,4.874,4.9394,4.9933,5.0356,5.0702,5.0525,5.0135,4.9475,4.9326,4.8915,4.8343,4.8857,0.0,0.0,5.0618,5.1499,5.2344,5.3115,5.4049,5.4994,5.565,5.5907,5.6096,0.0,0.0,0.0,0.0,0.0,1.144,1.601,1.6511,1.8493,2.4379,2.5176,2.5243,2.5411,2.2558,1.8442,1.2904,1.0425,0.0,0.0,0.0,0.0,0.0,0.0,0.0,0.0,0.0,0.6296,0.5907,0.6216,0.6322,0.0,0.0,0.6166,0.6339,0.0,0.0,0.0,0.0,0.0,0.0,0.0,0.0,0.0,0.0,0.0,0.0,0.0,0.0,0.0,0.0,0.0,1.6972,1.8172,2.0478,2.331,2.6153,2.7235,2.7827,2.9289,3.0011,3.0435,3.1072,3.119,3.0628,2.8591,2.6782,2.5039,2.3105,2.1306,2.065,2.2496,2.3706,2.5774,2.9737,3.2006,3.416,3.6738,3.9046,4.0816,4.17,4.3278,4.4624,4.547,4.5841,4.6479,4.7539,0.0,0.0,4.8438,4.805,4.774,4.7625,4.8779,4.951,4.9779,5.0394,5.0702,5.0702,5.0702,5.0336,4.9711,4.9938,4.9521,4.8714,4.9935,0.0,0.0,5.2095,5.3188,5.3959,5.4509,5.5574,5.674,5.6556,5.6758,5.7302,0.0,0.0,0.0,0.0,0.0,0.0,1.3874,1.6293,1.8819,2.1759,2.2678,2.3501,2.4682,2.0269,1.74,1.7778,1.3729,0.0,0.0,0.0,0.0,0.0,0.0,0.0,0.0,0.0,0.67,0.7071,0.7016,0.7196,0.7577,0.7242,0.7045,0.6978,0.0,0.0,0.0,0.0,0.0,0.0,0.0,0.0,0.8354,0.0,0.0,0.0,0.0,0.0,0.0,0.0,0.0,0.0,0.0,2.0168,2.1395,2.4657,2.6504,2.7921,2.9861,3.0356,3.0435,3.1072,3.119,3.0568,2.8216,2.665,2.5063,2.2782,2.1237,2.0812,2.256,2.4206,2.6418,2.984,3.2545,3.5084,3.7623,3.9431,4.0816,4.17,4.3278,4.4432,4.4684,4.567,4.6641,4.7539,0.0,0.0,4.8452,4.9163,4.949,4.9394,4.9394,4.9817,5.0664,5.0702,5.0702,5.0702,5.0702,5.0483,5.0111,5.0912,5.062,0.0,0.0,0.0,0.0,5.3838,5.484,5.5574,5.5574,5.6088,5.6694,5.597,5.6709,5.7904,0.0,0.0,0.0,0.0,0.0,0.0,0.0,1.4169,1.5296,1.8724,1.9331,2.018,2.2115,1.99,1.8289,1.8501,1.4118,0.0,0.0,0.0,0.0,0.0,0.0,0.0,0.0,0.0,0.8366,0.8612,0.9509,0.9997,1.0123,0.984,0.9351,0.8768,0.8267,0.8038,0.0,0.0,0.0,0.0,0.0,0.8668,0.9031,0.0,0.0,0.0,0.0,0.0,0.0,0.0,0.0,0.0,0.0,0.0,0.0,2.2294,2.4204,2.5787,2.7158,2.8212,2.9046,2.9542,2.9668,2.938,2.8164,2.6365,2.4465,2.2839,2.1308,2.0812,2.256,2.3765,2.6139,3.1275,3.3276,3.5276,3.843,4.0315,4.1508,4.1777,4.4449,4.6314,4.6407,4.7416,4.8203,0.0,0.0,0.0,5.0221,5.0317,5.0048,4.9433,4.9971,5.0433,5.0702,5.0702,5.0702,5.0702,5.0702,5.0483,5.0111,5.0912,5.1292,0.0,0.0,0.0,0.0,5.5533,5.6198,5.6455,5.7042,5.7409,5.7584,5.7361,5.7554,5.795,0.0,0.0,0.0,0.0,0.0,0.0,0.0,1.3044,1.3656,1.5802,1.6305,1.7513,2.0355,1.8254,1.7259,1.8788,1.4819,0.0,0.0,0.0,0.0,0.0,0.0,0.0,0.7376,0.8433,0.9335,1.0045,1.1046,1.1856,1.243,1.2415,1.1721,1.0602,1.0241,0.9658,0.0,0.0,0.0,0.0,0.9054,0.9322,0.9536,0.0,0.0,0.0,0.0,0.0,0.0,0.0,0.0,0.0,0.0,0.0,0.0,0.0,2.1859,2.3661,2.6166,2.7185,2.7768,2.877,2.8863,2.8527,2.7733,2.5937,2.4049,2.2872,2.1416,2.0882,2.2622,2.4097,2.6495,3.0775,3.3006,3.5276,3.8354,4.0008,4.147,4.3047,4.5026,4.663,4.7582,4.8138,0.0,0.0,0.0,0.0,5.1049,5.0875,5.0433,4.9894,5.0433,5.0702,5.0702,5.0702,5.0702,5.0702,5.0702,5.0584,5.0374,5.1829,5.2499,0.0,0.0,0.0,0.0,5.7052,5.7405,5.7299,5.7813,5.7997,5.7997,5.7997,5.7997,5.7997,0.0,0.0,0.0,0.0,0.0,0.0,0.0,1.2755,1.3459,1.3127,1.3615,1.5323,1.8785,1.5651,1.476,1.8386,0.0,0.0,0.0,0.0,0.0,0.0,0.0,0.0,0.8887,0.8955,0.9791,1.1421,1.1924,1.296,1.4511,1.4884,1.4132,1.2509,1.2482,1.1318,0.0,0.0,0.0,0.0,0.9612,0.9894,0.0,0.0,0.0,0.0,0.0,0.0,0.0,0.0,0.0,0.0,0.0,0.0,0.0,0.0,0.0,0.0,0.0,2.6795,2.6497,2.83,2.8323,2.7712,2.6916,2.5278,0.0,2.2807,2.1504,2.1035,2.2746,2.5066,2.7295,2.9171,3.2237,3.5276,3.7892,3.9084,4.12,4.5355,4.5355,4.5959,4.8438,4.8177,0.0,0.0,0.0,0.0,5.1126,5.0875,5.0702,5.0702,5.0702,5.0702,5.0702,5.0702,5.0702,5.0702,5.0741,5.0818,5.0971,5.3433,5.4203,0.0,0.0,0.0,0.0,5.8239,5.8418,5.7997,5.7997,5.7997,5.7997,5.7997,5.7997,5.7997,0.0,0.0,0.0,0.0,0.0,0.0,0.0,0.0,0.0,0.0,1.168,1.2697,1.378,1.3342,1.3515,0.0,0.0,0.0,0.0,0.0,0.0,0.0,0.0,0.0,0.9587,1.0423,1.148,1.2744,1.4138,1.5478,1.6771,1.7087,1.6206,1.4367,1.3999,1.2591,0.0,0.0,0.0,0.0,1.0567,1.076,0.0,0.0,0.0,0.0,1.2107,1.2559,0.0,0.0,0.0,0.0,0.0,0.0,0.0,0.0,1.9701,2.0283,2.2912,0.0,2.3881,2.5883,2.5214,2.4251,0.0,2.3723,2.2186,2.1987,2.1659,2.1905,2.3597,2.5451,2.8088,3.2314,3.4737,3.7238,4.0469,4.22,4.447,4.8086,4.7971,4.8353,5.0218,5.0477,0.0,0.0,0.0,5.1153,5.1973,5.1183,5.0702,5.0702,5.0702,5.0702,5.0702,5.0702,5.0702,5.0702,5.1318,5.1972,5.2664,5.4549,5.6011,0.0,0.0,0.0,5.8826,5.8725,5.8418,5.7997,5.7997,5.7997,5.7997,5.7997,5.7997,5.7997,0.0,0.0,0.0,0.0,0.0,0.0,0.0,0.0,0.0,0.0,0.0,1.2229,0.0,0.0,0.0,0.0,0.0,0.0,0.0,0.0,0.0,0.0,0.0,1.0342,1.0319,1.1189,1.2505,1.4183,1.5391,1.6996,1.899,1.9047,1.8021,1.6007,1.4252,1.2757,0.0,0.0,0.0,1.1066,1.1094,0.0,0.0,0.0,0.0,0.0,1.2431,1.3326,0.0,1.6281,1.7647,1.8929,0.0,0.0,0.0,0.0,1.8833,1.9043,2.0759,2.1915,2.3092,2.5329,2.467,2.3815,2.4798,2.3197,2.154,2.1655,2.1694,2.2183,2.3852,2.6169,2.8975,3.2494,3.543,3.8777,4.2931,4.5316,4.7509,4.9817,4.9875,5.0216,0.0,0.0,0.0,0.0,0.0,5.2434,5.2878,5.2222,5.1664,5.1279,5.1241,5.1087,5.0702,5.1087,5.1241,5.1279,5.2087,5.2972,5.3857,5.5549,5.7049,0.0,0.0,0.0,5.9389,5.9102,5.8632,5.7997,5.7997,5.7997,5.7997,5.7997,5.7997,5.7997,0.0,0.0,0.0,0.0,0.0,0.0,0.0,0.0,0.0,0.0,0.0,0.0,0.0,0.0,0.0,0.0,0.0,0.0,0.0,0.0,0.0,0.0,0.0,1.0893,1.1328,1.1724,1.3011,1.5247,1.6158,1.7946,2.0579,2.0892,1.9823,1.7563,1.4498,1.2913,1.2496,0.0,1.1549,1.1549,1.1513,0.0,0.0,0.0,0.0,0.0,0.0,0.0,0.0,1.8668,1.9927,2.0828,2.1669,0.0,0.0,0.0,0.0,0.0,2.0161,2.1771,2.3362,2.5045,2.4725,2.4136,2.4635,2.2989,2.1422,2.1719,2.2061,2.2811,2.4563,2.7555,3.0445,3.2532,3.6276,4.0469,4.4778,4.7394,4.9356,5.0721,5.0933,0.0,5.2781,0.0,0.0,0.0,0.0,5.3663,5.3782,5.3433,5.2856,5.2125,5.2125,5.1779,5.1087,5.1625,5.1972,5.2125,5.3126,5.4049,5.4934,5.6626,5.7857,5.8781,0.0,0.0,5.9492,5.9424,5.8874,5.8097,5.8042,5.7997,5.7997,5.7997,5.7997,5.7997,0.0,0.0,0.0,0.0,0.0,0.0,0.0,0.0,0.0,0.0,0.0,0.0,0.0,0.0,0.0,0.0,0.0,0.0,0.0,0.0,0.0,0.0,1.2106,1.2364,1.3342,1.2553,1.3089,1.5049,1.6912,1.8562,2.0073,2.2638,2.2139,1.9003,1.7253,1.5228,1.3135,1.2783,1.263,1.2644,1.2466,0.0,0.0,0.0,0.0,0.0,0.0,0.0,0.0,1.7392,1.8632,1.9767,2.0236,0.0,0.0,0.0,0.0,0.0,2.2658,2.3797,2.3823,2.2556,2.1884,2.1689,2.2231,2.1819,2.1623,2.2513,2.383,2.5562,2.7965,3.0573,3.3609,3.7507,4.1046,4.3624,4.4393,4.5547,4.7489,5.0528,5.0488,5.1356,0.0,0.0,0.0,0.0,0.0,5.3934,5.4685,5.3741,5.3126,5.301,5.3107,5.3069,5.2818,5.2202,5.2279,5.301,5.4587,5.578,5.6665,5.8357,5.9588,6.0435,0.0,6.0482,5.9946,5.9559,5.9065,5.8549,5.8186,5.7997,5.7997,5.7997,5.7997,5.7997,0.0,0.0,0.0,0.0,0.0,0.0,0.0,0.0,0.0,0.0,0.0,0.0,0.0,0.0,0.0,0.0,0.0,0.0,0.0,0.0,0.0,0.0,1.3757,1.359,1.3795,1.4355,1.5771,1.8062,2.0109,2.1892,2.3432,2.2907,2.1661,1.9731,1.6996,1.5099,1.3863,1.3504,1.329,1.3193,0.0,0.0,0.0,0.0,0.0,0.0,0.0,0.0,0.0,0.0,1.9531,2.099,2.0243,0.0,0.0,0.0,0.0,0.0,2.0679,2.2094,2.3047,2.2774,2.4389,2.6167,2.6595,2.6498,2.6151,2.5697,2.6572,2.806,3.0151,3.2596,3.6007,4.1162,4.3701,4.5355,4.6317,4.7663,4.9163,5.0855,0.0,0.0,0.0,0.0,0.0,0.0,0.0,0.0,5.557,5.4934,5.4608,5.4706,5.4262,5.4246,5.4735,5.3764,5.351,5.3933,5.5588,5.6857,5.7742,5.8934,5.9973,6.0781,0.0,6.0533,6.0103,5.9885,5.9354,5.8673,5.8461,5.8194,5.7997,5.7997,5.7997,5.7997,0.0,0.0,0.0,0.0,0.0,0.0,0.0,0.0,0.0,0.0,0.0,0.0,0.0,0.0,0.0,0.0,0.0,0.0,0.0,0.0,0.0,0.0,1.4908,1.5018,1.5411,1.6577,1.856,2.1394,2.3322,2.5302,2.7148,2.3785,2.16,2.039,1.7012,1.5168,1.4536,1.4076,1.3827,1.3672,0.0,0.0,0.0,0.0,0.0,0.0,0.0,0.0,0.0,0.0,0.0,0.0,0.0,0.0,0.0,1.9224,1.8711,1.8889,1.9834,2.1283,2.2926,2.4663,2.7163,2.9471,3.064,3.0524,2.9952,2.9259,2.9913,3.1133,3.2916,3.579,3.9354,4.3855,4.547,4.6624,4.7855,4.935,5.0563,5.1162,5.2432,0.0,0.0,0.0,0.0,0.0,0.0,0.0,5.6477,5.6263,5.6148,5.6284,5.5609,5.548,5.5955,5.5249,5.4857,5.478,5.6511,5.7665,5.8319,5.9358,6.0165,6.0781,6.0781,6.0597,6.0283,6.0132,5.9696,5.9028,5.8796,5.8418,5.7997,5.7997,5.7997,5.7997,0.0,0.0,0.0,0.0,0.0,0.0,0.0,0.0,0.0,0.0,0.0,0.0,0.0,0.0,0.0,0.0,0.0,0.0,0.0,0.0,0.0,0.0,0.0,1.6983,2.0139,1.9121,2.0167,2.3512,2.5425,2.7422,2.9403,2.6718,2.4031,2.1402,1.9271,1.7105,1.5018,1.4621,1.4391,1.4319,1.3961,0.0,0.0,0.0,0.0,0.0,0.0,0.0,0.0,0.0,0.0,0.0,0.0,0.0,2.0534,2.0373,2.0209,2.0696,2.3717,2.432,2.4814,2.8079,2.7323,2.6692,3.0187,3.0161,3.0027,3.227,3.4019,3.5637,3.7424,4.1647,4.5009,4.5432,4.6855,4.7758,4.7237,4.8038,4.9326,5.1078,0.0,0.0,0.0,0.0,0.0,0.0,0.0,0.0,5.7264,5.7302,5.7247,5.7126,5.7362,5.696,5.5899,5.5994,5.5917,5.5626,5.7396,5.8242,5.8357,5.9973,6.0742,6.0781,6.0781,6.0781,6.0734,6.0283,6.0074,5.9916,5.9065,5.8418,5.7997,5.7997,5.7997,5.7997,0.0,0.0,0.0,0.0,0.0,0.0,0.0,0.0,0.0,0.0,0.0,0.0,0.0,0.0,0.0,0.0,0.0,0.0,0.0,0.0,1.3914,0.0,0.0,1.7387,2.0019,2.1186,2.3386,2.6779,2.8801,2.9715,2.9386,2.5639,2.2952,2.1195,1.7966,1.6298,1.5796,1.5155,1.5048,1.5284,1.4502,1.4147,0.0,0.0,0.0,0.0,0.0,0.0,0.0,0.0,1.7591,1.8471,1.8426,1.9681,2.1033,2.0271,2.0143,2.0481,2.1826,2.3676,2.5613,2.7363,2.8836,3.0528,3.2987,3.4159,3.5277,3.7266,3.7805,3.8421,4.013,4.3256,4.5778,4.6317,4.7027,4.7584,4.7912,4.8794,4.9717,0.0,0.0,0.0,0.0,0.0,0.0,0.0,0.0,0.0,5.6753,5.7151,5.7456,5.7516,5.7035,5.6859,5.7016,5.6879,5.6742,5.6665,5.778,5.855,5.9088,6.0242,6.0781,6.0781,6.0781,6.0781,6.0781,6.0622,6.0365,5.9977,5.9103,5.8591,5.8418,5.8097,5.7997,5.7997,0.0,0.0,0.0,0.0,0.0,0.0,0.0,0.0,0.0,0.0,0.0,0.0,0.0,0.0,0.0,0.0,0.0,0.0,0.0,1.3663,1.3983,1.4975,1.5763,1.7135,1.9174,2.2064,2.5146,2.8257,3.0892,3.1308,2.9527,2.5683,2.3415,2.2286,1.8605,1.7231,1.7553,1.6424,1.5979,1.597,1.4959,1.4504,0.0,0.0,0.0,0.0,0.0,0.0,0.0,0.0,1.668,1.7939,1.7915,1.9532,2.1253,2.0535,2.1134,2.1877,2.1544,2.3624,2.6236,2.7591,2.9877,3.2569,3.5376,3.7072,3.8623,4.0585,4.0969,4.1354,4.2739,4.4662,4.6201,4.6817,4.745,4.8137,4.881,4.9749,0.0,0.0,0.0,0.0,0.0,0.0,0.0,0.0,0.0,0.0,0.0,5.7673,5.7886,5.7649,5.7055,5.6894,5.731,5.7267,5.7371,5.7627,5.8357,5.8973,5.9511,6.0396,6.0781,6.0781,6.0781,6.0781,6.0781,6.0781,6.0508,6.0006,5.9212,5.8835,5.8632,5.8186,5.7997,5.7997,0.0,0.0,0.0,0.0,0.0,0.0,0.0,0.0,0.0,0.0,0.0,0.0,0.0,0.0,0.0,0.0,0.0,0.0,1.3913,1.3573,1.3578,1.3956,1.4952,1.6311,1.8038,2.1672,2.4841,2.751,3.1172,3.2022,3.0183,2.7635,2.5999,2.5034,2.1974,2.0547,2.0351,1.8465,1.717,1.6329,1.5315,1.4904,1.4877,0.0,0.0,0.0,0.0,0.0,0.0,0.0,1.5884,1.6455,1.9529,2.0714,2.111,2.1406,2.3525,2.5448,2.3908,2.4771,2.6788,2.9497,3.0213,3.1565,3.6825,3.8123,3.8954,4.1508,4.3338,4.4761,4.547,4.6317,4.6932,4.6932,4.8451,4.9666,4.98,5.0603,0.0,0.0,0.0,0.0,0.0,0.0,0.0,0.0,0.0,0.0,0.0,5.9062,5.8702,5.762,5.7775,5.7422,5.6406,5.7073,5.7769,5.8527,5.9204,5.9511,5.955,6.0396,6.0781,6.0781,6.0781,6.0781,6.0781,6.0781,6.0508,6.0074,5.9592,5.9102,5.8673,5.8186,5.7997,5.7997,0.0,0.0,0.0,0.0,0.0,0.0,0.0,0.0,0.0,0.0,0.0,0.0,0.0,0.0,0.0,0.0,0.0,0.0,1.3927,1.3798,1.361,1.331,1.4486,1.5318,1.5713,1.8837,2.2889,2.7924,2.9664,2.9327,2.7036,2.5638,2.411,2.2495,2.1737,2.0352,1.8594,1.7413,1.7069,1.7175,1.6254,1.5822,1.5743,0.0,0.0,0.0,0.0,0.0,0.0,0.0,0.0,0.0,1.8522,2.0886,2.2602,2.106,2.2591,2.4344,2.2196,2.5191,2.9011,2.9257,3.336,3.7694,3.87,3.9392,4.07,4.3893,4.5432,4.626,4.6471,4.674,4.7278,4.8471,4.9259,4.9975,5.0636,0.0,0.0,0.0,0.0,0.0,0.0,0.0,0.0,0.0,0.0,0.0,0.0,5.8242,5.7843,5.6946,5.6942,5.7148,5.7461,5.8016,5.8738,5.9565,6.0127,6.0396,6.0435,6.0666,6.0781,6.0781,6.0781,6.0781,6.0781,6.0781,6.0734,6.0533,6.0074,5.9592,5.9139,5.8673,5.8282,5.7997,0.0,0.0,0.0,0.0,0.0,0.0,0.0,0.0,1.4813,1.4631,1.4668,1.4627,0.0,0.0,0.0,1.4488,1.4441,1.4282,1.4038,1.3941,1.3848,1.3716,1.4369,1.5092,1.5862,1.8681,2.16,2.4505,2.6049,2.619,2.5111,2.5246,2.4896,2.4138,2.4471,2.3242,2.0898,1.9658,1.8969,1.8674,1.8091,1.7622,1.7267,0.0,0.0,0.0,0.0,0.0,0.0,0.0,0.0,0.0,1.7397,1.9417,2.1277,2.1086,2.3433,2.5979,2.5305,2.8643,3.2492,3.3297,3.6541,3.9892,4.1431,4.1893,4.2701,4.5086,4.6278,4.6894,4.6894,4.7432,4.824,4.924,4.9913,5.0516,0.0,0.0,0.0,0.0,0.0,0.0,0.0,0.0,0.0,0.0,0.0,0.0,0.0,5.8594,5.8008,5.7148,5.7109,5.7383,5.789,5.8827,5.9529,5.9988,6.0589,6.0858,6.0781,6.0781,6.0781,6.0781,6.0781,6.0781,6.0781,6.0781,6.0781,6.0757,6.0283,5.9823,5.9319,5.8874,5.8418,5.7997,0.0,0.0,0.0,0.0,0.0,0.0,0.0,1.5018,1.493,1.4921,1.4794,1.4718,0.0,0.0,0.0,1.4511,1.4332,1.4232,1.4219,1.4024,1.4194,1.4812,1.4795,1.5687,1.7636,2.0106,2.0544,1.8828,2.1237,2.2955,2.4,2.5732,2.713,2.8122,2.8593,2.7498,2.5195,2.3319,2.1646,2.0265,2.0188,1.9658,1.8888,1.8841,0.0,0.0,0.0,0.0,0.0,0.0,0.0,0.0,1.6334,1.7204,1.8401,2.1127,2.5115,2.8965,3.0612,3.3263,3.6276,3.9469,3.9431,3.9815,4.4509,4.5047,4.4778,4.5663,4.6394,4.6971,4.7086,4.8355,4.9433,4.951,5.0414,0.0,0.0,0.0,0.0,0.0,0.0,0.0,0.0,0.0,0.0,0.0,0.0,0.0,0.0,5.9648,5.8828,5.8047,5.8008,5.8047,5.8125,5.9491,6.0153,6.0118,6.0689,6.0896,6.0781,6.0781,6.0781,6.0781,6.0781,6.0781,6.0781,6.0781,6.0781,6.0757,6.0338,5.9855,5.9354,5.8913,5.8461,5.7997,0.0,0.0,0.0,0.0,0.0,0.0,1.5234,1.5204,1.5113,1.5011,1.4943,1.4933,1.4877,1.4755,0.0,1.4674,1.4533,1.4356,1.4219,1.418,1.4409,1.5015,1.68,1.7879,1.8141,1.8113,1.7652,1.6738,1.9622,2.1434,2.2195,2.4423,2.5901,2.6744,2.7166,2.5818,2.3047,2.0141,1.9091,1.9358,1.9296,1.8773,1.8042,1.8712,1.7432,0.0,0.0,0.0,0.0,0.0,0.0,0.0,1.6534,1.7963,1.9109,1.9149,2.3256,2.7542,2.6631,3.0841,3.6007,3.8046,4.0777,4.3393,4.5201,4.597,4.6586,4.7394,4.7201,4.7317,4.8625,4.9163,4.9625,5.0317,0.0,0.0,0.0,0.0,0.0,0.0,0.0,0.0,0.0,0.0,0.0,0.0,0.0,0.0,6.0351,5.9648,5.9101,5.8945,5.8906,5.9219,5.9844,5.997,6.0378,0.0,6.0884,6.0819,6.0781,6.0781,6.0781,6.0781,6.0781,6.0781,6.0781,6.0781,6.0781,6.0781,6.0671,6.0132,5.9389,5.9284,5.8753,5.7997,0.0,0.0,0.0,0.0,0.0,0.0,0.0,0.0,1.5216,1.5101,1.5057,1.5016,1.4957,1.4804,0.0,0.0,1.4589,1.4453,1.4332,1.4332,1.4764,1.5732,1.795,1.8584,1.7379,1.7274,1.6466,1.4913,1.6682,1.8488,2.0357,2.2873,2.4999,2.6694,2.7195,2.6029,2.3684,2.1701,2.0881,2.102,2.1735,2.0996,1.9581,2.0042,1.8321,1.567,1.5162,0.0,0.0,0.0,0.0,0.0,0.0,0.0,1.7641,1.9269,2.2916,2.6836,2.8811,3.3234,3.7892,4.0392,4.297,4.5047,4.5509,4.6278,4.7124,4.7932,4.8086,4.8355,4.924,4.974,5.0202,0.0,0.0,0.0,0.0,0.0,0.0,0.0,0.0,0.0,0.0,0.0,0.0,0.0,0.0,6.0156,6.0976,6.0234,5.9765,5.9765,5.9765,5.9961,6.039,6.0667,6.0976,6.1286,6.113,6.0935,6.0781,6.0781,6.0781,6.0781,6.0781,6.0781,6.0781,6.0781,6.0781,6.0781,6.0781,6.0217,5.9389,5.9389,5.8796,5.807,0.0,0.0,0.0,0.0,0.0,0.0,0.0,0.0,0.0,1.5229,1.5168,1.5127,1.5061,1.4866,1.4718,0.0,0.0,0.0,1.4488,1.4634,1.5244,1.6432,1.8378,1.859,1.6796,1.7133,1.6269,1.4077,1.4281,1.594,1.8968,2.1497,2.4267,2.7042,2.7098,2.6347,2.4935,2.3638,2.2871,2.2639,2.3753,2.2851,2.085,2.085,1.8927,1.6189,1.5311,1.5016,1.504,1.5123,0.0,0.0,0.0,0.0,1.5834,1.9468,2.2622,2.6074,3.1046,3.5647,3.9931,4.3431,4.497,4.5624,4.5778,4.6509,4.7355,4.8163,4.8894,4.9433,4.9586,5.024,0.0,0.0,0.0,0.0,0.0,0.0,0.0,0.0,0.0,0.0,0.0,0.0,0.0,0.0,0.0,6.0937,6.164,6.1015,6.0625,6.0625,6.0625,6.0625,6.0625,6.1318,6.1541,6.1343,6.1304,6.1112,6.0819,6.0819,6.0781,6.0781,6.0781,6.0781,6.0781,6.0781,6.0781,6.0781,6.0781,6.0283,5.9492,5.9424,5.8874,5.8207,0.0,0.0,0.0,0.0,0.0,0.0,0.0,0.0,0.0,0.0,1.5275,1.5266,1.526,1.5011,1.4877,1.4877,1.4654,1.4488,1.4488,0.0,0.0,1.6407,1.7633,1.8374,1.8538,1.7524,1.6646,1.605,1.5457,1.643,1.8944,2.0988,2.3693,2.673,2.481,2.4211,2.4485,2.0335,1.9396,2.0627,2.005,1.9203,1.8196,1.8196,1.7042,1.5343,1.5222,1.5177,1.528,1.5918,1.6116,0.0,0.0,0.0,1.623,1.6755,2.0373,2.4361,2.5007,3.1546,3.9161,4.3278,4.497,4.5778,4.6547,4.7355,4.8202,4.9048,4.9317,4.9625,5.0394,5.0702,0.0,0.0,0.0,0.0,0.0,0.0,0.0,0.0,0.0,0.0,0.0,0.0,0.0,0.0,6.1523,6.1562,6.168,6.1601,6.1523,6.1523,6.1523,6.1523,6.1523,6.1516,6.151,6.1458,6.1189,6.1012,6.0973,6.0858,6.0781,6.0781,6.0781,6.0781,6.0781,6.0781,6.0781,6.0781,6.0781,6.0482,5.9946,5.9526,5.9028,5.8661,0.0,0.0,0.0,0.0,0.0,0.0,0.0,0.0,0.0,0.0,0.0,1.5349,1.5289,1.5127,1.5011,1.5017,1.4832,1.4705,1.4632,1.5281,1.577,1.6014,1.6927,1.7343,1.7118,1.6525,1.581,1.5006,1.4809,1.6479,1.9924,2.1315,2.3685,2.6712,2.4621,2.4076,2.4423,2.019,1.9158,2.0273,1.9888,2.0072,2.041,1.8472,1.7915,1.7843,1.5944,1.5234,1.5305,1.615,1.6412,1.6412,1.6412,0.0,0.0,0.0,1.8659,2.2466,2.8103,3.4095,3.9738,4.397,4.5316,4.5817,4.6701,4.7509,4.8355,4.9202,4.9779,5.0279,0.0,0.0,0.0,0.0,0.0,0.0,0.0,0.0,0.0,0.0,0.0,0.0,0.0,0.0,0.0,0.0,6.1719,6.1719,6.1719,6.1719,6.1719,6.1719,6.1719,6.1719,6.1719,6.164,6.158,6.15,6.1274,6.1099,6.1012,6.1435,6.132,6.0781,6.0781,6.0781,6.0781,6.0781,6.0781,6.0781,6.0781,6.0508,6.0074,5.9885,5.9319,5.8859,0.0,0.0,0.0,0.0,0.0,0.0,0.0,0.0,0.0,0.0,0.0,1.5379,1.5313,0.0,0.0,0.0,1.4987,1.484,1.4698,1.521,1.5464,1.538,1.6005,1.6042,1.5417,1.538,1.4914,1.3983,1.4373,1.6785,2.1088,2.2353,2.467,2.7763,2.5585,2.4692,2.4499,2.086,1.9965,2.0927,2.072,2.142,2.239,2.0502,2.0576,2.1274,1.7816,1.6578,1.6534,1.6509,1.6657,1.6772,1.6542,1.6657,0.0,0.0,0.0,2.0435,3.0006,3.4468,3.7661,4.297,4.4624,4.5355,4.6855,4.7855,4.8663,4.9548,5.024,5.0837,0.0,0.0,0.0,0.0,0.0,0.0,0.0,0.0,0.0,0.0,0.0,0.0,0.0,0.0,0.0,0.0,6.1719,6.1719,6.1719,6.1719,6.1719,6.1719,6.1719,6.1719,6.1719,6.1719,6.164,6.1562,6.1426,6.124,6.1116,6.1928,6.1858,6.1127,6.1127,6.1127,6.1089,6.0896,6.0781,6.0781,6.0781,6.0597,6.0245,6.0132,5.9663,5.929,0.0,0.0,0.0,0.0,0.0,0.0,0.0,0.0,0.0,0.0,0.0,1.5348,1.5377,1.5212,1.5094,1.5118,1.4971,1.4825,1.4698,1.486,1.4812,1.4584,1.4706,0.0,1.4573,1.4561,1.4453,1.4157,1.5147,1.784,2.2065,2.4205,2.7182,3.0559,2.7662,2.5795,2.4571,2.1512,2.1196,2.259,2.1905,2.1662,2.1998,2.4308,2.5236,2.4879,2.139,2.0133,1.9773,1.7305,1.7003,1.7503,1.6734,1.7003,1.7311,0.0,0.0,0.0,2.612,2.8352,3.0467,3.87,4.2008,4.4085,4.7317,4.8702,4.9586,5.0433,5.0664,5.1029,0.0,0.0,0.0,0.0,0.0,0.0,0.0,0.0,0.0,0.0,0.0,0.0,0.0,0.0,0.0,0.0,6.1719,6.1719,6.1719,6.1719,6.1719,6.1719,6.1719,6.1719,6.1719,6.1719,6.1719,6.168,6.1562,6.1408,6.1331,6.1986,6.2204,6.2012,6.2012,6.2012,6.1973,6.1127,6.0781,6.0781,6.0781,6.0781,6.0734,6.0245,6.0074,6.0175,0.0,0.0,0.0,0.0,0.0,0.0,0.0,0.0,0.0,0.0,0.0,0.0,0.0,1.5344,1.5275,1.5295,1.512,1.4971,1.4896,1.4883,1.4859,1.4775,1.4813,1.4823,1.4765,1.4685,1.4541,1.4307,1.4733,1.7257,2.1758,2.3176,2.567,2.8821,2.6299,2.5307,2.5069,1.9439,1.8003,1.9596,2.0489,2.2211,2.43,2.5303,2.7381,2.9331,2.5806,2.3494,2.2022,2.1623,1.9883,1.7774,1.7426,1.7144,1.6689,1.5535,1.6574,1.9081,2.3428,2.6621,3.0044,3.5853,3.9815,4.3008,4.5855,4.8009,4.9663,5.051,5.1125,0.0,0.0,0.0,0.0,0.0,0.0,0.0,0.0,0.0,0.0,0.0,0.0,0.0,0.0,0.0,0.0,0.0,0.0,6.1719,6.1719,6.1719,6.1719,6.1719,6.1719,6.1719,6.1719,6.1719,6.1719,6.1719,6.164,6.1495,6.1355,6.2663,6.3128,6.2897,6.3474,6.3089,6.2089,6.1743,6.1281,6.0781,6.0781,6.0781,6.0858,6.1236,6.1207,6.1133,0.0,0.0,0.0,0.0,0.0,1.5095,1.526,1.5272,1.5289,1.5342,0.0,0.0,0.0,0.0,1.5383,1.5416,1.525,1.5133,1.5037,1.5011,1.4979,1.4904,1.49,1.4909,1.4904,1.4747,1.4648,1.4515,1.4779,1.6904,2.0787,2.2008,2.43,2.7295,2.4537,2.4548,2.6387,2.155,1.9819,2.0481,2.294,2.4579,2.5917,2.8575,3.0645,3.1836,2.9492,2.7327,2.5605,2.5605,2.3879,2.1483,1.9995,1.8152,1.6349,1.5503,1.6612,1.8573,2.0542,2.3774,2.7775,3.2929,3.6546,4.0085,4.4932,4.7124,4.8625,5.0317,5.1356,0.0,0.0,0.0,0.0,0.0,0.0,0.0,0.0,0.0,0.0,0.0,0.0,0.0,0.0,0.0,0.0,0.0,0.0,0.0,6.1719,6.1719,6.1719,6.1719,6.1719,6.1719,6.1719,6.1719,6.1719,6.1719,6.1719,6.1573,6.1355,6.2702,6.3344,6.3358,6.4205,6.3974,6.2897,6.232,6.1743,6.1204,6.0896,6.0973,6.132,6.1897,6.2081,6.2213,0.0,0.0,0.0,0.0,1.5071,1.5183,1.5189,1.5189,1.5245,1.5281,0.0,0.0,0.0,0.0,0.0,1.5469,1.5423,1.5317,1.5112,1.5151,1.512,1.4921,1.4981,1.4989,1.4913,1.4766,1.4698,1.4698,1.539,1.6898,1.9271,2.0939,2.3419,2.6282,2.2619,2.3723,2.8288,2.7814,2.6746,2.5649,2.9162,2.8701,2.6718,3.4329,3.5234,3.2422,3.2344,3.1753,3.0677,2.8996,2.884,2.8566,2.4264,1.9986,1.6386,1.5553,1.592,1.6721,0.0,0.0,0.0,2.9813,3.216,3.5238,4.4432,4.5932,4.6394,4.9817,5.1202,0.0,0.0,0.0,0.0,0.0,0.0,0.0,0.0,0.0,0.0,0.0,0.0,0.0,0.0,0.0,0.0,0.0,6.1719,6.1719,6.1719,6.1719,6.1719,6.1719,6.1719,6.1719,6.1719,6.1719,6.1719,6.1719,6.1719,6.1573,6.1328,6.2124,6.2767,6.332,6.4205,6.4628,6.4474,6.2858,6.2166,6.205,6.1204,6.1396,6.2127,6.2166,6.2666,6.3474,0.0,0.0,0.0,1.4868,1.4955,1.5042,1.5177,1.5234,1.5289,0.0,0.0,0.0,1.5469,1.6523,1.7266,1.7227,1.7194,1.6642,1.5317,1.5234,1.5171,1.5127,1.5146,1.5146,1.5127,1.4996,1.4909,1.4859,1.5535,1.6436,1.7605,1.9234,2.1106,2.3107,2.2869,2.3215,2.3719,2.0269,2.0658,2.3674,2.4788,2.729,3.072,3.4134,3.6406,3.7773,3.7734,3.6367,3.449,3.3982,3.1092,2.6795,2.1833,1.8137,1.5613,1.5377,1.6739,1.8304,1.7876,0.0,0.0,0.0,0.0,0.0,3.6699,3.9431,4.2162,4.6201,4.8238,0.0,0.0,0.0,0.0,0.0,0.0,0.0,0.0,0.0,0.0,0.0,0.0,0.0,0.0,0.0,0.0,0.0,6.1719,6.1719,6.1719,6.1719,6.1719,6.1719,6.1719,6.1719,6.1719,6.1719,6.1719,6.1719,6.1719,6.1599,6.146,6.231,6.2675,6.2651,6.4128,6.4743,6.4691,6.4128,6.3551,6.2935,6.2704,6.2781,6.3051,6.3666,6.4051,6.4359,0.0,0.0,1.4674,1.5292,1.575,1.607,1.6215,1.6272,1.6303,0.0,0.0,0.0,1.7539,1.8789,1.9336,1.8555,1.8453,1.7715,1.5956,1.5778,1.558,1.5228,1.5189,1.5388,1.5734,1.5266,1.5133,1.5403,1.5411,1.5558,1.5918,1.7546,1.886,1.9871,2.0575,2.0865,2.0524,1.721,1.8577,2.3236,2.6572,2.9175,3.149,3.5388,3.7226,0.0,0.0,0.0,3.6836,3.8594,3.5195,2.9492,2.5391,2.156,1.8383,1.7249,1.8509,2.0114,1.9535,2.1346,2.3765,2.5313,0.0,0.0,3.643,3.8623,4.1085,0.0,4.9605,0.0,0.0,0.0,0.0,0.0,0.0,0.0,0.0,0.0,0.0,0.0,0.0,0.0,0.0,6.1719,6.1719,6.1719,6.1719,6.1719,6.1719,6.1719,6.1719,6.1719,6.1719,6.1719,6.1719,6.1719,6.1719,6.1719,6.1719,6.164,6.1523,6.2329,6.2568,6.2452,6.4093,6.4859,6.496,6.5213,6.4784,6.3872,6.3589,6.3589,6.3897,6.4397,6.482,6.5205,0.0,0.0,1.4807,1.6026,1.7139,1.7928,1.8105,1.8126,1.8196,0.0,1.8548,1.9357,2.125,2.207,2.1719,1.9883,1.9663,1.8807,1.6887,1.667,1.6311,1.5503,1.5388,1.5734,1.6619,1.5663,1.5453,1.6101,1.5338,1.485,1.4683,1.6175,1.6914,1.6965,1.7127,1.7565,1.8231,1.7324,1.9323,2.3757,3.0774,3.2266,3.0976,0.0,3.8008,3.6094,4.0039,3.9961,3.8555,4.2187,3.9648,3.4492,3.1641,2.7656,2.3477,2.0391,2.1016,2.2572,2.2172,2.3303,2.5081,2.711,2.6659,0.0,3.8777,3.9662,4.0739,0.0,0.0,0.0,0.0,0.0,0.0,0.0,0.0,0.0,0.0,0.0,0.0,0.0,0.0,0.0,6.1719,6.1719,6.1719,6.1719,6.1719,6.1719,6.1719,6.1719,6.1719,6.1719,6.1719,6.1719,6.1719,6.1719,6.1719,6.1719,6.1719,6.164,6.1523,6.2126,6.2418,6.2496,6.4033,6.482,6.5062,6.6023,6.5855,6.4894,6.4191,6.4243,6.4743,6.4743,6.5243,6.5897,1.5265,1.4892,1.5029,1.6838,1.843,1.9735,2.0634,2.0812,2.1107,2.189,2.2667,2.4062,2.6523,2.6328,2.5039,2.2578,2.2343,2.1018,1.786,1.7574,1.7485,1.7292,1.6625,1.6619,1.7465,1.6644,1.6177,1.6101,1.6554,1.6335,1.549,1.6431,1.6619,1.6146,1.6286,1.612,1.5903,1.8459,2.1243,2.4152,2.6423,3.0273,3.4961,3.7773,3.9687,4.1094,4.2656,4.2891,4.2383,4.1875,3.9492,3.5976,3.1328,2.9648,2.8359,2.2969,2.4531,2.7539,2.5382,2.6004,2.7056,2.6107,2.7138,0.0,2.8698,3.0506,3.3237,0.0,3.9069,4.1261,0.0,0.0,0.0,0.0,0.0,0.0,0.0,0.0,0.0,0.0,0.0,0.0,6.1719,6.1719,6.1719,6.1719,6.1719,6.1719,6.1719,6.1719,6.1719,6.1719,6.1719,6.1719,6.1719,6.1719,6.1719,6.1719,6.1719,6.168,6.168,6.1791,6.1792,6.1774,6.3498,6.4268,6.4417,6.5913,6.638,6.605,6.5765,6.5667,6.5782,6.5705,6.5743,6.5897,1.6159,1.6631,1.7645,1.9563,2.1342,2.3051,2.4486,2.4725,2.4915,2.5368,2.6267,2.7195,2.8103,2.7458,2.6055,2.3906,2.2539,2.1049,1.9297,1.8324,1.7786,1.7811,1.735,1.7696,1.8965,1.7734,1.7447,1.807,1.7671,1.6894,1.5818,1.6692,1.7382,1.7869,1.7132,1.7327,1.829,1.9258,2.0881,2.3244,2.7602,0.0,3.7383,3.9609,4.1523,4.3164,4.4023,4.4648,4.4726,4.3008,4.0742,0.0,3.5547,3.3828,3.1953,2.7656,2.8516,3.0351,2.8164,2.8447,2.913,2.8159,2.8241,0.0,0.0,3.1006,3.2622,3.8123,3.8608,3.94,4.3667,0.0,0.0,0.0,0.0,0.0,0.0,0.0,0.0,0.0,0.0,0.0,6.1719,6.1719,6.1719,6.1719,6.1719,6.1719,6.1719,6.1719,6.1719,6.1719,6.1719,6.1719,6.1719,6.1719,6.1719,6.1719,6.1719,6.1719,6.1719,6.207,6.2267,6.2329,6.3973,6.4754,6.4941,6.6217,6.6725,6.6635,6.6377,6.6179,6.609,6.5936,6.5897,6.5897,1.7028,1.8246,1.9913,2.1618,2.3873,2.591,2.7418,2.7928,2.8219,2.8366,2.9347,2.986,2.9383,2.8778,2.7609,2.5703,2.3672,2.2148,2.1328,1.9885,1.9065,1.9043,1.8328,1.8927,2.1004,1.9004,1.8582,1.984,1.834,1.7121,1.617,1.6788,1.7926,1.9399,1.8764,1.9513,2.1235,2.0504,2.1543,2.4235,3.0552,3.4528,3.7055,4.0507,4.2305,4.3164,4.4687,4.5703,4.6016,4.4297,4.2344,4.0469,3.9453,3.7891,3.5742,3.2187,3.2344,3.3164,3.0898,3.0976,3.1475,3.0557,2.9753,3.0221,0.0,0.0,0.0,4.0008,3.9354,3.8661,4.2239,0.0,0.0,0.0,0.0,0.0,0.0,5.4909,0.0,0.0,0.0,0.0,0.0,6.0781,6.0976,6.164,6.1094,6.1015,6.164,6.1719,6.1719,6.1719,6.1719,6.1719,6.1719,6.1719,6.1719,6.1719,6.1719,6.1719,6.1719,6.2305,6.2734,6.3084,6.4503,6.5316,6.5683,6.6554,6.6905,6.6874,6.6549,6.6329,6.6128,6.5974,6.5897,6.5897,1.814,1.8239,1.8875,1.9994,2.3568,2.6381,2.6687,2.8005,2.9236,3.0083,3.1686,3.3019,3.3708,3.3761,3.272,3.0194,2.9805,0.0,2.4219,2.3749,2.3618,2.3467,2.0561,2.0403,2.359,2.0512,1.8889,1.8952,1.8026,1.7461,1.712,1.6507,1.6801,1.7889,2.0746,2.1436,2.0619,2.338,2.7313,3.1698,3.2557,3.1915,0.0,3.7633,4.0195,4.0859,4.4766,4.6211,4.6016,0.0,4.3516,4.2461,3.7891,3.9297,4.1289,3.4141,3.5351,3.8125,3.4062,3.4101,3.4375,3.058,3.1676,3.2671,2.8736,0.0,3.0621,3.0775,0.0,3.1775,3.3045,0.0,0.0,0.0,0.0,0.0,4.2956,4.832,5.2589,5.3346,0.0,0.0,0.0,5.7578,5.8437,6.1484,5.8906,5.8515,6.1523,6.1719,6.1719,6.1719,6.1719,6.1719,6.1719,6.1719,6.1719,6.1719,6.1719,6.1719,6.1719,6.1797,6.2265,6.3047,6.4016,6.487,6.5651,6.655,6.691,6.6875,6.6678,6.6485,6.6346,6.6128,6.5974,6.5897,1.8828,2.0168,2.1482,2.1985,2.495,2.7627,2.8648,3.066,3.2199,3.2583,3.3301,3.3916,3.4289,3.3094,3.2037,3.1448,0.0,2.7851,0.0,0.0,2.4132,2.3586,2.1613,2.1462,2.3356,2.102,1.9719,1.9679,1.8337,1.7324,1.6713,1.6467,1.7797,2.0547,2.2566,2.4466,2.6187,2.6621,2.7736,2.939,0.0,0.0,0.0,3.9254,4.3069,4.3867,4.5664,4.6289,4.6289,0.0,4.4297,0.0,4.2617,4.1836,4.0195,3.7461,3.75,3.7656,3.4297,3.5391,3.6406,3.2031,3.2751,3.355,2.9746,2.856,2.8703,3.0275,0.0,0.0,0.0,0.0,0.0,0.0,3.7205,4.0165,3.9071,0.0,4.9588,0.0,0.0,0.0,0.0,0.0,0.0,0.0,5.8515,5.8086,6.1523,6.1719,6.1719,6.1719,6.1719,6.1719,6.1719,6.1719,6.1719,6.1719,6.1719,6.1953,6.2461,6.2461,6.3203,6.4531,6.4883,6.5547,6.6367,6.6758,6.6914,6.6875,6.6797,6.6687,6.6501,6.6218,6.6051,6.5974,1.9193,2.1218,2.2867,2.2931,2.5279,2.7813,2.9737,3.1621,3.3045,3.3737,3.3853,3.4122,3.4814,3.316,3.2342,3.3212,3.0962,2.918,0.0,0.0,2.5742,2.5547,2.3028,2.2508,2.4289,2.1674,2.0196,1.9965,1.8465,1.7361,1.6674,1.6554,1.8321,2.1723,2.4101,2.6967,3.0044,3.0006,3.0275,3.0891,3.2397,3.3416,3.4683,4.1241,4.4816,4.6328,4.6562,4.6641,4.6719,4.7109,4.5156,0.0,4.5703,4.3867,4.0742,4.0898,4.0391,3.9101,3.6016,3.7187,3.8086,3.2969,3.2812,3.3195,3.0482,2.8965,2.8795,3.1225,3.0814,0.0,0.0,0.0,3.1468,3.2699,0.0,3.7938,3.6546,4.1191,4.5595,4.7932,0.0,0.0,0.0,0.0,0.0,0.0,0.0,5.707,6.1484,6.1719,6.1719,6.1719,6.1719,6.1719,6.1719,6.1719,6.1719,6.1719,6.1953,6.2383,6.3008,6.3242,6.418,6.5586,6.5586,6.6094,6.6914,6.6914,6.6914,6.6914,6.6914,6.6797,6.6635,6.6341,6.6167,6.609,1.9193,2.0321,2.1166,2.1166,2.3509,2.6236,2.8775,2.9198,3.016,3.2622,0.0,0.0,0.0,0.0,0.0,0.0,0.0,3.4648,3.2187,0.0,3.0117,3.1641,2.5351,2.3735,2.7834,2.2928,1.9927,1.9134,1.8164,1.7696,1.7657,1.6849,1.7426,1.9373,2.5197,2.8275,2.939,3.3506,3.7623,4.12,3.9706,4.1709,4.5263,0.0,4.3398,4.6406,4.7266,0.0,0.0,4.6601,4.625,0.0,0.0,0.0,0.0,4.4062,4.4726,4.5078,4.0859,4.0391,3.9492,3.2656,3.1562,3.1484,2.8867,3.003,3.1674,3.1751,3.3647,3.4776,3.316,3.2852,3.2852,3.2891,3.443,0.0,0.0,3.7123,3.8945,4.0654,4.4608,4.8232,0.0,0.0,0.0,0.0,5.3476,5.4531,6.1328,6.1719,6.1719,6.1719,6.1719,6.1719,6.1719,6.1719,6.1719,6.1719,6.2578,6.2969,6.3047,6.3867,6.4765,6.5586,6.5586,6.6094,6.6914,6.6914,6.6914,6.6914,6.6914,6.6914,6.6869,6.6651,6.6384,6.609,1.9998,2.0593,2.0865,2.0311,2.2123,2.4505,2.7044,2.9352,3.1314,0.0,0.0,0.0,0.0,3.6157,3.6301,0.0,0.0,3.625,3.4805,3.3086,0.0,0.0,0.0,2.5854,0.0,2.3888,2.1146,1.9173,1.8213,1.7766,1.7748,1.7433,1.8196,2.0111,2.5505,2.9275,3.1814,3.5046,3.7602,3.9427,0.0,4.1609,4.4575,0.0,0.0,4.7266,4.8164,4.8476,0.0,4.8789,4.7734,4.6484,4.7656,4.6445,4.4687,4.5273,4.5039,0.0,0.0,0.0,4.4492,3.6992,0.0,0.0,3.0976,3.0881,3.1841,3.1814,3.3747,3.4968,3.3237,3.2891,3.3276,3.443,3.4622,3.4853,0.0,3.6007,3.6969,3.8661,4.2618,4.5654,4.6634,4.8846,0.0,5.6132,5.5976,5.7695,6.2305,6.1992,6.1719,6.1719,6.1719,6.1719,6.1719,6.1719,6.1992,6.2578,6.2851,6.3594,6.4726,6.5039,6.5625,6.6445,6.6445,6.664,6.6914,6.6914,6.6914,6.6914,6.6914,6.6914,6.6874,6.6655,6.6532,6.6423,2.0567,2.0583,2.0589,2.0677,2.2342,2.4466,2.6736,2.9429,0.0,0.0,3.3712,0.0,3.7175,0.0,3.694,0.0,3.8182,3.7383,3.6523,3.5117,0.0,3.4766,3.0937,0.0,0.0,2.6513,2.3582,2.1046,1.979,1.9034,1.8672,1.837,1.9134,2.0927,2.5447,2.949,3.3122,3.6408,3.8989,4.0969,0.0,4.3253,0.0,0.0,4.7461,4.6914,0.0,4.9375,4.9492,5.0351,4.9492,4.8398,5.0117,4.8711,4.6641,4.7773,4.7305,4.625,4.5312,4.6953,0.0,4.1133,4.0664,0.0,3.4766,0.0,3.5414,3.4664,3.5546,3.6622,3.7276,3.5661,3.493,3.6969,3.6045,3.5084,0.0,3.5315,3.6007,3.7392,4.0508,4.3173,4.4862,4.6133,4.9533,5.5984,5.507,5.668,6.2226,6.1944,6.1642,6.1642,6.1626,6.164,6.164,6.1992,6.2422,6.3008,6.3633,6.4492,6.5625,6.5937,6.6367,6.6914,6.6914,6.6914,6.6914,6.6914,6.6914,6.6914,6.6914,6.6914,6.6875,6.6758,6.6633,6.6471,2.0856,2.0364,2.05,2.2174,2.3946,2.5813,0.0,0.0,3.1006,0.0,3.3801,3.5316,3.7963,3.7602,3.7896,3.9552,3.9051,3.832,3.7539,3.6641,0.0,0.0,3.4219,3.3125,3.4726,0.0,0.0,2.4609,2.2667,2.1284,2.0419,1.9617,2.0034,2.1589,2.506,2.8983,3.316,3.7511,4.184,4.5847,4.6044,4.6668,4.7578,4.8555,4.7344,4.5586,4.9023,5.0273,5.0391,5.1133,5.1406,5.1406,5.1406,5.1406,5.1406,5.1406,5.1406,5.0859,4.8437,4.8476,4.8398,4.4883,0.0,0.0,0.0,0.0,4.2116,4.0236,3.927,4.0108,4.4586,4.0777,3.77,3.9931,3.8238,3.6084,3.4468,3.493,3.5776,3.6661,3.8354,4.0977,4.4924,4.066,4.2724,5.504,5.1057,5.2069,6.1248,6.1376,6.1251,6.1497,6.1509,6.1522,6.1562,6.2539,6.3047,6.3164,6.4805,6.5625,6.5703,6.6523,6.6914,6.6914,6.6914,6.6914,6.6914,6.6914,6.6914,6.6914,6.6914,6.6914,6.6914,6.6914,6.6678,6.6361,2.0864,2.1884,2.3126,2.4307,2.3919,2.4466,0.0,0.0,0.0,0.0,3.3887,3.5214,3.7282,3.7319,3.7904,3.9672,3.9681,0.0,0.0,0.0,0.0,4.0117,3.6875,3.5234,3.5664,3.1445,0.0,2.7305,2.3592,2.1983,2.2361,2.0817,2.0265,2.0752,2.4199,2.8384,3.316,3.6983,4.1507,4.6187,4.6239,4.5997,0.0,0.0,4.8086,4.7305,5.0078,5.1094,5.1133,5.1328,5.1406,5.1406,5.1406,5.1406,5.1406,5.1406,5.1406,5.125,5.0586,5.1992,5.2812,4.9375,4.9141,4.8984,0.0,0.0,0.0,0.0,0.0,0.0,0.0,4.1508,3.9892,3.7969,3.6622,3.5661,3.5238,3.4814,3.5315,3.743,3.9738,4.0369,3.8344,4.328,4.7417,4.9478,5.2466,5.664,6.2211,5.8738,5.8041,6.1228,6.1466,6.1795,6.2461,6.2812,6.3633,6.4922,6.539,6.5937,6.6562,6.6797,6.6914,6.6914,6.6914,6.6914,6.6914,6.6914,6.6914,6.6914,6.6914,6.6914,6.6914,6.6914,6.6755,6.6517,2.1377,2.3245,2.5041,2.5608,0.0,0.0,2.8582,0.0,0.0,3.2861,3.4303,0.0,3.7094,3.7918,3.894,4.0351,4.0469,0.0,4.0625,0.0,0.0,4.0625,3.9101,3.8281,3.8281,3.5156,0.0,3.0,2.6406,2.4102,2.3047,2.1318,2.0623,2.1014,2.4075,2.7603,3.1634,3.7486,4.1972,4.5233,4.641,4.68,0.0,4.875,4.9375,4.9453,5.0898,5.1406,5.1406,5.1406,5.1406,5.1406,5.1406,5.1406,5.1562,5.2305,5.2539,5.2695,5.3476,5.5039,5.6055,5.4531,5.4726,5.457,5.1641,5.1289,5.1279,0.0,4.9963,4.9771,0.0,0.0,4.12,3.7315,3.5699,3.493,3.493,3.4853,3.5315,3.6738,3.8469,3.8354,3.5238,4.297,4.7756,4.6859,5.0348,5.4365,5.8582,5.6652,5.7175,6.1035,6.1228,6.1521,6.2031,6.2608,6.3594,6.4961,6.539,6.6055,6.6914,6.6914,6.6914,6.6914,6.6914,6.6914,6.6914,6.6914,6.6914,6.6914,6.6914,6.6914,6.6914,6.6914,6.6758,6.6599,2.2159,2.4596,2.6581,2.6467,0.0,0.0,0.0,3.0787,0.0,3.331,0.0,3.6608,3.7537,3.898,4.0223,4.1084,0.0,4.0819,4.0078,4.0742,4.0859,4.0117,4.0898,4.1367,4.1367,3.9648,3.6719,0.0,2.9687,2.6523,2.3047,2.1372,2.0898,2.1557,2.4182,2.7131,3.0667,3.8588,4.2805,4.4336,4.6641,4.8203,4.9141,4.9922,5.0703,5.1406,5.1406,5.1406,5.1406,5.1406,5.1406,5.1406,5.1523,5.1562,5.1875,5.3516,5.4062,5.4492,5.6015,5.7226,5.8242,5.9023,5.9883,5.9805,5.6836,5.6133,5.5851,5.4801,5.2334,5.1905,0.0,0.0,4.2507,3.8099,3.6161,3.5391,3.593,3.6199,3.6392,3.6469,3.7507,0.0,3.4622,4.1068,4.5354,4.5254,4.6123,4.8762,5.359,5.4554,5.6823,6.0858,6.0973,6.1113,6.132,0.0,6.3352,6.4453,6.5234,6.6055,6.6914,6.6914,6.6914,6.6914,6.6914,6.6914,6.6914,6.6914,6.6914,6.6914,6.6914,6.6914,6.6914,6.6914,6.6797,6.664,2.3182,2.5977,2.8145,2.767,2.8906,3.0544,3.2199,3.2617,3.3374,3.5113,3.6989,3.8467,3.9336,3.9614,4.0089,4.0952,4.0926,0.0,0.0,0.0,0.0,4.0976,4.1758,4.2187,4.2187,4.0547,3.7891,0.0,0.0,2.6523,2.3047,2.1363,2.0612,2.072,2.3303,2.8627,3.5929,3.956,0.0,4.6953,4.7422,4.8555,5.0,5.0156,5.0703,5.1406,5.1406,5.1406,5.1406,5.1406,5.1406,5.1523,5.2266,5.2461,5.2656,5.3711,5.4492,5.5156,5.543,5.7226,5.9023,5.914,6.0351,6.1328,6.0703,6.0586,6.0459,6.0059,5.9473,5.8335,5.5843,0.0,0.0,0.0,4.0723,4.17,4.5163,4.2816,4.0969,4.17,4.4316,4.3239,3.5968,3.9754,4.2117,4.0743,4.2094,4.6314,5.4111,5.1318,5.2972,6.0589,6.0935,0.0,0.0,0.0,6.391,6.6172,6.5781,6.6055,6.6914,6.6914,6.6914,6.6914,6.6914,6.6914,6.6914,6.6914,6.6914,6.6914,6.6914,6.6914,6.6914,6.6914,6.6875,6.6836,2.6425,2.7997,2.9323,2.9614,3.1136,0.0,0.0,3.5239,0.0,3.584,3.7402,3.8739,3.9069,3.9869,4.0508,4.087,4.0835,4.0876,4.0999,4.0994,4.125,4.1797,4.2187,0.0,4.3047,4.2266,3.9531,3.4687,0.0,2.7851,2.3125,2.1411,2.0546,2.0577,2.4833,3.0072,3.5968,3.9885,0.0,4.6307,4.7727,4.9062,5.0234,5.0664,5.1055,5.1406,5.1406,5.1406,5.1406,5.1406,5.1719,5.2148,5.2578,5.3008,5.3711,5.5508,5.6328,5.6953,5.8242,5.9531,6.0508,6.0508,6.1094,6.1719,6.1719,6.1654,6.155,6.1328,6.1289,5.998,5.5596,5.1702,0.0,0.0,0.0,0.0,4.7568,4.6355,4.524,4.5624,4.7509,4.6124,3.9431,4.1431,4.2135,3.9596,4.1442,4.5989,5.3512,5.0645,5.2472,6.055,0.0,0.0,0.0,0.0,0.0,6.5133,6.4994,6.5625,6.6914,6.6914,6.6914,6.6914,6.6914,6.6914,6.6914,6.6914,6.6914,6.6914,6.6914,6.6914,6.6953,6.7422,6.7578,6.75,2.9361,3.0039,3.0726,3.1493,3.3196,0.0,3.4699,3.7486,3.8851,3.6798,3.8063,3.9114,3.8988,4.0188,4.0908,4.0793,4.0754,4.0793,4.0908,4.113,4.1554,4.2296,4.2711,4.3219,4.3898,4.4101,4.1445,0.0,0.0,2.9726,2.3945,2.1876,2.1298,2.2216,2.6988,3.1592,0.0,0.0,4.353,4.5939,4.8262,4.9687,5.0508,5.1172,5.1406,5.1406,5.1406,5.1406,5.1406,5.1406,5.1992,5.2695,5.2695,5.3555,5.4961,5.7031,5.8008,5.8867,6.0898,6.1562,6.1719,6.1719,6.1719,6.1717,6.169,6.1599,6.1477,6.1345,6.1254,5.9942,5.5614,5.3398,0.0,0.0,0.0,0.0,0.0,4.9086,4.8856,4.9394,4.8779,4.6932,4.347,4.2547,4.1816,4.0969,4.2356,4.5841,5.1779,5.0587,5.2856,5.9781,0.0,6.0165,6.0573,0.0,6.2506,6.4386,6.4536,6.539,6.6914,6.6914,6.6914,6.6914,6.6914,6.6914,6.6914,6.6914,6.6992,6.7148,6.6953,6.7226,6.7734,6.8086,6.8555,6.8828,2.987,3.1506,3.2976,0.0,0.0,0.0,3.6353,3.8267,3.9496,3.9264,4.0252,4.0937,4.0933,4.0888,4.0793,4.0793,4.0639,4.06,4.0716,4.1528,4.205,4.2113,4.3699,4.4589,4.4612,4.545,4.3672,0.0,0.0,3.1797,2.6562,2.3313,2.3751,2.7355,2.8549,0.0,0.0,4.1661,4.466,4.863,4.9648,5.0547,5.1289,5.1367,5.1406,5.1406,5.1406,5.1406,5.1406,5.1406,5.1992,5.2695,5.2695,5.4375,5.6406,5.664,5.8359,6.0234,6.0469,6.1094,6.1719,6.1719,6.1719,6.1694,6.1676,6.1627,6.1482,6.1334,6.1135,5.9719,5.5416,5.752,5.7643,0.0,0.0,0.0,0.0,5.2356,5.1318,5.3626,4.8509,4.5509,4.7317,4.0008,3.82,4.5624,4.4295,4.4718,4.8394,4.9856,5.2664,5.7203,5.7357,5.8149,5.9887,6.1597,6.3777,6.6328,6.5761,6.5976,6.6914,6.6914,6.6914,6.6914,6.6914,6.6914,6.6914,6.6914,6.7383,6.8008,6.7226,6.832,7.0156,6.8711,6.9648,7.1289,0.0,0.0,0.0,0.0,0.0,0.0,0.0,3.9446,4.0367,4.0435,4.0872,4.1172,4.1094,4.098,4.0896,4.08,4.0716,4.0754,4.087,4.1658,4.2369,4.296,4.4113,4.4961,4.5413,4.5863,4.426,0.0,0.0,0.0,2.8516,2.7142,2.8457,3.2072,0.0,3.7498,4.1191,4.411,4.6707,4.8984,4.9844,5.0664,5.1406,5.1406,5.1406,5.1406,5.1406,5.1406,5.1406,5.1406,5.1992,5.2891,5.3945,5.5351,5.6914,5.8437,5.9609,6.0508,6.1055,6.1445,6.1719,6.1719,6.1712,6.1694,6.161,6.1486,6.1346,6.118,6.0973,6.0396,5.8711,5.8174,5.7597,0.0,0.0,0.0,0.0,5.7588,5.7126,5.8165,5.5857,5.3626,5.2087,4.624,4.3316,4.5201,4.0162,4.0239,4.7702,4.8317,5.0125,5.3818,0.0,5.8957,5.8269,6.1002,6.3261,6.4922,6.5194,6.5769,6.6588,6.6588,6.6588,6.6627,6.7126,6.7381,6.7539,6.8047,6.8515,6.8906,6.8594,6.9375,7.0664,7.0547,7.1445,7.2578,3.5631,0.0,3.5115,0.0,3.7853,3.7969,3.9523,4.0356,4.0847,4.0962,4.1104,4.1172,4.1055,4.1016,4.0955,4.0858,4.0822,4.0822,4.091,4.1671,4.2376,4.3052,4.4068,0.0,4.5411,4.5834,4.486,4.2444,3.9138,0.0,3.2617,3.1562,3.2871,0.0,3.883,4.0942,4.2795,4.6298,4.8233,4.8984,5.0117,5.0898,5.1406,5.1406,5.1406,5.1406,5.1406,5.1406,5.1406,5.1406,5.2148,5.3242,5.4219,5.5664,5.7344,5.914,6.0195,6.0937,6.1523,6.1719,6.1719,6.1719,6.1717,6.1651,6.1535,6.1408,6.1242,6.0988,6.0858,6.0819,6.0896,5.8965,5.7828,5.9204,0.0,0.0,5.9204,5.9588,5.9642,5.9419,5.7396,5.5703,5.4934,4.9451,4.6205,4.6855,4.0546,4.02,4.8432,4.8317,4.9663,0.0,0.0,0.0,5.7615,6.0979,6.3187,6.4205,6.5296,6.6157,6.6755,6.7027,6.7144,6.7182,6.7748,6.8059,6.8234,6.8937,6.9414,6.9726,6.9805,7.0664,7.1875,7.2265,7.3242,7.4219,3.5673,3.6122,3.6889,3.8939,3.9277,3.9585,4.0562,4.0738,4.0849,4.0969,4.1104,4.1211,4.1211,4.1094,4.1016,4.1015,4.0877,4.0779,4.0692,4.1569,4.2002,0.0,0.0,4.4449,4.4316,4.5372,4.5887,4.5849,0.0,0.0,3.9687,3.6172,3.6367,3.9687,4.0516,4.2782,4.6159,4.7927,4.8777,4.9062,5.0703,5.1406,5.1406,5.1406,5.1406,5.1406,5.1406,5.1406,5.1406,5.1406,5.2539,5.3828,5.3008,5.5117,5.789,5.793,5.9726,6.168,6.1719,6.1719,6.1719,6.1719,6.1717,6.1651,6.1535,6.1381,6.1228,6.0858,6.0781,6.0781,6.0781,6.0781,5.9665,5.6319,0.0,0.0,5.6536,5.6736,5.6944,5.613,4.9336,4.7606,5.4972,4.6626,4.4211,5.2451,4.8355,4.6971,5.0471,5.0664,5.2587,5.6819,5.7011,0.0,5.8484,6.1888,6.4077,6.5103,6.6756,6.7564,6.7602,6.8475,6.8886,6.8886,6.8886,6.8898,6.8899,6.9092,6.9726,7.0508,7.0625,7.2265,7.4453,7.3594,7.4922,7.664,3.7294,3.7869,3.8512,3.9861,4.0215,4.0369,4.0716,4.0858,4.0977,4.1131,4.1182,4.1211,4.1211,4.1172,4.1133,0.0,4.1087,4.1011,0.0,4.1639,4.231,4.2722,4.3778,4.468,4.5334,4.5719,4.594,4.6027,0.0,0.0,0.0,3.9883,4.0937,4.4219,4.4489,4.5213,4.6337,4.8098,4.8841,4.9062,5.0742,5.1406,5.1406,5.1406,5.1406,5.1406,5.1406,5.1406,5.1406,5.1406,5.2148,5.3164,5.3476,5.5976,5.8906,5.9453,6.0586,6.1719,6.1719,6.1719,6.1707,6.1694,6.164,6.1533,6.1397,6.1138,6.0935,6.0819,6.0781,6.0781,6.0781,6.0781,6.0435,5.9358,6.0204,0.0,5.9573,5.9764,5.9835,5.9463,5.7251,5.6693,0.0,5.3178,0.0,5.2354,4.6606,4.4739,4.8702,5.1125,0.0,0.0,5.7473,0.0,5.7653,6.2056,6.4479,6.491,6.7102,6.8141,6.8141,6.8436,6.8552,6.859,6.9206,6.9513,6.9617,7.0289,7.087,7.1328,7.1367,7.2344,7.3672,7.3398,7.457,7.5976,3.8109,3.8746,3.938,4.0338,4.06,4.0723,4.0784,4.1205,4.1528,4.1655,4.1952,4.1992,4.168,4.1641,0.0,4.1211,4.114,4.1054,4.0938,4.1306,4.1925,4.2646,4.3431,4.4278,4.5218,0.0,0.0,4.6032,4.4558,4.3867,4.3867,4.3359,4.4258,4.6289,4.6289,4.6289,4.6406,4.8164,4.8906,4.9062,5.0742,5.1406,5.1406,5.1406,5.1406,5.1406,5.1406,5.1406,5.1406,5.1406,5.2422,5.3789,5.4336,5.6875,5.9687,5.9883,6.0781,6.1719,6.1719,6.1686,6.1701,6.1636,6.1574,6.1434,6.1247,6.1002,6.0781,6.0781,6.0781,6.0781,6.0781,6.0781,6.0781,6.0781,6.0973,6.1103,6.1119,6.1265,6.0828,5.9463,5.9224,0.0,0.0,5.6143,5.4545,0.0,5.1375,5.0087,5.2741,5.2164,5.2856,5.5164,5.8858,0.0,5.9034,6.2743,6.482,6.5218,6.7705,6.9052,6.936,6.936,6.936,6.936,6.9898,7.0206,7.0348,7.0937,7.1337,7.1546,7.202,7.2617,7.3281,7.4023,7.4961,7.5742,3.8342,3.8993,0.0,0.0,4.06,0.0,4.0866,4.1695,4.236,4.2457,4.3125,4.332,4.2578,4.2383,4.2031,4.1326,0.0,0.0,0.0,4.0784,4.1123,4.1854,4.2739,4.3585,4.4393,4.5374,4.5909,4.5944,4.6195,4.6289,4.6289,4.6289,4.6289,4.6289,4.6289,4.6289,4.6406,4.8162,4.8902,4.902,5.0703,5.1406,5.1406,5.1406,5.1406,5.1406,5.1484,5.1445,5.1406,5.1523,5.3203,5.5234,5.5351,5.7617,6.0078,5.9414,6.039,6.168,6.164,6.1651,6.1651,6.1535,6.1497,6.1381,6.105,6.0896,6.0781,6.0781,6.0781,6.0781,6.0781,6.0781,6.0781,6.0781,6.1074,6.1309,6.1318,6.1426,6.0309,5.7108,0.0,0.0,0.0,5.6291,5.742,0.0,6.0435,6.0435,6.0435,0.0,5.3203,6.055,6.0781,6.1204,6.2089,6.382,6.5205,6.6282,6.8667,7.0167,7.0898,7.0898,7.0898,7.0898,7.0898,7.0898,7.0898,7.1091,7.1168,7.13,7.2431,7.2888,7.3123,7.5,7.5742,7.5781,0.0,0.0,4.0277,4.0469,4.0639,4.1001,4.1691,4.2114,4.2636,4.3281,4.3008,4.2891,4.3359,4.2266,4.1615,4.2,4.1412,4.0954,4.0808,4.1378,4.2008,4.2777,4.3585,4.447,4.5411,4.5742,4.6014,4.6202,4.6288,4.6289,4.6289,4.6289,4.6289,4.6289,4.6289,4.6289,4.6405,4.8038,4.8754,4.8875,5.0551,5.125,5.125,5.1367,5.1406,5.1484,5.2148,5.1953,5.1601,5.293,5.3789,5.4531,5.5859,5.7305,5.8594,5.9062,6.039,6.1562,6.0898,6.1184,6.1651,6.1535,6.1304,6.105,6.0896,6.0819,6.0781,6.0781,6.0781,6.0781,6.0781,6.0781,6.0781,6.0781,6.1074,6.1309,6.1318,6.1438,6.1151,0.0,5.9973,5.9835,5.9804,5.9704,5.8934,0.0,0.0,5.6896,5.6896,5.5203,5.6242,6.0666,6.0781,6.1204,6.2089,6.4397,6.6974,6.9706,7.0321,7.0706,7.0898,7.0898,7.0898,7.0898,7.0898,7.0898,7.0898,7.0937,7.1052,7.1222,7.1518,7.1714,7.2014,7.3233,7.4101,7.4687,3.9852,4.0321,4.0508,4.0508,4.0985,4.1556,4.2041,4.2939,4.375,4.4219,4.4219,4.4062,4.375,4.2891,4.2182,4.1731,4.1222,4.0862,4.077,4.147,4.2277,4.3085,4.3855,4.4739,4.568,4.5834,4.6019,4.6289,4.6289,4.6289,4.6289,4.6289,4.6289,4.6289,4.6289,4.6289,4.6406,4.8078,4.8759,4.8856,5.0581,5.123,5.1211,5.1367,5.1406,5.1445,5.1953,5.1797,5.1601,5.2969,5.3945,5.4883,5.664,5.8047,5.914,5.9609,6.039,6.109,6.1002,6.1264,6.1535,6.1343,6.1112,6.0896,6.0819,6.0781,6.0781,6.0781,6.0781,6.0781,6.0781,6.0781,6.0781,6.0781,6.1074,6.1267,6.1172,6.137,6.1456,6.1307,6.1211,6.1151,6.1151,6.0973,6.0188,5.844,5.8149,0.0,5.8011,5.8396,5.9473,6.132,6.1396,6.1973,6.3243,6.5782,6.8321,7.0898,7.0898,7.0898,7.0898,7.0898,7.0898,7.0898,7.0898,7.0898,7.0898,7.0898,7.0975,7.1052,7.1168,7.1284,7.1533,7.3027,7.3875,7.4453,4.0043,4.0339,4.0508,4.0523,4.1309,4.2005,4.2267,4.3751,4.4883,4.5156,4.5742,4.5547,4.4062,4.3667,4.2855,4.1285,4.0931,4.0826,4.0885,4.1585,4.2393,4.3239,4.4047,4.4855,4.5586,4.5834,4.6057,4.6289,4.6289,4.6289,4.6289,4.6289,4.6289,4.6289,4.6289,4.6289,4.6406,4.8125,4.8801,4.8834,5.0625,5.1295,5.1206,5.1367,5.1406,5.1406,5.1562,5.1601,5.1758,5.2734,5.4141,5.5781,5.7383,5.8867,6.0078,6.0312,6.0312,6.0409,6.1254,6.1497,6.1381,6.1074,6.0896,6.0781,6.0781,6.0781,6.0781,6.0781,6.0781,6.0781,6.0781,6.0781,6.0666,6.0281,6.0843,6.1092,6.0522,6.1041,6.1458,6.1343,6.1304,6.1289,6.1302,6.1147,6.1048,6.0997,6.0896,6.0858,6.0973,6.1704,6.2204,6.2474,6.2358,6.3128,6.4974,6.7398,6.936,7.0898,7.0898,7.0898,7.0898,7.0898,7.0898,7.0898,7.0898,7.0898,7.0898,7.0898,7.0898,7.0937,7.1091,7.1129,7.1387,7.3366,7.414,7.4527,4.0202,4.0454,4.0562,4.0639,4.0831,4.1532,4.3125,4.3656,4.4414,4.5898,4.5586,4.5117,4.4844,4.3444,4.2381,4.1975,4.1183,4.1007,4.1739,4.2508,4.3278,4.4085,4.4932,4.5509,4.5757,4.5988,4.6135,4.6289,4.6289,4.6289,4.6289,4.6289,4.6289,4.6289,4.6289,4.6289,4.6406,4.8047,4.863,4.8681,5.052,5.1184,5.1125,5.1318,5.1406,5.1484,5.2226,5.25,5.2734,5.4336,5.5586,5.6562,5.7578,5.8086,5.8555,5.9961,5.9922,5.955,6.0384,6.0935,6.1304,6.105,6.0896,6.0781,6.0781,6.0781,6.0781,6.0781,6.0781,6.0781,6.0781,6.0781,6.0089,5.7934,5.9688,6.0492,5.8125,5.9919,6.1458,6.1343,6.1304,6.1288,6.1289,6.1291,6.1181,6.102,6.0973,6.1243,6.1858,6.2012,6.2743,6.4166,6.3512,6.4282,6.6667,6.8552,6.9975,7.0898,7.0898,7.0898,7.0898,7.0898,7.0898,7.0898,7.0898,7.0898,7.0898,7.0898,7.0898,7.0898,7.0937,7.0937,7.1129,7.2531,7.345,7.4255,4.0345,4.0508,4.0562,4.0677,4.1158,4.1814,4.2772,4.376,4.4687,4.5508,4.5234,4.4794,4.4308,4.3092,4.2054,4.1388,4.0935,4.1254,4.2508,4.2893,4.347,4.4239,4.5124,4.5665,4.5841,4.6028,4.6174,4.6289,4.6289,4.6289,4.6289,4.6289,4.6289,4.6289,4.6289,4.6289,4.6406,4.8,4.8603,4.8671,5.046,5.1154,5.1122,5.1316,5.1406,5.1445,5.1875,5.2305,5.2891,5.418,5.5781,5.7383,5.7773,5.8515,5.9414,6.0156,6.0469,6.0613,6.0837,6.1098,6.1228,6.0935,6.0858,6.0781,6.0781,6.0781,6.0781,6.0781,6.0781,6.0781,6.0781,6.0781,6.0435,5.9242,6.0211,6.0685,5.934,6.0432,6.1343,6.1151,6.1304,6.1417,6.1426,6.1422,6.1353,6.1181,6.1499,6.182,6.2089,6.2974,6.3782,6.4589,6.5089,6.6128,6.7782,6.9052,7.009,7.0898,7.0898,7.0898,7.0898,7.0898,7.0898,7.0898,7.0898,7.0898,7.0898,7.0898,7.0898,7.0898,7.0898,7.0898,7.1052,7.2195,7.3214,7.4158,4.0438,4.0508,4.0562,4.0716,4.1319,4.1915,4.2249,4.3685,4.4766,4.4961,4.5,4.4649,4.368,4.278,4.1825,4.0793,4.0677,4.137,4.3008,4.3085,4.3547,4.4547,4.5278,4.5757,4.5918,4.6046,4.6182,4.6289,4.6289,4.6289,4.6289,4.6289,4.6289,4.6289,4.6289,4.6406,4.6718,4.8155,4.8773,4.8968,5.058,5.1192,5.1122,5.1316,5.1406,5.1406,5.1406,5.2109,5.3086,5.3789,5.5742,5.7851,5.7656,5.8633,5.9844,6.0078,6.0848,6.1609,6.1373,6.1324,6.1228,6.0858,6.0781,6.0781,6.0781,6.0781,6.0781,6.0781,6.0781,6.0781,6.0781,6.0781,6.0589,6.0012,6.058,6.0872,6.0304,6.105,6.1612,6.161,6.1892,6.212,6.212,6.2112,6.2048,6.1873,6.2337,6.2627,6.2666,6.3897,6.4705,6.4897,6.6513,6.7705,6.8398,6.9436,7.0283,7.0898,7.0898,7.0898,7.0898,7.0898,7.0898,7.0898,7.0898,7.0898,7.0898,7.0898,7.1014,7.1168,7.0975,7.1014,7.1283,7.1964,7.2793,7.3799,4.0438,4.0508,4.0562,4.0754,4.0843,4.1227,4.2257,4.3203,4.4101,4.4883,4.5,4.4649,4.368,4.2688,4.1748,4.0793,4.06,4.1239,4.3008,4.3085,4.3816,4.5432,4.5757,4.5873,4.5918,4.614,4.6287,4.6289,4.6289,4.6289,4.6289,4.6289,4.6289,4.6289,4.6289,4.6758,4.7578,4.8475,4.9192,4.9817,5.0914,5.127,5.1122,5.1316,5.1406,5.1406,5.1406,5.2461,5.3906,5.3984,5.5742,5.7773,5.6953,5.7344,5.8242,5.9062,6.036,6.1504,6.133,6.1324,6.1228,6.0858,6.0781,6.0781,6.0781,6.0781,6.0781,6.0781,6.0781,6.0781,6.0781,6.0781,6.0012,5.7665,5.9534,6.0612,5.8742,6.0926,6.2876,6.3335,6.3686,6.3901,6.3901,6.3891,6.3843,6.3625,6.3554,6.3782,6.4397,6.4551,6.4974,6.5782,6.7436,6.8359,6.8398,7.0014,7.0821,7.0898,7.0898,7.0898,7.0898,7.0898,7.0898,7.0898,7.0898,7.0898,7.0898,7.0898,7.136,7.2014,7.1206,7.1398,7.2052,7.1475,7.1838,7.2649,4.0377,4.0508,4.0562,4.0754,4.0804,4.1,4.1561,4.2344,4.3008,4.3359,4.3362,4.3161,4.2731,4.1801,4.1024,4.06,4.0523,4.1008,4.2239,4.2816,4.3855,4.5509,4.5796,4.5911,4.5918,4.615,4.6289,4.6289,4.6289,4.6289,4.6289,4.6289,4.6289,4.6289,4.6289,4.6797,4.7656,4.8437,4.9202,5.0018,5.0913,5.1218,5.116,5.1336,5.1406,5.1406,5.1406,5.2539,5.3984,5.3984,5.5742,5.7734,5.6875,5.7187,5.8062,5.8799,6.0142,6.132,6.1175,6.1113,6.105,6.0858,6.0781,6.0781,6.0781,6.0781,6.0781,6.0781,6.0781,6.0781,6.0781,6.0781,6.0473,5.9511,6.0742,6.1512,6.0742,6.218,6.3383,6.3566,6.3804,6.3909,6.3912,6.3909,6.3824,6.369,6.4093,6.4411,6.4589,6.5128,6.5551,6.5897,6.7013,6.7859,6.8398,6.959,7.0398,7.0898,7.0898,7.0898,7.0898,7.0898,7.0898,7.0898,7.0898,7.0898,7.0898,7.0898,7.1398,7.2168,7.1822,7.1898,7.2206,7.2514,7.258,7.2596,4.0315,4.0508,4.0562,4.0754,4.0781,4.0843,4.103,4.1782,4.2329,4.2329,4.2274,4.2202,4.2071,4.126,4.0639,4.0508,4.0508,4.0854,4.1739,4.2854,4.4124,4.5586,4.5834,4.5928,4.5941,4.6175,4.6289,4.6289,4.6289,4.6289,4.6289,4.6289,4.6289,4.6289,4.6289,4.6953,4.8047,4.8555,4.9375,5.0428,5.1016,5.1254,5.1218,5.1357,5.1406,5.1445,5.1719,5.2734,5.4023,5.4336,5.5781,5.7381,5.6782,5.7363,5.8289,5.8711,5.9959,6.1164,6.1048,6.0973,6.0896,6.0819,6.0781,6.0781,6.0781,6.0781,6.0781,6.0781,6.0781,6.0781,6.0781,6.0781,6.0781,6.0781,6.132,6.182,6.205,6.2743,6.3397,6.3858,6.4026,6.4209,6.4477,6.4511,6.4503,6.4383,6.4834,6.5103,6.5013,6.559,6.5897,6.5897,6.6436,6.7128,6.7975,6.9129,6.9975,7.0514,7.0783,7.0898,7.0898,7.0898,7.0898,7.0898,7.0898,7.0898,7.0898,7.0898,7.1552,7.2591,7.2322,7.2514,7.3014,7.336,7.3014,7.2465,4.0315,4.0469,4.0523,4.0677,4.072,4.0723,4.0805,4.1521,4.2074,4.2074,4.2074,4.2063,4.1986,4.1232,4.0639,4.0508,4.0508,4.0854,4.1739,4.3355,4.4739,4.5757,4.5873,4.595,4.6103,4.6248,4.6289,4.6289,4.6289,4.6289,4.6289,4.6289,4.6289,4.6289,4.6289,4.7266,4.8906,4.8906,4.9805,5.1211,5.1367,5.132,5.1218,5.1357,5.1406,5.1523,5.2383,5.3242,5.414,5.5,5.5898,5.6588,5.6588,5.7665,5.8889,5.8711,5.9796,6.0973,6.0973,6.0896,6.0781,6.0781,6.0781,6.0781,6.0781,6.0781,6.0781,6.0781,6.0781,6.0781,6.0781,6.0781,6.0781,6.0781,6.0896,6.1243,6.1973,6.2204,6.2897,6.4436,6.4718,6.5141,6.6013,6.609,6.609,6.609,6.5974,6.5897,6.5897,6.5897,6.5897,6.5897,6.5897,6.6282,6.709,6.8821,6.9706,6.9706,7.0514,7.0898,7.0898,7.0898,7.0898,7.0898,7.0898,7.0898,7.0898,7.0898,7.1937,7.3399,7.2552,7.3245,7.4591,7.3822,7.2976,7.2206,3.9354,3.9662,3.9854,4.06,4.0699,4.0717,4.0797,4.1003,4.1196,4.1196,4.1158,4.1117,4.1078,4.0754,4.0562,4.0508,4.0508,4.1123,4.2624,4.3162,4.4162,4.5796,4.5866,4.597,4.6121,4.6248,4.6289,4.6289,4.6289,4.6289,4.6289,4.6289,4.6289,4.6289,4.6289,4.7266,4.8906,4.8906,4.9844,5.1328,5.1367,5.1394,5.1347,5.1363,5.1406,5.1481,5.2275,5.3112,5.3984,5.4762,5.5677,5.6446,5.6443,5.7434,5.8604,5.8566,5.9642,6.0858,6.0858,6.0819,6.0781,6.0781,6.0781,6.0781,6.0781,6.0781,6.0781,6.0781,6.0781,6.0781,6.0781,6.0781,6.0781,6.0781,6.1358,6.1858,6.205,6.2627,6.3397,6.4474,6.4628,6.5013,6.5859,6.5936,6.5936,6.5936,6.5897,6.5897,6.5897,6.5897,6.5897,6.5897,6.5897,6.6013,6.6244,6.7936,6.909,6.9706,7.0514,7.0898,7.0898,7.0898,7.0898,7.0898,7.0898,7.0898,7.0898,7.0898,7.1937,7.3476,7.3206,7.3745,7.4745,7.513,7.4361,7.3129,3.8969,3.9277,3.9585,4.0485,4.0639,4.0639,4.0677,4.0677,4.0677,4.0677,4.0639,4.0639,4.0639,4.0562,4.0508,4.0508,4.0816,4.1623,4.3008,4.3393,4.4278,4.5834,4.5891,4.5978,4.6191,4.6261,4.6289,4.6289,4.6289,4.6289,4.6289,4.6289,4.6289,4.6289,4.6289,4.7266,4.8906,4.8906,4.9883,5.1406,5.1406,5.1406,5.1406,5.1406,5.1385,5.1481,5.2587,5.3332,5.3895,5.5039,5.5812,5.6302,5.6233,5.7242,5.8489,5.8434,5.955,6.0781,6.0781,6.0781,6.0781,6.0781,6.0781,6.0781,6.0781,6.0781,6.0781,6.0781,6.0781,6.0781,6.0781,6.0781,6.0781,6.0781,6.1243,6.1589,6.1589,6.2012,6.2743,6.3935,6.4089,6.4551,6.5782,6.5897,6.5897,6.5897,6.5897,6.5897,6.5897,6.5897,6.5897,6.5897,6.5897,6.5897,6.5897,6.7552,6.8667,6.9206,7.036,7.0898,7.0898,7.0898,7.0898,7.0898,7.0898,7.0898,7.0898,7.0898,7.1706,7.3014,7.336,7.4014,7.4822,7.5668,7.513,7.3937,3.8854,3.9161,3.9469,4.0354,4.0508,4.0508,4.0508,4.0508,4.0508,4.0508,4.0508,4.0508,4.0508,4.0508,4.0508,4.0508,4.1316,4.22,4.3162,4.3893,4.4778,4.5834,4.5891,4.6014,4.6289,4.6289,4.6289,4.6289,4.6289,4.6289,4.6289,4.6289,4.6289,4.6289,4.6367,4.7344,4.8906,4.8984,4.9922,5.1406,5.1406,5.1406,5.1406,5.1406,5.1312,5.1453,5.3161,5.3699,5.3853,5.5588,5.6184,5.6136,5.5943,5.7088,5.845,5.8357,5.9473,6.0781,6.0781,6.0781,6.0781,6.0781,6.0781,6.0781,6.0781,6.0781,6.0781,6.0781,6.0781,6.0781,6.0781,6.0781,6.0781,6.0781,6.0781,6.0819,6.0896,6.0935,6.155,6.3243,6.3435,6.4089,6.5743,6.5897,6.5897,6.5897,6.5897,6.5897,6.5897,6.5897,6.5897,6.5897,6.5897,6.5897,6.5897,6.7552,6.8398,6.8436,7.009,7.0898,7.0898,7.0898,7.0898,7.0898,7.0898,7.0898,7.0898,7.0898,7.1398,7.2283,7.3168,7.4014,7.4822,7.5592,7.5399,7.4591,3.7969,3.8277,3.8738,4.0239,4.0508,4.0508,4.0508,4.0508,4.0508,4.0508,4.0508,4.0508,4.0508,4.0508,4.0508,4.0508,4.1316,4.2431,4.3932,4.4201,4.4778,4.5834,4.5891,4.6014,4.6289,4.6289,4.6289,4.6289,4.6289,4.6289,4.6289,4.6289,4.6289,4.6328,4.6992,4.7891,4.8945,4.9648,5.0508,5.1406,5.1406,5.1406,5.1406,5.1406,5.1312,5.1414,5.3049,5.3567,5.3682,5.5395,5.5902,5.5827,5.5861,5.7011,5.8357,5.8319,5.9473,6.0781,6.0781,6.0781,6.0781,6.0781,6.0781,6.0781,6.0781,6.0781,6.0781,6.0781,6.0781,6.0781,6.0781,6.0781,6.0781,6.0781,6.0781,6.105,6.1704,6.182,6.2435,6.4128,6.432,6.4743,6.5782,6.5897,6.5897,6.5897,6.5897,6.5897,6.5897,6.5897,6.5897,6.5897,6.5897,6.5897,6.5897,6.7552,6.8398,6.8436,7.009,7.0898,7.0898,7.0898,7.0898,7.0898,7.0898,7.0898,7.0898,7.0898,7.1398,7.2283,7.3168,7.4014,7.4707,7.4899,7.4861,7.4591,3.7738,3.8315,3.9008,4.0277,4.0508,4.0508,4.0508,4.0508,4.0508,4.0508,4.0508,4.0508,4.0508,4.0508,4.0662,4.1085,4.2277,4.3355,4.4239,4.4701,4.5201,4.5873,4.5891,4.6014,4.6289,4.6289,4.6289,4.6289,4.6289,4.6289,4.6289,4.6289,4.6289,4.6328,4.7226,4.8086,4.8945,4.9844,5.0664,5.1406,5.1406,5.1379,5.1307,5.1307,5.1192,5.126,5.2933,5.3933,5.4626,5.5511,5.5742,5.5703,5.578,5.6934,5.8319,5.8319,5.9473,6.0781,6.0781,6.0781,6.0781,6.0781,6.0781,6.0781,6.0781,6.0781,6.0781,6.0781,6.0781,6.0781,6.0781,6.0781,6.0781,6.0781,6.0781,6.1089,6.1973,6.2089,6.2704,6.4397,6.4589,6.4936,6.582,6.5897,6.5897,6.5897,6.5897,6.5897,6.5897,6.5897,6.5897,6.5897,6.5897,6.609,6.6474,6.7744,6.8629,6.9052,7.0283,7.0898,7.0898,7.0898,7.0898,7.0898,7.0898,7.0898,7.0898,7.0898,7.1168,7.1706,7.3014,7.3514,7.3591,7.4399,7.4476,7.4091,3.8007,3.8815,3.9546,4.0354,4.0508,4.0508,4.0508,4.0508,4.0508,4.0508,4.0508,4.0508,4.0508,4.0623,4.1085,4.197,4.3431,4.4355,4.4509,4.5201,4.568,4.5911,4.5891,4.6014,4.6289,4.6289,4.6289,4.6289,4.6289,4.6289,4.6289,4.6289,4.6289,4.6328,4.7383,4.8203,4.8984,4.9961,5.0781,5.1406,5.1406,5.132,5.1183,5.1183,5.1068,5.1145,5.2818,5.4395,5.5703,5.5703,5.5703,5.5703,5.5703,5.6896,5.8319,5.8319,5.9473,6.0781,6.0781,6.0781,6.0781,6.0781,6.0781,6.0781,6.0781,6.0781,6.0781,6.0781,6.0781,6.0781,6.0781,6.0781,6.0781,6.0781,6.0781,6.1127,6.2166,6.232,6.2935,6.4628,6.482,6.5128,6.582,6.5897,6.5897,6.5897,6.5897,6.5897,6.5897,6.5897,6.5897,6.5897,6.5897,6.6282,6.709,6.7975,6.8859,6.9706,7.0514,7.0898,7.0898,7.0898,7.0898,7.0898,7.0898,7.0898,7.0898,7.0898,7.0898,7.1052,7.2822,7.2976,7.236,7.3745,7.386,7.3322,3.8815,3.92,3.9546,4.0354,4.0508,4.0508,4.0508,4.0508,4.0508,4.0508,4.0508,4.0508,4.0508,4.1162,4.197,4.2854,4.3778,4.4624,4.5355,4.5509,4.568,4.5911,4.5891,4.6014,4.6289,4.6289,4.6289,4.6289,4.6289,4.6289,4.6289,4.6289,4.6289,4.6367,4.8008,4.8789,4.8984,5.0586,5.1289,5.1406,5.1406,5.132,5.1183,5.1183,5.1068,5.1145,5.2818,5.4395,5.5703,5.5703,5.5703,5.5703,5.5703,5.6896,5.8319,5.8319,5.9473,6.0781,6.0781,6.0781,6.0781,6.0781,6.0781,6.0781,6.0781,6.0781,6.0781,6.0781,6.0781,6.0781,6.0781,6.0781,6.0781,6.0781,6.0781,6.1358,6.2935,6.3128,6.3782,6.5513,6.5705,6.5782,6.5897,6.5897,6.5897,6.5897,6.5897,6.5897,6.5897,6.5897,6.5897,6.5897,6.5897,6.6282,6.709,6.7975,6.8859,6.9706,7.0514,7.0898,7.0898,7.0898,7.0898,7.0898,7.0898,7.0898,7.0898,7.0898,7.0898,7.1052,7.2822,7.2976,7.2206,7.2437,7.2476,7.2476,3.9046,3.9662,4.0085,4.0431,4.0508,4.0508,4.0508,4.0508,4.0508,4.0508,4.0508,4.0508,4.0508,4.17,4.2701,4.3085,4.4278,4.5201,4.5547,4.5586,4.568,4.5911,4.5891,4.6014,4.6289,4.6289,4.6289,4.6289,4.6289,4.6289,4.6289,4.6289,4.6289,4.6367,4.8125,4.8906,4.9023,5.0703,5.1406,5.1405,5.132,5.1217,5.1136,5.1046,5.0952,5.101,5.2702,5.4049,5.5088,5.5549,5.5703,5.5703,5.5703,5.6896,5.8319,5.8319,5.9473,6.0781,6.0781,6.0781,6.0781,6.0781,6.0781,6.0781,6.0781,6.0781,6.0781,6.0781,6.0781,6.0781,6.0781,6.0781,6.0781,6.0781,6.0781,6.1396,6.3051,6.332,6.3935,6.5705,6.5897,6.5897,6.5897,6.5897,6.5897,6.5897,6.5897,6.5897,6.5897,6.5897,6.5897,6.5897,6.5897,6.6513,6.7821,6.8205,6.9052,7.036,7.0744,7.0898,7.0898,7.0898,7.0898,7.0898,7.0898,7.0898,7.0898,7.0898,7.0898,7.1052,7.2822,7.3283,7.2822,7.1822,7.1783,7.2322]},{"header":{"parameterUnit":"m.s-1","parameterCategory":1,"la1":30.6,"la2":28.766,"lo1":-90.7593,"lo2":-88.6598,"dx":0.0162,"dy":0.0183,"nx":116,"ny":114,"refTime":"2022-12-22T06:00:00:Z","depth":0,"parameterNumber":3,"parameterNumberName":"V-component_of_WINDS"},"data":[0.0,0.0,0.0,0.0,0.0,0.0,0.0,0.0,0.0,0.0,0.0,0.0,0.0,0.0,0.0,0.0,0.0,0.0,0.0,0.0,0.0,0.0,0.0,0.0,0.0,0.0,0.0,0.0,0.0,0.0,0.0,0.0,0.0,0.0,0.0,0.0,0.0,0.0,0.0,0.0,0.0,0.0,0.0,0.0,0.0,0.0,0.0,0.0,0.0,0.0,0.0,0.0,0.0,0.0,0.0,0.0,0.0,0.0,0.0,0.0,0.0,0.0,0.0,0.0,0.0,0.0,0.0,0.0,0.0,0.0,0.0,0.0,0.0,0.0,0.0,0.0,0.0,0.0,0.0,0.0,0.0,0.0,0.0,0.0,0.0,0.0,0.0,0.0,0.0,0.0,0.0,0.0,0.0,0.0,0.0,0.0,0.0,0.0,0.0,0.0,0.0,0.0,0.0,0.0,0.0,0.0,0.0,0.0,0.0,0.0,0.0,0.0,0.0,0.0,0.0,0.0,0.0,0.0,0.0,0.0,0.0,0.0,0.0,0.0,0.0,0.0,0.0,0.0,0.0,0.0,0.0,0.0,0.0,0.0,0.0,0.0,0.0,0.0,0.0,0.0,0.0,0.0,0.0,0.0,0.0,0.0,0.0,0.0,0.0,0.0,0.0,0.0,0.0,0.0,0.0,0.0,0.0,0.0,0.0,0.0,0.0,0.0,0.0,0.0,0.0,0.0,0.0,0.0,0.0,0.0,0.0,0.0,0.0,0.0,0.0,0.0,0.0,0.0,0.0,0.0,0.0,0.0,0.0,0.0,0.0,0.0,0.0,0.0,0.0,0.0,0.0,0.0,0.0,0.0,0.0,0.0,0.0,0.0,0.0,0.0,0.0,0.0,0.0,0.0,0.0,0.0,0.0,0.0,0.0,0.0,0.0,0.0,0.0,0.0,0.0,0.0,0.0,0.0,0.0,0.0,0.0,0.0,0.0,0.0,0.0,0.0,0.0,0.0,0.0,0.0,0.0,0.0,0.0,0.0,0.0,0.0,0.0,0.0,0.0,0.0,0.0,0.0,0.0,0.0,0.0,0.0,0.0,0.0,0.0,0.0,0.0,0.0,0.0,0.0,0.0,0.0,0.0,0.0,0.0,0.0,0.0,0.0,0.0,0.0,0.0,0.0,0.0,0.0,0.0,0.0,0.0,0.0,0.0,0.0,0.0,0.0,0.0,0.0,0.0,0.0,0.0,0.0,0.0,0.0,0.0,0.0,0.0,0.0,0.0,0.0,0.0,0.0,0.0,0.0,0.0,0.0,0.0,0.0,0.0,0.0,0.0,0.0,0.0,0.0,0.0,0.0,0.0,0.0,0.0,0.0,0.0,0.0,0.0,0.0,0.0,0.0,0.0,0.0,0.0,0.0,0.0,0.0,0.0,0.0,0.0,0.0,0.0,0.0,0.0,0.0,0.0,0.0,0.0,0.0,0.0,0.0,0.0,0.0,0.0,0.0,0.0,0.0,0.0,0.0,0.0,0.0,0.0,0.0,0.0,0.0,0.0,0.0,0.0,0.0,0.0,0.0,0.0,0.0,0.0,0.0,0.0,0.0,0.0,0.0,0.0,0.0,0.0,0.0,0.0,0.0,0.0,0.0,0.0,0.0,0.0,0.0,0.0,0.0,0.0,0.0,0.0,0.0,0.0,0.0,0.0,0.0,0.0,0.0,0.0,0.0,0.0,0.0,0.0,0.0,0.0,0.0,0.0,0.0,0.0,0.0,0.0,0.0,0.0,0.0,0.0,0.0,0.0,0.0,0.0,0.0,0.0,0.0,0.0,0.0,0.0,0.0,0.0,0.0,0.0,0.0,0.0,0.0,0.0,0.0,0.0,0.0,0.0,0.0,0.0,0.0,0.0,0.0,0.0,0.0,0.0,0.0,0.0,0.0,0.0,0.0,0.0,0.0,0.0,0.0,0.0,0.0,0.0,0.0,0.0,0.0,0.0,0.0,0.0,0.0,0.0,0.0,0.0,0.0,0.0,0.0,0.0,0.0,0.0,0.0,0.0,0.0,0.0,0.0,0.0,0.0,0.0,0.0,0.0,0.0,0.0,0.0,0.0,0.0,0.0,0.0,0.0,0.0,0.0,0.0,0.0,0.0,0.0,0.0,0.0,0.0,0.0,0.0,0.0,0.0,0.0,0.0,0.0,0.0,0.0,0.0,0.0,0.0,0.0,0.0,0.0,0.0,0.0,0.0,0.0,0.0,0.0,0.0,0.0,0.0,0.0,0.0,0.0,0.0,0.0,0.0,0.0,0.0,0.0,0.0,0.0,0.0,0.0,0.0,0.0,0.0,0.0,0.0,0.0,0.0,0.0,0.0,0.0,0.0,0.0,0.0,0.0,0.0,0.0,0.0,0.0,0.0,0.0,0.0,0.0,0.0,0.0,0.0,0.0,0.0,0.0,0.0,0.0,0.0,0.0,0.0,0.0,0.0,0.0,0.0,0.0,0.0,0.0,0.0,0.0,0.0,0.0,0.0,0.0,0.0,0.0,0.0,0.0,0.0,0.0,0.0,0.0,0.0,0.0,0.0,0.0,0.0,0.0,0.0,0.0,0.0,0.0,0.0,0.0,0.0,0.0,0.0,0.0,0.0,0.0,0.0,0.0,0.0,0.0,0.0,0.0,0.0,0.0,0.0,0.0,0.0,0.0,0.0,0.0,0.0,0.0,0.0,0.0,0.0,0.0,0.0,0.0,0.0,0.0,0.0,0.0,0.0,0.0,0.0,0.0,0.0,0.0,0.0,0.0,0.0,0.0,0.0,0.0,0.0,0.0,0.0,0.0,0.0,0.0,0.0,0.0,0.0,0.0,0.0,0.0,0.0,0.0,0.0,0.0,0.0,0.0,0.0,0.0,0.0,0.0,0.0,0.0,0.0,0.0,0.0,0.0,0.0,0.0,0.0,0.0,0.0,0.0,0.0,0.0,0.0,0.0,0.0,0.0,0.0,0.0,0.0,0.0,0.0,0.0,0.0,0.0,0.0,0.0,0.0,0.0,0.0,0.0,0.0,0.0,0.0,0.0,0.0,0.0,0.0,0.0,0.0,0.0,0.0,0.0,0.0,0.0,0.0,0.0,0.0,0.0,0.0,0.0,0.0,0.0,0.0,0.0,0.0,0.0,0.0,0.0,0.0,0.0,0.0,0.0,0.0,0.0,0.0,0.0,0.0,0.0,0.0,0.0,0.0,0.0,0.0,0.0,0.0,0.0,0.0,0.0,0.0,0.0,0.0,0.0,0.0,0.0,0.0,0.0,0.0,0.0,0.0,0.0,0.0,0.0,0.0,0.0,0.0,0.0,0.0,0.0,0.0,0.0,0.0,0.0,0.0,0.0,0.0,0.0,0.0,0.0,0.0,0.0,0.0,0.0,0.0,0.0,0.0,0.0,0.0,0.0,0.0,0.0,0.0,0.0,0.0,0.0,0.0,0.0,0.0,0.0,0.0,0.0,0.0,0.0,0.0,0.0,0.0,0.0,0.0,0.0,0.0,0.0,0.0,0.0,0.0,0.0,0.0,0.0,0.0,0.0,0.0,0.0,0.0,0.0,0.0,0.0,0.0,0.0,0.0,0.0,0.0,0.0,0.0,0.0,0.0,0.0,0.0,0.0,0.0,0.0,0.0,0.0,0.0,0.0,0.0,0.0,0.0,0.0,0.0,0.0,0.0,0.0,0.0,0.0,0.0,0.0,0.0,0.0,0.0,0.0,0.0,0.0,0.0,0.0,0.0,0.0,0.0,0.0,0.0,0.0,0.0,0.0,0.0,0.0,0.0,0.0,0.0,0.0,0.0,0.0,0.0,0.0,0.0,0.0,0.0,0.0,0.0,0.0,0.0,0.0,0.0,0.0,0.0,0.0,0.0,0.0,0.0,0.0,0.0,0.0,0.0,0.0,0.0,0.0,0.0,0.0,0.0,0.0,0.0,0.0,0.0,0.0,0.0,0.0,0.0,0.0,0.0,0.0,0.0,0.0,0.0,0.0,0.0,0.0,0.0,0.0,0.0,0.0,0.0,0.0,0.0,0.0,0.0,0.0,0.0,0.0,0.0,0.0,0.0,0.0,0.0,0.0,0.0,0.0,0.0,0.0,0.0,0.0,0.0,0.0,0.0,0.0,0.0,0.0,0.0,0.0,0.0,0.0,0.0,0.0,0.0,0.0,0.0,0.0,0.0,0.0,0.0,0.0,0.0,0.0,0.0,0.0,0.0,0.0,0.0,0.0,0.0,0.0,0.0,0.0,0.0,0.0,0.0,0.0,0.0,0.0,0.0,0.0,0.0,0.0,0.0,0.0,0.0,0.0,0.0,0.0,0.0,0.0,0.0,0.0,0.0,0.0,0.0,0.0,0.0,0.0,0.0,0.0,0.0,0.0,0.0,0.0,0.0,0.0,0.0,0.0,0.0,0.0,0.0,0.0,0.0,0.0,0.0,0.0,0.0,0.0,0.0,0.0,0.0,0.0,0.0,0.0,0.0,0.0,0.0,0.0,0.0,0.0,0.0,0.0,0.0,0.0,0.0,0.0,0.0,0.0,0.0,0.0,0.0,0.0,0.0,0.0,0.0,0.0,0.0,0.0,0.0,0.0,0.0,0.0,0.0,0.0,0.0,0.0,0.0,0.0,0.0,0.0,0.0,0.0,0.0,0.0,0.0,0.0,0.0,0.0,0.0,0.0,0.0,0.0,0.0,0.0,0.0,0.0,0.0,0.0,0.0,0.0,0.0,0.0,0.0,0.0,0.0,0.0,0.0,0.0,0.0,0.0,0.0,0.0,0.0,0.0,0.0,0.0,0.0,0.0,0.0,0.0,0.0,0.0,0.0,0.0,0.0,0.0,0.0,0.0,0.0,0.0,0.0,0.0,0.0,0.0,0.0,0.0,0.0,0.0,0.0,0.0,0.0,0.0,0.0,0.0,0.0,0.0,0.0,0.0,0.0,0.0,0.0,0.0,0.0,0.0,0.0,0.0,0.0,0.0,0.0,0.0,0.0,0.0,0.0,0.0,0.0,0.0,0.0,0.0,0.0,0.0,0.0,0.0,0.0,0.0,0.0,0.0,0.0,0.0,0.0,0.0,0.0,0.0,0.0,0.0,0.0,0.0,0.0,0.0,0.0,0.0,0.0,0.0,0.0,0.0,0.0,0.0,0.0,0.0,0.0,0.0,0.0,0.0,0.0,0.0,0.0,0.0,0.0,0.0,0.0,0.0,0.0,0.0,0.0,0.0,0.0,0.0,0.0,0.0,0.0,0.0,0.0,0.0,0.0,0.0,0.0,0.0,0.0,0.0,0.0,0.0,0.0,0.0,0.0,0.0,0.0,0.0,0.0,0.0,0.0,0.0,0.0,0.0,0.0,0.0,0.0,0.0,0.0,0.0,0.0,0.0,0.0,0.0,0.0,0.0,0.0,0.0,0.0,0.0,0.0,0.0,0.0,0.0,0.0,0.0,0.0,0.0,0.0,0.0,0.0,0.0,0.0,0.0,0.0,0.0,0.0,0.0,0.0,0.0,0.0,0.0,0.0,0.0,0.0,0.0,0.0,0.0,0.0,0.0,0.0,0.0,0.0,0.0,0.0,0.0,0.0,0.0,0.0,0.0,0.0,0.0,0.0,0.0,0.0,0.0,0.0,0.0,0.0,0.0,0.0,0.0,0.0,0.0,0.0,0.0,0.0,0.0,0.0,0.0,0.0,0.0,0.0,0.0,0.0,0.0,0.0,0.0,0.0,0.0,0.0,0.0,0.0,0.0,0.0,0.0,0.0,0.0,0.0,0.0,0.0,0.0,0.0,0.0,0.0,0.0,0.0,0.0,0.0,0.0,0.0,0.0,0.0,0.0,0.0,0.0,0.0,0.0,0.0,0.0,0.0,0.0,0.0,0.0,0.0,0.0,0.0,0.0,0.0,0.0,0.0,0.0,0.0,0.0,0.0,0.0,0.0,0.0,0.0,0.0,0.0,0.0,0.0,0.0,0.0,0.0,0.0,0.0,0.0,0.0,0.0,0.0,0.0,0.0,0.0,0.0,0.0,0.0,0.0,0.0,0.0,0.0,0.0,0.0,0.0,0.7695,0.0,0.0,0.0,0.0,0.0,0.0,0.0,0.0,0.0,0.0,0.0,0.0,0.0,0.0,0.0,0.0,0.0,0.0,0.0,0.0,0.0,0.0,0.0,0.0,-0.9828,-0.8275,-0.3643,-0.1941,0.0,0.0,0.0,0.0,0.0,0.0,0.0,0.0,-0.4983,-0.7599,-0.7599,-0.9885,-1.2058,-1.3908,-0.937,-0.5329,-0.1866,0.0,0.0,0.0,0.0,0.0,0.0,0.0,0.0,0.0,0.0,0.0,0.0,0.0,0.0,0.0,0.0,0.0,0.0,0.0,0.0,0.0,0.0,0.0,0.0,0.0,0.0,0.0,0.0,0.0,0.0,0.0,0.0,0.0,0.0,0.0,0.0,0.0,0.0,0.0,0.0,0.0,0.0,0.0,0.0,0.0,0.0,0.0,0.0,0.0,0.0,0.0,0.0,0.0,0.0,0.0,0.0,0.0,0.0,0.0,0.0,0.0,0.0,0.0,0.0,0.0,0.0,0.0,0.0,0.0,0.0,0.0,0.8963,0.0,0.0,0.0,0.0,0.0,0.0,0.0,0.0,0.0,0.0,0.0,0.0,0.0,0.0,0.0,0.0,0.0,0.0,0.0,0.0,0.0,-0.5015,-0.815,-0.9023,-0.8883,-0.7637,-0.5108,-0.2817,-0.0924,-0.03,0.0,0.0,-0.0888,-0.1378,-0.1386,-0.9474,-1.3949,-1.4424,-1.5377,-1.5536,-1.4954,-1.5041,-1.1804,-0.5831,-0.4369,0.0,0.0,0.0,0.0,0.0,0.0,0.0,0.0,0.0,0.0,0.0,0.0,0.0,0.0,0.0,0.0,0.0,0.0,0.0,0.0,0.0,0.0,0.0,0.0,0.0,0.0,0.0,0.0,0.0,0.0,0.0,0.0,0.0,0.0,0.0,0.0,0.0,0.0,0.0,0.0,0.0,0.0,0.0,0.0,0.0,0.0,0.0,0.0,0.0,0.0,0.0,0.0,0.0,0.0,0.0,0.0,0.0,0.0,0.0,0.0,0.0,0.0,0.0,0.8714,0.9309,0.9785,1.0519,1.17,1.3227,1.287,1.1936,1.0587,0.0,0.0,0.0,0.0,0.0,0.0,0.0,0.0,0.0,0.0,0.0,0.0,0.0,0.0,0.0,0.0,0.0,0.0,0.0,0.0,-0.8935,-0.8459,-0.7588,-0.8047,-1.0572,-0.932,-0.7123,-0.4178,-0.1492,0.0,0.0,-0.4414,-0.6868,-0.6848,-0.596,-0.6596,-0.8934,-1.3767,-1.5792,-1.5064,-1.5095,-1.4673,-1.3698,-0.989,-0.7191,-0.5423,0.0,0.0,0.0,0.0,0.0,0.0,0.0,0.0,0.0,0.0,0.0,0.0,0.0,0.0,0.0,0.0,0.0,0.0,0.0,0.0,0.0,0.0,0.0,0.0,0.0,0.0,0.0,0.0,0.0,0.0,0.0,0.0,0.0,0.0,0.0,0.0,0.0,0.0,0.0,0.0,0.0,0.5681,0.6453,0.0,0.0,0.0,0.0,0.0,0.0,0.0,0.0,0.0,0.0,0.0,0.0,0.0,0.9029,0.879,0.9852,1.0327,1.0217,1.2087,1.3005,1.3145,1.4849,1.5376,1.4997,1.6455,0.0,1.291,1.1913,0.0,0.0,0.0,0.0,0.0,0.0,0.0,0.0,0.0,0.0,0.0,0.0,0.0,0.0,0.0,0.0,0.0,0.0,0.0,0.0,0.0,-1.0332,-1.1259,-1.3155,-1.2519,-1.0546,-0.7182,-0.4132,-0.2292,-0.1866,-0.4079,-0.5894,-0.7139,-0.7944,-1.0027,-1.3536,-1.6138,-1.7639,-1.803,-1.8035,-1.8175,-1.8249,-1.5919,-1.2626,-0.8746,-0.7005,0.0,0.0,0.0,0.0,0.0,0.0,0.0,0.0,0.0,0.0,0.0,0.0,0.0,0.0,0.0,0.0,0.0,0.0,0.0,0.0,0.0,0.0,0.0,0.0,0.0,0.0,0.0,0.0,0.0,0.0,0.0,0.0,0.0,0.0,0.0,0.0,0.0,0.0,0.0,0.4288,0.6151,0.655,0.6617,0.6409,0.0,0.0,0.0,0.0,0.0,0.0,0.0,0.0,0.0,1.0165,1.0322,1.0664,1.1205,1.1464,1.1543,1.1543,1.2483,1.352,1.4601,1.5438,1.6158,1.6802,1.7647,1.6958,1.5085,1.3464,1.1927,1.0463,0.0,0.0,0.0,0.0,0.8423,0.8487,0.0,0.0,0.0,0.0,0.0,0.0,0.0,0.0,0.0,0.0,0.0,0.0,-1.195,-1.3346,-1.464,-1.5714,-1.5159,-1.3565,-1.0832,-0.7121,-0.4597,-0.3581,-0.3847,-0.4958,-0.6976,-1.0519,-1.4142,-1.7764,-1.8477,-1.9594,-2.1007,-2.0898,-2.1089,-2.147,-2.0737,-1.7427,-1.2283,-1.0312,-0.776,-0.4855,0.0,0.0,0.0,0.0,0.0,0.0,0.0,0.0,0.0,0.0,0.0,0.0,0.0,0.0,0.0,0.0,0.0,0.0,0.0,0.0,0.0,0.0,0.0,0.0,0.0,0.0,0.0,0.0,0.0,0.0,0.0,0.0,0.0,0.0,0.0,0.0,0.0,0.4244,0.6068,0.6384,0.6753,0.665,0.0,0.0,0.0,0.0,0.0,0.0,0.9232,0.9591,1.0205,1.1164,1.1381,1.1843,1.2515,1.2403,1.2305,1.2305,1.2526,1.352,1.5242,1.5438,1.6437,1.8008,1.8008,1.7442,1.6435,1.4586,1.32,1.1919,1.0105,0.9272,0.9218,0.9806,0.9967,1.0087,0.0,0.0,0.0,0.0,0.0,0.0,0.0,0.0,0.0,0.0,0.0,-1.337,-1.3712,-1.5216,-1.6827,-1.8446,-1.7225,-1.6182,-1.5691,-1.0054,-0.5994,-0.4243,-0.5327,-0.6668,-0.8166,-1.1951,-1.5067,-1.7433,-1.9081,-2.0959,-2.2971,-2.2306,-2.2725,-2.3979,-2.339,-2.0523,-1.6053,-1.3483,-1.1141,-0.8776,-0.4938,0.0,0.0,0.0,0.0,0.0,0.0,0.0,0.0,0.0,0.0,0.0,0.0,0.0,0.0,0.0,0.0,0.0,0.0,0.0,0.0,0.0,0.0,0.0,0.0,0.0,0.0,0.0,0.0,0.0,0.0,0.0,0.0,0.0,0.0,0.0,0.0,0.0,0.0,0.5984,0.7088,0.0,0.0,0.0,0.0,0.8333,0.8844,0.9566,1.0483,1.0792,1.0869,1.0813,1.1745,1.1857,1.0908,1.1835,1.2305,1.2305,1.3171,1.4171,1.5226,1.614,1.706,1.8008,1.8008,1.751,1.6489,1.5494,1.4038,1.2243,1.1293,1.0541,1.0127,1.0715,1.1276,1.1824,0.0,0.0,0.0,-0.7722,-0.7509,-0.6465,-0.3032,-0.674,-0.9748,-0.9139,-1.2934,-1.5638,-1.5574,-1.8404,-2.0756,-2.1939,-2.1181,-2.0001,-1.8607,-1.3881,-1.0014,-0.7534,-0.7546,-0.9115,-1.2241,-1.4727,-1.7008,-1.9081,-2.0402,-2.2044,-2.3983,-2.3387,-2.3922,-2.5347,-2.4744,-2.3375,-2.1197,-1.7781,-1.4945,-1.2461,-0.8949,-0.5605,0.0,0.0,0.0,0.0,0.0,0.0,0.0,0.0,0.0,0.0,0.0,0.0,0.0,0.0,0.0,0.0,0.0,0.0,0.0,0.0,0.0,0.0,0.0,0.0,0.0,0.0,0.0,0.0,0.0,0.0,0.0,0.0,0.0,0.0,0.0,0.0,0.0,0.5505,0.6384,0.0,0.6355,0.7078,0.7629,0.7838,0.9134,1.019,1.0713,1.0836,1.0864,1.0771,1.1168,1.1253,1.1042,1.1864,1.2398,1.2661,1.3695,1.4642,1.5663,1.6863,1.7949,1.8828,1.8828,1.8309,1.7352,1.6292,1.4903,1.3472,1.2552,1.2118,1.2131,1.2345,1.2559,1.2759,0.0,0.0,0.0,-0.7844,-0.7617,-0.648,-0.306,-0.5895,-0.9217,-1.1412,-1.4627,-1.7099,-1.808,-2.1081,-2.3367,-2.4208,-2.3731,-2.2591,-2.0735,-1.6607,-1.3094,-1.0635,-1.0564,-1.2078,-1.5323,-1.6957,-1.8702,-2.0532,-2.1675,-2.3003,-2.4492,-2.4411,-2.5012,-2.621,-2.5855,-2.5459,-2.4844,-2.1887,-1.8986,-1.6078,-1.2739,-0.9111,-0.5669,0.0,0.0,0.0,0.0,0.0,0.0,0.0,0.0,0.0,0.0,0.0,0.0,0.0,0.0,0.0,0.0,0.0,0.0,0.0,0.0,0.0,0.0,0.0,0.0,0.0,0.0,0.0,0.0,0.0,0.0,0.0,0.0,0.0,0.0,0.2167,0.3705,0.4362,0.5553,0.6133,0.5616,0.6858,0.7731,0.7933,0.9264,1.0092,1.026,1.026,1.011,0.9809,1.0484,1.0761,1.0717,1.1954,1.2705,1.2906,1.3761,1.4729,1.5955,1.6879,1.8064,1.9277,1.8912,1.823,1.7226,1.6076,1.5034,1.3959,1.3242,1.3026,1.3213,1.3213,1.3267,1.3373,0.0,0.0,-0.9443,-0.7968,-0.7699,-0.6532,-0.312,-0.4007,-0.751,-1.4309,-1.5903,-1.7715,-2.1111,-2.3043,-2.4428,-2.5226,-2.4695,-2.3671,-2.2151,-1.8049,-1.4901,-1.3222,-1.4257,-1.5614,-1.7178,-1.8587,-2.0082,-2.1648,-2.2862,-2.3816,-2.4557,-2.527,-2.5981,-2.6691,-2.6691,-2.6691,-2.6657,-2.5505,-2.3143,-1.9737,-1.6162,-1.335,-1.0952,0.0,0.0,0.0,0.0,0.0,0.0,0.0,0.0,0.0,0.0,0.0,0.0,0.0,0.0,0.0,0.0,0.0,0.0,0.0,0.0,0.0,0.0,0.0,0.0,0.0,0.0,0.0,0.0,0.0,0.0,0.0,0.0,0.0,-0.134,-0.0658,0.0407,0.2452,0.4535,0.5617,0.5199,0.7302,0.8729,0.8729,0.902,0.9226,0.9226,0.9226,0.8846,0.7855,0.9734,1.0383,0.9724,1.2018,1.3213,1.324,1.3507,1.4576,1.6244,1.632,1.7411,1.9243,1.8193,1.7203,1.6185,1.5127,1.4251,1.3627,1.3333,1.3227,1.324,1.3253,1.344,1.3721,-0.9868,-1.0012,-0.9606,-0.7934,-0.7661,-0.6534,-0.3122,-0.3914,-0.7293,-1.3961,-1.6248,-1.8059,-2.0193,-2.3151,-2.5082,-2.5351,-2.503,-2.4275,-2.297,-1.9255,-1.6272,-1.4409,-1.6759,-1.868,-1.997,-2.114,-2.2238,-2.3258,-2.3869,-2.456,-2.5304,-2.5507,-2.5981,-2.6691,-2.6691,-2.6691,-2.6691,-2.6351,-2.5964,-2.5061,-1.9952,-1.611,-1.3073,0.0,0.0,0.0,0.0,0.0,0.0,0.0,0.0,0.0,0.0,0.0,0.0,0.0,0.0,0.0,0.0,0.0,0.0,0.0,0.0,0.0,0.0,0.0,0.0,0.0,0.0,0.0,0.0,0.0,0.0,0.0,-0.6312,-0.5474,-0.2941,-0.1136,0.0606,0.2485,0.2046,0.2753,0.572,0.6569,0.6958,0.695,0.7753,0.8237,0.8237,0.8237,0.8084,0.7787,0.9064,0.9942,1.0346,1.2085,1.32,1.3841,1.5277,1.6252,1.6779,1.8547,1.9736,2.0215,1.9099,1.8476,1.8066,1.6155,1.5323,1.4972,1.3954,1.3654,1.3868,1.4082,1.4921,1.595,-0.988,-1.0,-0.963,-0.831,-0.8009,-0.6954,-0.3939,-0.5384,-0.8848,-1.4569,-1.6309,-1.8064,-2.0794,-2.3323,-2.5005,-2.539,-2.5187,-2.4241,-2.2325,-1.9068,-1.7161,-1.7034,-1.9037,-2.1068,-2.2926,-2.3737,-2.4563,-2.5372,-2.5406,-2.5642,-2.6048,-2.6048,-2.6285,-2.6691,-2.6891,-2.716,-2.7433,-2.74,-2.7977,-2.8423,-2.4441,-2.0912,-1.7626,-1.4003,-1.1318,-0.9127,-0.7059,-0.5571,-0.4481,-0.381,0.0,0.0,0.0,0.0,0.0,0.0,0.0,0.0,0.0,0.0,0.0,0.0,0.0,0.0,0.0,0.0,0.0,0.0,0.0,0.0,0.0,0.0,0.0,0.0,-0.7353,-0.6879,-0.5604,-0.3088,-0.0568,0.1331,0.0662,0.131,0.4622,0.5805,0.6274,0.6261,0.6872,0.7173,0.7173,0.7173,0.7204,0.7274,0.8663,0.9785,1.0523,1.2419,1.3574,1.4082,1.5801,1.675,1.71,1.9085,1.9923,0.0,1.8798,1.8066,1.7631,1.5905,1.5248,0.0,0.0,0.0,0.0,0.0,1.5585,1.677,-0.9835,-0.9834,-0.959,-0.8747,-0.8517,-0.7671,-0.5402,-0.77,-1.1232,-1.5421,-1.6148,-1.7833,-2.1852,-2.3342,-2.4312,-2.5072,-2.5043,-2.3852,-2.1107,-1.8624,-1.8165,-2.027,-2.1189,-2.2944,-2.5846,-2.6229,-2.6835,-2.7731,-2.7261,-2.7029,-2.7029,-2.6996,-2.6962,-2.7029,-2.7388,-2.799,-2.8714,-2.865,-2.9355,-3.0366,-2.8799,-2.6363,-2.3219,-1.859,-1.5878,-1.4152,-1.1308,-0.8591,-0.6534,-0.7545,0.0,0.0,0.0,0.0,0.0,0.0,0.0,0.0,0.0,0.0,0.0,0.0,0.0,0.0,0.0,0.0,0.0,0.0,0.0,0.0,0.0,0.0,0.0,0.0,-0.8308,-0.813,-0.8532,-0.5641,-0.2613,-0.026,0.0,0.0827,0.2918,0.5004,0.6274,0.6261,0.6338,0.6345,0.6281,0.0,0.0,0.0,0.0,0.9948,1.047,1.2794,1.4068,1.4135,1.5432,1.6468,1.7334,1.8353,1.8949,1.8949,1.7759,1.6802,1.6063,1.4984,1.475,1.499,1.4683,1.4589,1.4656,1.5089,1.6077,1.6964,-0.9344,-0.9417,-0.9139,-0.8285,-0.879,-0.8886,-0.7473,-0.9064,-1.1421,-1.4223,-1.5857,-1.7716,-2.0153,-2.1923,-2.3055,-2.343,-2.4014,-2.3666,-2.196,-2.135,-2.1345,-2.2082,-2.3058,-2.4867,-2.7727,-2.769,-2.8329,-2.9743,-2.9269,-2.904,-2.904,-2.8731,-2.8732,-2.9039,-2.9105,-2.947,-2.9955,-2.9955,-3.0629,-3.1636,-3.0344,-2.8352,-2.5834,-2.3021,-2.0898,-1.9154,-1.7068,-1.4892,-1.2846,-1.1724,-1.2487,-1.385,-1.345,-1.1186,0.0,0.0,0.0,0.0,0.0,0.0,0.0,0.0,0.0,0.0,0.0,0.0,0.0,0.0,0.0,0.0,0.0,0.0,0.0,-1.0236,-0.9685,-0.8923,-0.8602,-0.7075,-0.4477,-0.0431,0.0,0.0815,0.2915,0.501,0.6281,0.6261,0.6338,0.6308,0.6424,0.643,0.6498,0.6654,0.8756,1.0172,1.0706,1.2708,1.3961,1.4429,0.0,0.0,1.735,1.7813,1.8525,1.9199,1.7483,1.6605,1.6418,1.5301,1.5044,1.5284,1.499,1.5017,1.5322,1.6425,1.7689,1.9101,-0.8338,-0.8671,-0.8746,-0.8332,-0.8781,-0.8988,-0.8332,-0.9077,-1.058,-1.2979,-1.4283,-1.6038,-1.8798,-1.9744,-2.0389,-2.1012,-2.1357,-2.1688,-2.2047,-2.202,-2.2703,-2.4331,-2.5059,-2.6878,-2.9876,-2.9693,-3.0342,-3.196,-3.0747,-3.0144,-3.0144,-2.9346,-2.9211,-2.9622,-2.9819,-3.038,-3.1195,-3.1166,-3.1838,-3.2875,-3.2067,-3.1153,-2.9933,-2.6554,-2.4689,-2.3682,-2.1288,-1.9577,-1.8314,-1.7678,-1.8042,-1.8684,-1.8561,-1.7623,-1.5692,0.0,0.0,0.0,0.0,0.0,0.0,0.0,0.0,0.0,0.0,0.0,0.0,0.0,0.0,-0.6314,-0.8132,0.0,-0.9475,-1.0067,-0.9766,-0.9106,-0.8418,-0.7285,-0.4991,-0.0502,0.0,0.0404,0.1434,0.455,0.6482,0.6469,0.6519,0.6627,0.6695,0.677,0.6878,0.7027,0.9159,1.0434,1.0767,1.2796,1.4015,1.4295,1.5375,1.6187,1.6703,1.7556,1.7973,1.7973,1.7044,1.6344,1.5979,1.5599,1.5484,1.5605,1.5458,1.5855,1.6615,1.7246,1.8347,1.9588,-0.7334,-0.7763,-0.8173,-0.8293,-0.8509,-0.8613,-0.8514,-0.8734,-0.9663,-1.1699,-1.2537,-1.4073,-1.7011,-1.7177,-1.7555,-1.8711,-1.8805,-1.973,-2.1921,-2.2164,-2.3486,-2.6357,-2.6766,-2.8371,-3.1481,-3.133,-3.1985,-3.3508,-3.1849,-3.1046,-3.1011,-3.0036,-2.9798,-3.0269,-3.0681,-3.152,-3.262,-3.2483,-3.2985,-3.385,-3.3494,-3.3522,-3.3378,-2.9685,-2.8149,-2.769,-2.5296,-2.3927,-2.3348,-2.3777,-2.361,-2.3234,-2.3458,-2.375,-2.3063,-1.8175,-1.6407,0.0,0.0,0.0,0.0,0.0,0.0,0.0,0.0,-0.3999,-0.52,-0.6248,-0.8317,-0.9784,-0.9236,-0.9714,-1.0067,-0.9659,-0.9509,-0.9086,-0.8068,-0.7153,-0.5239,-0.161,-0.0485,0.0,0.0,0.3234,0.577,0.6593,0.6831,0.6987,0.7014,0.7122,0.7258,0.7414,0.9598,1.072,1.0771,1.3053,1.4175,1.4175,1.5234,1.5963,1.6208,1.7234,1.7301,1.6684,1.6491,1.6049,1.5498,1.5725,1.5832,1.5832,1.5885,1.6469,1.7507,1.7961,1.883,1.9787,-0.6689,-0.6772,-0.6991,-0.7518,-0.7921,-0.8182,-0.8156,-0.8882,-0.9639,-1.0284,-1.1594,-1.2842,-1.376,-1.4513,-1.5712,-1.7608,-1.8208,-1.9545,-2.2158,-2.2951,-2.4558,-2.7314,-2.7428,-2.8631,-3.1293,-3.1594,-3.2172,-3.3064,-3.2541,-3.2294,-3.2294,-3.1742,-3.1845,-3.2571,-3.3021,-3.366,-3.4379,-3.4074,-3.403,-3.4104,-3.385,-3.378,-3.3716,-3.2841,-3.1936,-3.1005,-3.0268,-2.9181,-2.8144,-2.8313,-2.8477,-2.8535,-2.863,-2.8357,-2.7334,-2.4149,-2.1428,-1.8456,-1.3847,-1.0209,-0.6965,-0.3741,-0.3431,-0.4946,0.0,-1.0461,-1.1479,-1.2751,-1.2415,-1.1898,-1.1768,-1.1205,-1.0689,-1.0622,-0.9916,-0.8951,-0.7966,-0.6979,-0.6132,-0.5665,-0.2319,0.0,0.0,0.0419,0.2492,0.6721,0.7054,0.7197,0.7319,0.7339,0.7414,0.757,0.9938,1.1121,1.0771,1.3236,1.4469,1.4469,1.4583,1.5329,1.655,1.6007,1.6148,1.695,1.6151,1.5846,1.5778,1.5818,1.5832,1.5858,1.6126,1.6316,1.6691,1.9036,2.0079,2.0836,-0.6195,-0.6171,-0.627,-0.668,-0.7321,-0.7811,-0.7811,-0.8308,-0.8918,-0.9544,-1.038,-1.1175,-1.1943,-1.2144,-1.2807,-1.4349,-1.5966,-1.7868,-2.0061,-2.2842,-2.5184,-2.6848,-2.7879,-2.9308,-3.1272,-3.1279,-3.1832,-3.2985,-3.2198,-3.2172,-3.289,-3.2161,-3.2327,-3.3295,-3.3533,-3.4006,-3.4713,-3.4551,-3.4508,-3.4486,-3.4375,-3.4307,-3.4284,-3.3906,-3.3368,-3.2701,-3.2091,-3.1177,0.0,-2.9832,-2.9934,-3.0043,-2.913,-2.8705,-2.8212,-2.6461,-2.4711,-2.2394,-1.8272,-1.4174,-1.0804,-0.9658,-1.0446,-1.1709,-1.2491,-1.3397,-1.4153,-1.4506,-1.4628,-1.4324,-1.3259,-1.2778,-1.1896,-1.0196,-0.9593,-0.877,-0.7173,-0.6563,-0.6295,-0.6383,-0.489,-0.2808,-0.0247,0.0,0.0796,0.278,0.5747,0.7496,0.755,0.7719,0.7787,0.7855,1.0121,1.1261,1.096,1.3493,1.4696,1.4522,1.487,1.5354,1.5931,1.5697,1.5926,1.6285,1.5954,1.5832,1.5845,1.6019,1.6086,1.6112,1.6406,1.6633,1.7155,1.9461,2.0438,2.0954,-0.5686,-0.5646,-0.5698,-0.5957,-0.6739,-0.7362,-0.747,-0.7811,-0.8278,-0.8906,-0.9189,-0.96,-1.0314,-1.0225,-1.0522,-1.1597,-1.4006,-1.6244,-1.8142,-2.2064,-2.4851,-2.6029,-2.7577,-2.9025,-3.0327,-3.0495,-3.1035,-3.2051,-3.1473,-3.1612,-3.2516,-3.183,-3.2041,-3.3018,-3.3155,-3.359,-3.4187,-3.4112,-3.4093,-3.4131,-3.428,-3.4315,-3.4295,-3.4067,-3.3608,-3.3015,-3.2174,-3.143,-3.0645,-2.9566,-2.9683,-3.0071,-2.8773,-2.8495,-2.8578,-2.8084,-2.6686,-2.4507,-2.0788,-1.7503,-1.5054,-1.4659,-1.5959,-1.6999,-1.5718,-1.6027,-1.648,-1.648,-1.667,-1.6312,-1.4767,-1.4011,-1.2705,-0.9744,-0.9301,-0.8618,-0.6563,-0.6295,-0.6356,-0.6458,-0.6579,-0.5431,-0.2215,-0.0708,0.0,0.0093,0.3466,0.6214,0.7707,0.7898,0.8045,0.8038,1.0,1.1056,1.1179,1.3429,1.4615,1.4763,1.519,1.5444,1.5524,1.5725,1.5832,1.5832,1.5912,1.5952,1.5979,1.6273,1.6393,1.642,1.6714,1.6967,1.7538,1.9948,2.0867,2.1256,-0.5116,-0.5116,-0.5193,-0.5478,-0.6136,-0.6756,-0.7162,-0.7606,-0.7956,-0.8106,-0.8147,-0.828,-0.864,-0.8884,-0.9414,-1.0364,-1.2823,-1.5217,-1.7293,-2.052,-2.3282,-2.5254,-2.6197,-2.7082,-2.7967,-2.9064,-2.9662,-2.9699,-3.0442,-3.0836,-3.0872,-3.0844,-3.1107,-3.157,-3.2049,-3.2509,-3.2942,-3.2669,-3.2575,-3.2635,-3.3186,-3.3428,-3.3428,-3.3428,-3.276,-3.1727,-3.0736,-3.0076,-2.9377,-2.7449,-2.7795,-2.8978,-2.8515,-2.8703,-2.916,-2.9624,-2.7284,-2.3881,-2.0429,-1.9729,-1.9432,-1.7113,-1.7796,-1.9078,-1.9057,-1.9078,-1.9337,-2.0224,-1.9073,-1.7562,-1.6519,-1.4893,-1.2705,-0.9744,-0.9301,-0.8618,-0.6563,-0.6376,-0.6464,-0.6471,-0.6736,-0.6807,-0.6605,-0.2592,0.0095,0.0378,0.0295,0.2511,0.7759,0.7972,0.7959,0.8038,0.9235,1.0373,1.1492,1.2687,1.3981,1.5364,1.5391,1.5551,1.5818,1.5832,1.5832,1.5845,1.6126,1.6259,1.6286,1.6567,1.6687,1.6727,1.7021,1.7141,1.7579,2.0585,2.1711,2.203,-0.4609,-0.4727,-0.4963,-0.5422,-0.6118,-0.6739,-0.7146,-0.7485,-0.7768,-0.7956,-0.7984,0.0,0.0,0.0,0.0,0.0,-1.206,-1.4051,-1.6004,-1.9524,-2.231,-2.4105,-2.5729,-2.7182,-2.8466,-2.8865,-2.9465,-3.0278,-3.0221,-3.0534,-3.1206,-3.0939,-3.1224,-3.1974,-3.2109,-3.245,-3.2891,-3.2787,-3.276,-3.2785,-3.3043,-3.3104,-3.3181,-3.4197,-3.2855,-3.0377,0.0,-2.8395,-2.7031,-2.4878,-2.4682,-2.5085,-2.3964,-2.3737,-2.4061,-2.5112,-2.5201,-2.4751,-2.3634,-2.283,-2.2086,-2.1141,-2.1343,-2.1806,-2.1806,-2.1806,-2.1557,-2.0782,-2.0117,-1.9027,-1.6936,-1.4947,-1.2853,-1.0587,-0.912,-0.7897,-0.662,-0.6444,-0.6546,-0.6749,-0.6865,-0.69,-0.6959,-0.5598,-0.3374,-0.0095,0.0097,0.1579,0.5138,0.7006,0.7965,0.8038,0.9257,1.0412,1.1502,1.2908,1.4247,1.5404,1.5591,1.5738,1.5832,1.5832,1.5939,1.6126,1.6233,1.638,1.658,1.6874,1.7007,1.7034,1.7328,1.7435,1.7657,1.9583,2.0947,2.2064,-0.4353,-0.4387,-0.4591,-0.5116,-0.5848,0.0,0.0,0.0,0.0,0.0,0.0,0.0,0.0,0.0,0.0,0.0,0.0,-1.2954,-1.4623,-1.79,-2.0554,-2.2258,-2.3342,-2.461,-2.6159,-2.5818,-2.6715,-2.8894,-2.8535,-2.9242,-3.0944,-3.0399,-3.0401,-3.0827,-3.0827,-3.1118,-3.1583,-3.1583,-3.1929,-3.2468,-3.2199,-3.1891,-3.1583,-3.1904,-3.0004,0.0,-2.606,-2.4741,-2.3257,-2.1896,-2.1861,-2.22,-2.1393,-2.1798,-2.2694,-2.3103,-2.3912,-2.4646,-2.4891,-2.4,-2.3017,-2.3086,-2.3065,-2.3065,-2.3065,-2.2884,-2.2372,-2.129,-2.059,-1.9378,-1.7005,-1.4915,-1.2896,-1.0667,-0.9027,-0.7725,-0.6784,-0.6729,-0.6831,-0.6919,-0.6973,-0.7041,-0.7129,-0.7078,-0.544,-0.1595,-0.0479,0.1165,0.3811,0.6547,0.8018,0.8038,0.8765,0.9964,1.1622,1.265,1.3897,1.5551,1.5738,1.5885,1.5992,1.5992,1.6152,1.6433,1.654,1.6687,1.6887,1.7181,1.7301,1.7328,1.7515,1.7582,1.7793,1.9627,2.1027,2.2249,-0.4299,-0.4127,-0.4097,0.0,0.0,0.0,0.0,0.0,0.0,0.0,0.0,0.0,0.0,0.0,0.0,0.0,0.0,0.0,-1.3112,-1.5715,-1.8042,-1.9869,-1.9312,-1.9735,-2.1466,-2.0489,-2.1847,-2.563,-2.5502,-2.6925,-2.9769,-2.8998,-2.8433,-2.8077,-2.8131,-2.8479,-2.9006,-2.9006,-3.0006,-3.1468,-3.054,-2.9644,-2.8648,-2.6995,-2.4624,-2.2035,-2.1005,-1.9735,-1.8561,-1.8791,-1.9624,-2.0651,-2.0985,-2.2932,-2.483,-2.3615,-2.342,-2.3692,-2.4166,-2.3366,-2.2496,-2.2908,-2.3065,-2.3065,-2.3005,-2.2433,-2.1877,-2.1768,-2.0353,-1.8609,-1.672,-1.4763,-1.2627,-1.0126,-0.8944,-0.8005,-0.7011,-0.717,-0.7244,-0.6973,-0.7061,-0.7143,-0.7143,-0.7088,-0.6161,-0.3772,0.0,0.1152,0.3811,0.6588,0.8041,0.8038,0.7896,0.9139,1.1745,1.1833,1.3165,1.5737,1.575,1.6005,1.6273,1.6286,1.646,1.674,1.7021,1.7257,1.7194,1.7475,1.7582,1.7582,1.7582,1.7582,1.7884,2.0656,2.1907,2.2482,0.0,0.0,0.0,0.0,0.0,0.0,0.0,0.0,0.0,0.0,0.0,0.0,0.0,0.0,0.0,0.0,0.0,0.0,-1.1824,-1.345,-1.548,-1.7995,-1.7996,-1.9073,-2.1466,-2.1231,-2.1776,-2.3201,-2.3145,-2.3396,-2.3933,-2.3712,-2.3654,-2.3754,-2.4459,-2.5335,-2.6282,-2.6365,-2.6988,-2.7876,-2.6437,-2.561,-2.5258,-2.5477,-2.3419,-2.0527,-2.1697,-2.0227,-1.7908,-1.9201,-2.0632,-2.2005,-2.2443,-2.3439,-2.4182,-2.3063,-2.3668,-2.452,-2.3797,-2.3649,-2.3566,-2.2482,-2.2641,-2.2763,-2.1542,-2.1542,-2.1448,-1.9805,-1.8593,-1.7402,-1.5716,-1.3067,-1.09,-1.0092,-0.8269,-0.699,-0.6898,-0.6993,-0.7054,-0.7082,-0.7115,-0.7143,-0.7143,-0.7091,-0.6162,-0.3776,-0.1411,0.1152,0.3811,0.6564,0.8038,0.8038,0.7997,0.878,1.0485,1.2362,1.3718,1.4364,1.5564,1.6206,1.6286,1.65,1.6754,1.7048,1.7114,1.7275,1.7475,1.7555,1.7582,1.7582,1.7582,1.7582,1.7806,1.9897,2.1394,2.2582,0.0,0.0,0.0,0.0,0.0,0.0,0.0,0.0,0.0,0.0,0.0,0.0,0.0,0.0,0.0,0.0,0.0,0.0,0.0,-1.1636,-1.3198,-1.5574,-1.5117,-1.5826,-1.8083,-1.7392,-1.8191,-2.0578,-1.9875,-2.0494,-2.2318,-2.1584,-2.1327,-2.1545,-2.2133,-2.2878,-2.363,-2.3694,-2.44,0.0,0.0,-2.27,-2.2119,-2.1858,-1.9979,-1.7744,-1.9402,-1.9882,-1.9956,-2.1507,-2.2309,-2.2826,-2.343,-2.3885,-2.4153,-2.3775,-2.394,-2.4211,-2.3817,-2.3496,-2.3015,-2.2125,-2.1939,-2.1682,-2.0574,-2.038,-1.9928,-1.7968,-1.7026,-1.5872,-1.3638,-1.171,-1.0098,-0.9329,-0.7934,-0.6926,-0.7102,-0.7183,-0.7204,-0.7149,-0.7143,-0.7143,-0.7143,-0.7125,-0.6126,-0.3731,-0.1323,0.1152,0.3811,0.6541,0.8011,0.8038,0.8038,0.8627,1.0002,1.2037,1.3352,1.4049,1.4985,1.5901,1.666,1.682,1.7061,1.7341,0.0,1.7435,1.7582,1.7582,1.7582,1.7595,1.7729,1.8194,1.895,2.0741,2.2544,2.4279,0.0,0.0,0.0,0.0,0.0,0.0,0.0,0.0,0.0,-0.783,-0.7687,-0.7513,-0.75,-0.7318,0.0,0.0,0.0,0.0,0.0,0.0,-1.1223,-1.3083,-1.1888,-1.1952,-1.3602,-1.2183,-1.3486,-1.7603,-1.6201,-1.7597,-2.151,-2.0063,-1.9487,-1.966,-1.9926,-2.0238,-2.0643,-2.0817,-2.1775,-2.3035,-2.1407,-2.0203,-1.9163,0.0,-1.5908,-1.4748,-1.5987,-1.8929,-2.2485,-2.405,-2.4229,-2.3879,-2.4461,-2.4625,-2.4663,-2.4907,-2.4243,-2.3507,-2.3916,-2.2955,-2.1815,-2.1628,-2.1037,-2.0392,-1.9714,-1.8975,-1.7905,-1.6357,-1.5476,-1.4064,-1.1257,-1.0436,-0.9702,-0.8164,-0.7573,-0.7299,-0.7333,-0.7455,-0.7448,-0.7197,-0.717,-0.7177,-0.7115,-0.7093,-0.6298,-0.4193,-0.1245,0.1546,0.3922,0.6508,0.795,0.8038,0.8038,0.8542,0.9739,1.1012,1.2387,1.3811,1.4243,1.5318,1.6935,1.7181,1.7341,1.7582,1.7582,0.0,1.7582,1.7582,1.7582,1.7609,1.7929,1.8977,2.0484,2.1969,2.4162,2.6445,0.0,0.0,0.0,0.0,0.0,0.0,0.0,0.0,0.0,0.0,-0.8131,-0.7012,0.0,0.0,0.0,0.0,0.0,0.0,0.0,0.0,0.0,-1.1298,-1.1207,-1.1628,-1.2718,-1.2402,-1.2608,-1.3446,-1.3096,-1.3309,-1.3985,-1.3692,-1.3566,-1.3655,-1.4503,-1.5353,-1.6192,-1.695,-1.7884,-1.868,-1.7394,-1.6676,-1.6323,-1.5302,-1.4551,0.0,-1.5555,-1.7656,-2.0278,-2.2892,-2.5321,-2.7185,-2.6934,-2.6838,-2.6533,-2.4943,-2.4326,-2.3858,-2.2628,-2.2125,-2.1565,-2.0139,-2.0204,-2.0072,-1.8226,-1.7543,-1.6795,-1.505,-1.3357,-1.169,-1.0113,-0.9052,-0.8163,-0.7385,-0.698,-0.6898,-0.7143,-0.7204,-0.7251,-0.7319,-0.7333,-0.7387,-0.733,-0.7209,-0.6924,-0.6566,-0.0396,0.3504,0.3997,0.6526,0.8052,0.8038,0.8038,0.8199,0.8635,0.9819,1.0712,1.1111,1.3659,1.5056,1.5463,1.686,1.7542,1.7582,1.7582,0.0,1.7582,1.7582,1.7582,1.7609,1.7929,1.8977,2.0438,2.1425,2.3723,2.6445,0.0,0.0,0.0,0.0,0.0,0.0,0.0,-0.8803,-0.9705,-1.1377,-1.0665,-0.9521,-0.8347,-0.7372,-0.6855,0.0,0.0,0.0,0.0,0.0,0.0,-1.0118,-1.0617,-1.1145,-1.1697,-1.2106,-1.2293,-1.2314,0.0,-1.1805,-1.2076,-1.1673,-1.193,-1.2721,-1.2859,-1.3643,-1.4846,-1.4896,-1.5397,-1.6082,-1.5375,-1.5037,-1.4879,-1.433,-1.4481,0.0,-1.5925,-1.7983,-2.0442,-2.1535,-2.3883,-2.6567,-2.7213,-2.6695,-2.5604,-2.4597,-2.3695,-2.2895,-2.2125,-2.1227,-2.0333,-1.9507,-1.9309,-1.8858,-1.7382,-1.636,-1.5109,-1.2985,-1.132,-0.9715,-0.7729,-0.7318,-0.7085,-0.6391,-0.6535,-0.6776,-0.7,-0.7163,-0.7285,-0.736,-0.7441,-0.7522,-0.7416,-0.6101,-0.5791,-0.7009,-0.02,0.4041,0.4017,0.6537,0.7959,0.8038,0.8119,0.8194,0.8269,0.8947,0.9784,1.0687,1.2145,1.373,1.5235,1.6107,1.6829,1.7582,1.7582,0.0,1.7582,1.7582,1.7675,1.7849,1.8156,1.9428,2.1068,2.1601,2.4008,2.7074,0.0,0.0,0.0,0.0,0.0,0.0,0.0,-1.0821,-1.1728,-1.3552,-1.3465,-1.2361,-1.0118,-0.8193,-0.6922,0.0,0.0,0.0,0.0,0.0,0.0,0.0,-1.0492,-1.105,-1.1265,0.0,0.0,-1.2133,-1.1319,0.0,0.0,0.0,0.0,0.0,-1.2223,-1.2804,-1.4119,-1.3679,-1.3858,0.0,0.0,-1.4185,-1.4092,0.0,0.0,0.0,0.0,-1.7704,-1.9948,-1.9908,-2.147,-2.3773,-2.5747,-2.5434,-2.4279,-2.4105,-2.304,-2.1877,-2.169,-2.0462,-1.9243,-1.9044,-1.8529,-1.7687,-1.6606,-1.5153,-1.3362,-1.0941,-0.9458,-0.7895,-0.5754,-0.5961,-0.6335,-0.5728,-0.6179,-0.6681,-0.6898,-0.7183,-0.7387,-0.7414,-0.7556,-0.757,-0.7515,-0.5169,-0.4237,-0.5447,0.04,0.0,0.4826,0.683,0.8058,0.8085,0.8208,0.8303,0.8364,0.8472,0.9239,1.0461,1.0774,1.2345,1.4984,1.5304,1.6168,1.7582,1.7582,0.0,0.0,1.7689,1.7862,1.817,1.8464,1.9766,2.1631,2.2034,2.4295,2.7129,0.0,0.0,0.0,0.0,0.0,0.0,0.0,-1.1558,-1.3249,-1.5976,-1.5301,-1.3757,-1.1631,-0.9878,-0.816,0.0,0.0,0.0,0.0,0.0,0.0,0.0,0.0,0.0,0.0,0.0,0.0,-1.1935,-1.1121,0.0,0.0,0.0,0.0,0.0,0.0,-1.1607,-1.2474,-1.2941,0.0,0.0,0.0,0.0,0.0,0.0,0.0,0.0,0.0,-1.5048,-1.6297,-1.7975,-1.86,-1.9155,-2.2096,-2.363,-2.4163,-2.3424,-2.2555,-2.1753,-2.091,-2.0009,-1.911,-1.8327,-1.8076,-1.7542,-1.5638,-1.3717,-1.1735,-0.9737,-0.7823,-0.6287,-0.5614,-0.5676,-0.5884,-0.5811,-0.6071,-0.6451,-0.6871,-0.7183,-0.7421,-0.7563,-0.7706,-0.7855,-0.7932,-0.5513,-0.301,-0.0806,0.2217,0.0,0.7478,0.7852,0.8106,0.8248,0.8262,0.8397,0.8669,0.8682,0.8764,0.9133,1.0437,1.1955,1.3588,1.477,1.6168,1.7582,1.7582,0.0,0.0,1.8009,1.8183,1.8477,1.8771,1.9962,2.166,2.2421,2.3826,2.5592,0.0,0.0,0.0,0.0,0.0,0.0,-1.2651,-1.3045,-1.4323,-1.84,-1.6841,-1.4756,-1.3223,-1.1068,-0.8693,-0.5996,0.0,0.0,0.0,0.0,0.0,0.0,0.0,0.0,0.0,0.0,-1.2993,-1.2568,-1.2132,0.0,0.0,0.0,0.0,0.0,0.0,-1.2129,-1.3197,-1.3099,0.0,0.0,0.0,0.0,0.0,0.0,0.0,0.0,0.0,0.0,-1.5549,-1.5741,-1.6559,-1.7628,-1.8525,-2.0106,-2.1754,-2.2783,-2.2274,-2.1266,-2.0756,-1.9944,-1.911,-1.8212,-1.8008,-1.7456,-1.552,-1.3431,-1.1201,-0.8837,-0.6619,-0.5003,-0.4641,-0.474,-0.5006,-0.548,-0.5786,-0.6139,-0.6593,-0.6987,-0.7292,-0.7441,-0.7672,-0.7882,-0.7972,-0.5536,-0.2929,-0.0205,0.2662,0.0,0.5827,0.731,0.8214,0.8269,0.8445,0.8594,0.871,0.8804,0.8879,0.894,0.9478,1.1,1.3372,1.3911,1.5423,1.7595,1.7782,0.0,0.0,1.8424,1.8744,1.9052,1.9332,2.0074,2.111,2.1362,2.273,2.4101,0.0,0.0,0.0,0.0,0.0,-0.9642,-1.3674,-1.429,-1.5517,-1.9047,-1.771,-1.5773,-1.3941,-1.1309,-0.8698,-0.6155,-0.5928,0.0,0.0,0.0,0.0,0.0,0.0,0.0,0.0,0.0,-1.3658,-1.3191,-1.2745,-1.221,0.0,0.0,-1.1719,-1.2509,0.0,0.0,0.0,0.0,0.0,0.0,0.0,0.0,0.0,0.0,0.0,0.0,0.0,0.0,0.0,0.0,0.0,-1.639,-1.6362,-1.7645,-1.956,-2.1945,-2.1858,-2.0969,-2.0892,-2.0053,-1.911,-1.8212,-1.8008,-1.7417,-1.5122,-1.299,-1.0693,-0.8125,-0.5759,-0.4108,-0.4017,-0.4127,-0.4545,-0.5243,-0.5644,-0.6023,-0.6478,-0.6885,-0.7197,-0.7353,-0.7631,-0.7868,-0.8018,-0.4818,-0.2029,-0.0104,0.0,0.0,0.584,0.7503,0.8418,0.8397,0.8601,0.873,0.8777,0.8886,0.894,0.894,0.894,1.0241,1.2625,1.2683,1.4083,1.6418,1.7194,0.0,0.0,1.8704,1.9359,1.9639,1.984,2.0227,2.0792,2.1286,2.2072,2.2716,0.0,0.0,0.0,0.0,0.0,0.0,-1.2438,-1.5061,-1.687,-1.7385,-1.7798,-1.6763,-1.3401,-1.0383,-0.816,-0.7093,-0.6512,0.0,0.0,0.0,0.0,0.0,0.0,0.0,0.0,0.0,-1.3813,-1.3582,-1.2592,-1.2036,-1.1893,-1.0993,-1.1166,-1.2209,0.0,0.0,0.0,0.0,0.0,0.0,0.0,0.0,-1.2926,0.0,0.0,0.0,0.0,0.0,0.0,0.0,0.0,0.0,0.0,-1.6923,-1.7953,-2.069,-2.1272,-2.104,-2.13,-2.0379,-1.911,-1.8212,-1.8008,-1.7207,-1.4145,-1.2075,-1.0126,-0.7623,-0.5246,-0.367,-0.3877,-0.4214,-0.4718,-0.5329,-0.5739,-0.6186,-0.6634,-0.6953,-0.7197,-0.7353,-0.7631,-0.7834,-0.7979,-0.3194,-0.0,-0.0,0.0,0.0,0.8871,0.889,0.8838,0.871,0.871,0.8784,0.8933,0.894,0.894,0.894,0.894,0.9699,1.1109,1.1287,1.2036,0.0,0.0,0.0,0.0,1.8933,1.996,2.0227,2.0227,2.0414,2.0916,2.2471,2.2196,2.1362,0.0,0.0,0.0,0.0,0.0,0.0,0.0,-1.2927,-1.3894,-1.6565,-1.5103,-1.374,-1.3552,-1.0415,-0.8191,-0.7901,-0.6696,0.0,0.0,0.0,0.0,0.0,0.0,0.0,0.0,0.0,-1.4203,-1.4693,-1.4504,-1.4411,-1.4323,-1.342,-1.305,-1.3122,-1.261,-1.2618,0.0,0.0,0.0,0.0,0.0,-1.2671,-1.2317,0.0,0.0,0.0,0.0,0.0,0.0,0.0,0.0,0.0,0.0,0.0,0.0,-1.6953,-1.9081,-2.0604,-1.9641,-1.9571,-1.9316,-1.7576,-1.7129,-1.637,-1.3358,-1.1464,-0.9514,-0.6657,-0.4773,-0.367,-0.3877,-0.4244,-0.4727,-0.5515,-0.5867,-0.622,-0.6776,-0.7109,-0.7319,-0.7366,-0.7738,-0.7232,-0.539,-0.207,0.0,0.0,0.0,0.0,0.8742,0.8872,0.8825,0.8716,0.8811,0.8893,0.894,0.894,0.894,0.894,0.894,0.9699,1.1109,1.1287,1.2078,0.0,0.0,0.0,0.0,1.9529,2.0454,2.0548,2.0762,2.0895,2.1101,2.1589,2.1519,2.1235,0.0,0.0,0.0,0.0,0.0,0.0,0.0,-1.19,-1.2734,-1.4671,-1.3321,-1.2377,-1.2905,-1.0014,-0.8002,-0.8024,-0.6949,0.0,0.0,0.0,0.0,0.0,0.0,0.0,-1.3375,-1.3431,-1.4104,-1.5321,-1.5344,-1.5521,-1.5768,-1.5128,-1.4283,-1.3329,-1.2817,-1.253,0.0,0.0,0.0,0.0,-1.2349,-1.2148,-1.1881,0.0,0.0,0.0,0.0,0.0,0.0,0.0,0.0,0.0,0.0,0.0,0.0,0.0,-1.6622,-1.857,-1.8407,-1.8859,-1.8907,-1.7116,-1.6413,-1.5408,-1.2712,-1.1076,-0.9292,-0.6397,-0.426,-0.2981,-0.323,-0.3924,-0.4731,-0.5426,-0.582,-0.622,-0.6763,-0.7054,-0.7312,-0.759,-0.7838,-0.6969,-0.4268,-0.1576,0.0,0.0,0.0,0.0,0.8772,0.8856,0.8893,0.8798,0.8893,0.894,0.894,0.894,0.894,0.894,0.894,0.9375,1.0249,1.0545,1.1159,0.0,0.0,0.0,0.0,1.8951,2.0328,2.0855,2.1042,2.1109,2.1109,2.1109,2.1109,2.1109,0.0,0.0,0.0,0.0,0.0,0.0,0.0,-1.1637,-1.2772,-1.1924,-1.2259,-1.2298,-1.1511,-0.9219,-0.7684,-0.7569,0.0,0.0,0.0,0.0,0.0,0.0,0.0,0.0,-1.2517,-1.2613,-1.36,-1.5505,-1.5469,-1.5792,-1.6474,-1.6243,-1.5023,-1.2954,-1.2926,-1.257,0.0,0.0,0.0,0.0,-1.187,-1.1636,0.0,0.0,0.0,0.0,0.0,0.0,0.0,0.0,0.0,0.0,0.0,0.0,0.0,0.0,0.0,0.0,0.0,-1.7904,-1.7788,-1.6837,-1.5699,-1.4273,-1.2054,-1.073,0.0,-0.6486,-0.3792,-0.2025,-0.219,-0.3523,-0.469,-0.5078,-0.5684,-0.622,-0.6681,-0.6892,-0.7265,-0.7997,-0.7997,-0.6971,-0.4344,-0.1577,0.0,0.0,0.0,0.0,0.8785,0.8856,0.894,0.894,0.894,0.894,0.894,0.894,0.894,0.894,0.8947,0.896,0.8988,0.9422,0.9557,0.0,0.0,0.0,0.0,1.7667,1.9546,2.1109,2.1109,2.1109,2.1109,2.1109,2.1109,2.1109,0.0,0.0,0.0,0.0,0.0,0.0,0.0,0.0,0.0,0.0,-1.0379,-1.0328,-0.9875,-0.8789,-0.7842,0.0,0.0,0.0,0.0,0.0,0.0,0.0,0.0,0.0,-1.1839,-1.2871,-1.4177,-1.5667,-1.7151,-1.7963,-1.8223,-1.7927,-1.6277,-1.3574,-1.3111,-1.2266,0.0,0.0,0.0,0.0,-1.1136,-1.0949,0.0,0.0,0.0,0.0,-0.9502,-0.9812,0.0,0.0,0.0,0.0,0.0,0.0,0.0,0.0,-1.2551,-1.3235,-1.3972,0.0,-1.5583,-1.5322,-1.3976,-1.229,0.0,-0.9585,-0.7911,-0.3976,-0.3334,-0.3274,-0.2689,-0.386,-0.5142,-0.5698,-0.6125,-0.6566,-0.7136,-0.7441,-0.7841,-0.8479,-0.8459,-0.7334,-0.4614,-0.1763,0.0,0.0,0.0,0.5828,0.8697,0.891,0.894,0.894,0.894,0.894,0.894,0.894,0.894,0.894,0.9049,0.9164,0.9286,0.9618,0.9876,0.0,0.0,0.0,1.59,1.7814,1.9546,2.1109,2.1109,2.1109,2.1109,2.1109,2.1109,2.1109,0.0,0.0,0.0,0.0,0.0,0.0,0.0,0.0,0.0,0.0,0.0,-0.9215,0.0,0.0,0.0,0.0,0.0,0.0,0.0,0.0,0.0,0.0,0.0,-1.0756,-1.1261,-1.2264,-1.3707,-1.5614,-1.6944,-1.8067,-1.8907,-1.8233,-1.6297,-1.3313,-1.1697,-1.0563,0.0,0.0,0.0,-1.064,-1.0667,0.0,0.0,0.0,0.0,0.0,-0.9074,-0.9637,0.0,-1.1138,-1.2185,-1.301,0.0,0.0,0.0,0.0,-1.1204,-1.1613,-1.2167,-1.343,-1.457,-1.433,-1.2842,-1.1042,-0.9519,-0.8101,-0.6227,-0.3092,-0.2808,-0.3266,-0.3458,-0.4555,-0.5501,-0.5803,-0.6247,-0.6837,-0.757,-0.7991,-0.8377,-0.8784,-0.8682,-0.8066,0.0,0.0,0.0,0.0,0.0,0.5974,0.8967,0.9091,0.911,0.9042,0.9035,0.9008,0.894,0.9008,0.9035,0.9042,0.9184,0.934,0.9496,0.9795,1.0059,0.0,0.0,0.0,1.5913,1.6947,1.8768,2.1109,2.1109,2.1109,2.1109,2.1109,2.1109,2.1109,0.0,0.0,0.0,0.0,0.0,0.0,0.0,0.0,0.0,0.0,0.0,0.0,0.0,0.0,0.0,0.0,0.0,0.0,0.0,0.0,0.0,0.0,0.0,-1.0026,-1.0987,-1.1421,-1.2842,-1.5247,-1.6158,-1.7406,-1.894,-1.8241,-1.6053,-1.2643,-0.9871,-0.8588,-0.8508,0.0,-0.9995,-0.9995,-1.0096,0.0,0.0,0.0,0.0,0.0,0.0,0.0,0.0,-1.1552,-1.3065,-1.4315,-1.3084,0.0,0.0,0.0,0.0,0.0,-1.1407,-1.276,-1.383,-1.3387,-1.1859,-1.0121,-0.8603,-0.6701,-0.4798,-0.3197,-0.2709,-0.3003,-0.4442,-0.5231,-0.5711,-0.581,-0.6396,-0.7136,-0.7896,-0.8357,-0.8703,-0.883,-0.8752,0.0,-0.9069,0.0,0.0,0.0,0.0,0.6233,0.9241,0.9422,0.932,0.9191,0.9191,0.913,0.9008,0.9103,0.9164,0.9191,0.9367,0.953,0.9686,0.9985,1.0202,1.0365,0.0,0.0,1.5524,1.5784,1.7859,2.0716,2.0982,2.1109,2.1109,2.1109,2.1109,2.1109,0.0,0.0,0.0,0.0,0.0,0.0,0.0,0.0,0.0,0.0,0.0,0.0,0.0,0.0,0.0,0.0,0.0,0.0,0.0,0.0,0.0,0.0,-0.9248,-1.0057,-1.1445,-1.1452,-1.2367,-1.4218,-1.6619,-1.8004,-1.8394,-1.9506,-1.7219,-1.2048,-0.9564,-0.797,-0.7243,-0.8143,-0.8519,-0.8568,-0.8892,0.0,0.0,0.0,0.0,0.0,0.0,0.0,0.0,-1.0867,-1.1756,-1.2593,-1.1979,0.0,0.0,0.0,0.0,0.0,-1.1545,-1.18,-1.1748,-1.1742,-1.0556,-0.8984,-0.7546,-0.6102,-0.4794,-0.3919,-0.4095,-0.4622,-0.5373,-0.5666,-0.6002,-0.6614,-0.7238,-0.7692,-0.7828,-0.8031,-0.8267,-0.8569,-0.8336,-0.8594,0.0,0.0,0.0,0.0,0.0,0.6264,0.952,0.9476,0.9367,0.9347,0.9245,0.9238,0.9313,0.9205,0.9218,0.9347,0.9625,0.9836,0.9992,1.029,1.0507,1.0656,0.0,1.1894,1.384,1.5265,1.7076,1.9024,2.0462,2.1109,2.1109,2.1109,2.1109,2.1109,0.0,0.0,0.0,0.0,0.0,0.0,0.0,0.0,0.0,0.0,0.0,0.0,0.0,0.0,0.0,0.0,0.0,0.0,0.0,0.0,0.0,0.0,-1.0041,-1.0522,-1.1575,-1.2424,-1.3831,-1.584,-1.7948,-1.9114,-1.923,-1.6719,-1.347,-0.9624,-0.7346,-0.6216,-0.6028,-0.6881,-0.7367,-0.7617,0.0,0.0,0.0,0.0,0.0,0.0,0.0,0.0,0.0,0.0,-1.2086,-1.3436,-1.2043,0.0,0.0,0.0,0.0,0.0,-1.0086,-1.0479,-1.0747,-1.0499,-0.9916,-0.9074,-0.8004,-0.6423,-0.5083,-0.4531,-0.4745,-0.5074,-0.5588,-0.5894,-0.6349,-0.7258,-0.7706,-0.7997,-0.8167,-0.8404,-0.8669,-0.9196,0.0,0.0,0.0,0.0,0.0,0.0,0.0,0.0,0.9674,0.9686,0.9506,0.94,0.9446,0.8835,0.7693,0.8877,0.9435,0.951,0.9802,1.0025,1.0181,1.0392,1.0575,1.0717,0.0,1.163,1.3325,1.4101,1.6043,1.864,1.9419,2.0322,2.1109,2.1109,2.1109,2.1109,0.0,0.0,0.0,0.0,0.0,0.0,0.0,0.0,0.0,0.0,0.0,0.0,0.0,0.0,0.0,0.0,0.0,0.0,0.0,0.0,0.0,0.0,-1.0782,-1.142,-1.2931,-1.3972,-1.5436,-1.7402,-1.9055,-1.9768,-1.9454,-1.4863,-1.1125,-0.8135,-0.6024,-0.4892,-0.4688,-0.5723,-0.6301,-0.6631,0.0,0.0,0.0,0.0,0.0,0.0,0.0,0.0,0.0,0.0,0.0,0.0,0.0,0.0,0.0,-1.0438,-0.9482,-0.9213,-0.9039,-0.9532,-0.9969,-0.9653,-0.9419,-0.9151,-0.8497,-0.6697,-0.5147,-0.5028,-0.514,-0.542,-0.5656,-0.623,-0.6939,-0.7733,-0.8018,-0.8221,-0.8438,-0.8037,-0.8121,-0.9252,-0.8304,0.0,0.0,0.0,0.0,0.0,0.0,0.0,0.9704,0.9794,0.9774,0.9671,0.968,0.8787,0.7118,0.8751,0.9673,0.9659,0.9964,1.0168,1.0283,1.0466,1.0609,1.0717,1.0717,1.1505,1.2676,1.3193,1.4884,1.7345,1.8116,1.9546,2.1109,2.1109,2.1109,2.1109,0.0,0.0,0.0,0.0,0.0,0.0,0.0,0.0,0.0,0.0,0.0,0.0,0.0,0.0,0.0,0.0,0.0,0.0,0.0,0.0,0.0,0.0,0.0,-1.3031,-1.6898,-1.6045,-1.6186,-1.7478,-1.9159,-1.9201,-1.758,-1.7021,-1.4156,-0.9361,-0.7349,-0.5107,-0.2987,-0.468,-0.5345,-0.5425,-0.6289,0.0,0.0,0.0,0.0,0.0,0.0,0.0,0.0,0.0,0.0,0.0,0.0,0.0,-1.0804,-1.0606,-0.9531,-0.8626,-0.9703,-0.9457,-0.9031,-0.9395,-0.8944,-0.8352,-0.823,-0.6342,-0.4689,-0.5256,-0.5693,-0.5964,-0.5927,-0.6969,-0.7936,-0.8011,-0.8262,-0.8314,-0.8117,-0.5898,-0.5293,-0.7862,0.0,0.0,0.0,0.0,0.0,0.0,0.0,0.0,0.9968,0.9975,0.9837,1.0073,0.9857,0.966,0.9605,0.9747,0.9734,0.9808,1.012,1.027,1.029,1.0575,1.0711,1.0717,1.0717,1.0717,1.0982,1.2676,1.3456,1.397,1.7216,1.9546,2.1109,2.1109,2.1109,2.1109,0.0,0.0,0.0,0.0,0.0,0.0,0.0,0.0,0.0,0.0,0.0,0.0,0.0,0.0,0.0,0.0,0.0,0.0,0.0,0.0,-0.8319,0.0,0.0,-1.3402,-1.6798,-1.7777,-1.8853,-2.0088,-1.961,-1.8121,-1.579,-1.3849,-1.0948,-0.7195,-0.4479,-0.2947,-0.2396,-0.329,-0.4208,-0.504,-0.5494,-0.586,0.0,0.0,0.0,0.0,0.0,0.0,0.0,0.0,-1.0156,-1.0664,-1.0585,-1.0742,-1.0775,-0.9942,-0.9021,-0.8327,-0.8433,-0.8268,-0.8137,-0.8693,-0.8133,-0.7541,-0.7843,-0.6872,-0.5983,-0.6404,-0.6496,-0.6602,-0.6806,-0.753,-0.8072,-0.8167,-0.8186,-0.8176,-0.834,-0.7292,-0.5665,0.0,0.0,0.0,0.0,0.0,0.0,0.0,0.0,0.0,0.372,0.7905,1.0002,0.9883,0.7889,0.7738,0.9797,0.9901,1.0005,0.9992,1.0188,1.0324,1.0419,1.0622,1.0717,1.0717,1.0717,1.0717,1.0717,1.1372,1.2281,1.3709,1.7087,1.8896,1.9546,2.0716,2.1109,2.1109,0.0,0.0,0.0,0.0,0.0,0.0,0.0,0.0,0.0,0.0,0.0,0.0,0.0,0.0,0.0,0.0,0.0,0.0,0.0,-0.6999,-0.8278,-1.0486,-1.14,-1.3089,-1.5736,-1.8432,-2.0092,-2.0719,-1.9116,-1.6999,-1.4401,-1.184,-0.8871,-0.5557,-0.2326,-0.1092,-0.1497,-0.2418,-0.336,-0.4242,-0.4645,-0.503,0.0,0.0,0.0,0.0,0.0,0.0,0.0,0.0,-0.9389,-1.0098,-0.9981,-1.0276,-1.0423,-0.9196,-0.8485,-0.7963,-0.7261,-0.7166,-0.7276,-0.7652,-0.7242,-0.6849,-0.7358,-0.7038,-0.681,-0.7156,-0.7224,-0.7292,-0.7536,-0.7875,-0.8147,-0.8255,-0.826,-0.7947,-0.7186,-0.7768,0.0,0.0,0.0,0.0,0.0,0.0,0.0,0.0,0.0,0.0,0.0,0.4539,0.8007,1.0035,0.5745,0.4478,0.6656,0.7921,0.9087,1.0161,1.029,1.0399,1.0493,1.0649,1.0717,1.0717,1.0717,1.0717,1.0717,1.0717,1.1762,1.3578,1.656,1.7988,1.8768,2.0462,2.1109,2.1109,0.0,0.0,0.0,0.0,0.0,0.0,0.0,0.0,0.0,0.0,0.0,0.0,0.0,0.0,0.0,0.0,0.0,0.0,-0.6488,-0.7255,-0.8118,-0.9063,-1.0518,-1.2236,-1.422,-1.7865,-1.9408,-1.8731,-1.7726,-1.5878,-1.336,-1.1873,-0.9079,-0.5093,-0.1585,0.0,-0.0133,-0.2185,-0.295,-0.2769,-0.3642,-0.3993,-0.4091,0.0,0.0,0.0,0.0,0.0,0.0,0.0,-0.8401,-0.8657,-1.0112,-1.0103,-0.9344,-0.854,-0.7986,-0.7478,-0.6462,-0.6406,-0.6555,-0.627,-0.6284,-0.6494,-0.6659,-0.6722,-0.6956,-0.7319,-0.7739,-0.7993,-0.8018,-0.8167,-0.8275,-0.8275,-0.8434,-0.7533,-0.4466,-0.6774,0.0,0.0,0.0,0.0,0.0,0.0,0.0,0.0,0.0,0.0,0.0,0.0,0.3205,1.0419,0.366,0.0,0.0,0.3616,0.7093,1.0452,1.0439,1.0493,1.05,1.0649,1.0717,1.0717,1.0717,1.0717,1.0717,1.0717,1.1762,1.3456,1.5135,1.6947,1.864,2.0462,2.1109,2.1109,0.0,0.0,0.0,0.0,0.0,0.0,0.0,0.0,0.0,0.0,0.0,0.0,0.0,0.0,0.0,0.0,0.0,0.0,-0.6457,-0.673,-0.7351,-0.8479,-0.9679,-1.0676,-1.1469,-1.3748,-1.6478,-1.9643,-1.7213,-1.4542,-1.1685,-0.9395,-0.646,-0.3011,-0.0949,0.0,-0.0081,-0.1294,-0.2323,-0.3145,-0.3566,-0.3872,-0.4182,0.0,0.0,0.0,0.0,0.0,0.0,0.0,0.0,0.0,-0.8984,-0.9463,-0.9536,-0.8562,-0.8055,-0.7617,-0.6627,-0.6339,-0.6299,-0.6085,-0.6485,-0.6901,-0.6824,-0.6946,-0.7177,-0.774,-0.8011,-0.8261,-0.8194,-0.8241,-0.8336,-0.8547,-0.8575,-0.758,-0.4764,0.0,0.0,0.0,0.0,0.0,0.0,0.0,0.0,0.0,0.0,0.0,0.0,0.0,0.101,0.3109,0.1118,0.0,0.0,0.3548,0.7212,1.0637,1.0602,1.0649,1.0656,1.0697,1.0717,1.0717,1.0717,1.0717,1.0717,1.0717,1.0982,1.163,1.3456,1.5135,1.6818,1.864,2.0068,2.1109,0.0,0.0,0.0,0.0,0.0,0.0,0.0,0.0,-0.4178,-0.4648,-0.466,-0.4788,0.0,0.0,0.0,-0.5309,-0.5435,-0.5734,-0.6213,-0.6427,-0.698,-0.8039,-0.8849,-0.9895,-1.1262,-1.2541,-1.4501,-1.7238,-1.5115,-1.3129,-1.1115,-0.9439,-0.6846,-0.3392,-0.1015,0.0,-0.0046,-0.1073,-0.2245,-0.3419,-0.3558,-0.3706,-0.3868,0.0,0.0,0.0,0.0,0.0,0.0,0.0,0.0,0.0,-0.7791,-0.8342,-0.8651,-0.7623,-0.7388,-0.7327,-0.6368,-0.6154,-0.6242,-0.6397,-0.669,-0.7034,-0.7305,-0.7387,-0.7529,-0.795,-0.816,-0.8269,-0.8269,-0.8364,-0.8506,-0.8682,-0.8689,-0.7662,0.0,0.0,0.0,0.0,0.0,0.0,0.0,0.0,0.0,0.0,0.0,0.0,0.0,0.0,0.0,0.0,0.0,0.0,0.0,0.2183,0.5732,1.0713,1.0683,1.0731,1.0717,1.0717,1.0717,1.0717,1.0717,1.0717,1.0717,1.0717,1.0717,1.085,1.2676,1.4362,1.6172,1.7859,1.9546,2.1109,0.0,0.0,0.0,0.0,0.0,0.0,0.0,-0.3364,-0.3896,-0.3928,-0.4242,-0.45,0.0,0.0,0.0,-0.5246,-0.5609,-0.5859,-0.589,-0.6244,-0.6808,-0.767,-0.8117,-0.9613,-1.2406,-1.2933,-1.29,-1.2462,-1.22,-1.1822,-1.1383,-1.1255,-0.9275,-0.5785,-0.2125,-0.03,-0.011,-0.1375,-0.2562,-0.3619,-0.3605,-0.3466,-0.3331,-0.379,0.0,0.0,0.0,0.0,0.0,0.0,0.0,0.0,-0.6599,-0.6951,-0.711,-0.6108,-0.632,-0.6687,-0.5881,-0.594,-0.6396,-0.6959,-0.6953,-0.7021,-0.7848,-0.7943,-0.7896,-0.8052,-0.818,-0.8282,-0.8303,-0.8526,-0.8716,-0.873,-0.8776,0.0,0.0,0.0,0.0,0.0,0.0,0.0,0.0,0.0,0.0,0.0,0.0,0.0,0.0,0.0,0.0,0.0,0.0,0.0,0.0,0.0389,0.3811,1.0195,1.0565,1.0738,1.0717,1.0717,1.0717,1.0717,1.0717,1.0717,1.0717,1.0717,1.0717,1.085,1.2413,1.4232,1.6043,1.7731,1.9419,2.1109,0.0,0.0,0.0,0.0,0.0,0.0,-0.2447,-0.2852,-0.3109,-0.3397,-0.3519,-0.3723,-0.4091,-0.4511,0.0,-0.4768,-0.5182,-0.5547,-0.589,-0.5983,-0.634,-0.7082,-0.7968,-0.8963,-1.0056,-0.9783,-0.9485,-0.9041,-1.1558,-1.225,-1.1248,-1.1584,-1.1061,-0.9668,-0.5774,-0.2486,-0.0101,-0.1939,-0.3066,-0.3588,-0.3489,-0.331,-0.3181,-0.3426,-0.3467,0.0,0.0,0.0,0.0,0.0,0.0,0.0,-0.5613,-0.6142,-0.6533,-0.6038,-0.6177,-0.6422,-0.6026,-0.6135,-0.6349,-0.6709,-0.719,-0.7651,-0.797,-0.8106,-0.8214,-0.8357,-0.8323,-0.8343,-0.8574,-0.8669,-0.875,-0.8872,0.0,0.0,0.0,0.0,0.0,0.0,0.0,0.0,0.0,0.0,0.0,0.0,0.0,0.0,0.0,0.0,0.0,0.0,0.0,0.0,0.0,0.2881,0.5017,0.0,0.9371,1.0724,1.0717,1.0717,1.0717,1.0717,1.0717,1.0717,1.0717,1.0717,1.0717,1.0717,1.1108,1.3193,1.5913,1.6302,1.8384,2.1109,0.0,0.0,0.0,0.0,0.0,0.0,0.0,0.0,-0.2786,-0.297,-0.2995,-0.3192,-0.3626,-0.421,0.0,0.0,-0.5023,-0.5404,-0.5609,-0.5609,-0.6003,-0.6922,-0.818,-0.8765,-0.8476,-0.8425,-0.812,-0.7558,-0.9777,-1.0944,-1.1053,-1.1466,-1.1459,-1.0989,-0.8314,-0.5296,-0.2228,-0.305,-0.3494,-0.3612,-0.3832,-0.3749,-0.3453,-0.3534,-0.3396,-0.3117,-0.3257,0.0,0.0,0.0,0.0,0.0,0.0,0.0,-0.5225,-0.5208,-0.5449,-0.5827,-0.5927,-0.631,-0.6681,-0.7122,-0.7577,-0.7943,-0.8024,-0.816,-0.8309,-0.8452,-0.8479,-0.8526,-0.8682,-0.8771,-0.8852,0.0,0.0,0.0,0.0,0.0,0.0,0.0,0.0,0.0,0.0,0.0,0.0,0.0,0.0,0.0,0.0,0.0,0.0,0.0,0.0,0.0,0.0,0.5308,0.7892,0.7932,0.9819,1.0744,1.0717,1.0717,1.0717,1.0717,1.0717,1.0717,1.0717,1.0717,1.0717,1.0717,1.0717,1.28,1.5913,1.5913,1.8116,2.1136,0.0,0.0,0.0,0.0,0.0,0.0,0.0,0.0,0.0,-0.248,-0.2606,-0.2838,-0.3167,-0.3983,-0.45,0.0,0.0,0.0,-0.5309,-0.5363,-0.5851,-0.6975,-0.8182,-0.8472,-0.7699,-0.7808,-0.7629,-0.7134,-0.7835,-0.911,-1.0896,-1.149,-1.164,-1.127,-1.0064,-0.7742,-0.479,-0.4062,-0.3674,-0.3636,-0.4082,-0.4029,-0.3676,-0.3676,-0.3337,-0.2891,-0.3115,-0.3192,-0.3266,-0.3771,0.0,0.0,0.0,0.0,-0.3985,-0.4227,-0.4603,-0.5068,-0.5684,-0.6366,-0.7041,-0.7658,-0.7929,-0.8045,-0.8072,-0.8201,-0.835,-0.8492,-0.8621,-0.8716,-0.8743,-0.8859,0.0,0.0,0.0,0.0,0.0,0.0,0.0,0.0,0.0,0.0,0.0,0.0,0.0,0.0,0.0,0.0,0.0,0.0,0.0,0.0,0.0,0.0,0.0,0.5904,0.9472,1.0678,1.0672,1.0638,1.0724,1.0724,1.0717,1.0717,1.0717,1.0717,1.0717,1.0717,1.0717,1.0717,1.0717,1.2676,1.5524,1.5784,1.7859,2.0755,0.0,0.0,0.0,0.0,0.0,0.0,0.0,0.0,0.0,0.0,-0.2181,-0.2726,-0.276,-0.3569,-0.4091,-0.4091,-0.4832,-0.5309,-0.5309,0.0,0.0,-0.7134,-0.7035,-0.7284,-0.8012,-0.6991,-0.6768,-0.7357,-0.6963,-0.8192,-1.0937,-1.2549,-1.2931,-1.2182,-1.0531,-0.8514,-0.6105,-0.4091,-0.3376,-0.3591,-0.349,-0.3343,-0.3208,-0.3208,-0.3005,-0.274,-0.2753,-0.2779,-0.2867,-0.3456,-0.3647,0.0,0.0,0.0,-0.3673,-0.383,-0.4099,-0.446,-0.5031,-0.5989,-0.6905,-0.7631,-0.7929,-0.8072,-0.8208,-0.835,-0.8499,-0.8648,-0.8696,-0.875,-0.8886,-0.894,0.0,0.0,0.0,0.0,0.0,0.0,0.0,0.0,0.0,0.0,0.0,0.0,0.0,0.0,0.0,0.0,0.0,0.0,0.0,0.0,0.0,0.0,0.0,0.094,0.4571,1.0699,1.0652,1.0758,1.0751,1.0731,1.0717,1.0717,1.0717,1.0717,1.0717,1.0717,1.0717,1.0717,1.0717,1.1894,1.384,1.5394,1.7205,1.906,0.0,0.0,0.0,0.0,0.0,0.0,0.0,0.0,0.0,0.0,0.0,-0.1579,-0.2593,-0.3043,-0.3397,-0.3709,-0.4253,-0.4672,-0.4896,-0.5411,-0.5896,-0.6348,-0.6371,-0.6484,-0.6743,-0.6219,-0.6228,-0.6918,-0.6401,-0.7641,-1.0538,-1.1333,-1.1938,-1.2314,-1.0073,-0.7939,-0.5863,-0.4016,-0.3378,-0.3575,-0.3507,-0.3359,-0.3233,-0.3216,-0.2998,-0.2706,-0.2704,-0.2686,-0.2733,-0.3103,-0.319,-0.319,-0.319,0.0,0.0,0.0,-0.35,-0.3961,-0.5272,-0.6165,-0.7007,-0.7753,-0.7991,-0.8079,-0.8235,-0.8377,-0.8526,-0.8676,-0.8777,-0.8866,0.0,0.0,0.0,0.0,0.0,0.0,0.0,0.0,0.0,0.0,0.0,0.0,0.0,0.0,0.0,0.0,0.0,0.0,0.0,0.0,0.0,0.0,0.0,0.0,0.0,0.0,0.1613,0.4705,0.6711,0.8723,1.0758,1.0833,1.0812,1.0717,1.0717,1.0717,1.0717,1.0717,1.0717,1.0717,1.0717,1.1762,1.3456,1.4101,1.6172,1.8699,0.0,0.0,0.0,0.0,0.0,0.0,0.0,0.0,0.0,0.0,0.0,-0.0604,-0.2186,0.0,0.0,0.0,-0.3667,-0.4081,-0.4564,-0.5016,-0.5362,-0.5598,-0.5707,-0.572,-0.5611,-0.5598,-0.5837,-0.6336,-0.6027,-0.7342,-1.0228,-1.0011,-1.0855,-1.2361,-0.9757,-0.7549,-0.5712,-0.4055,-0.352,-0.369,-0.3514,-0.3345,-0.3197,-0.2881,-0.2618,-0.2377,-0.2623,-0.27,-0.273,-0.2874,-0.2937,-0.2957,-0.2917,-0.2937,0.0,0.0,0.0,-0.3557,-0.5291,-0.6078,-0.6641,-0.7577,-0.7868,-0.7997,-0.8262,-0.8438,-0.8581,-0.8737,-0.8859,-0.885,0.0,0.0,0.0,0.0,0.0,0.0,0.0,0.0,0.0,0.0,0.0,0.0,0.0,0.0,0.0,0.0,0.0,0.0,0.0,0.0,0.0,0.0,0.0,0.0,0.0,0.0,0.0,0.0,0.2682,0.5897,0.9407,1.0502,1.0907,1.0778,1.0778,1.0778,1.0772,1.0738,1.0717,1.0717,1.0717,1.1505,1.2668,1.3193,1.5014,1.7282,0.0,0.0,0.0,0.0,0.0,0.0,0.0,0.0,0.0,0.0,0.0,-0.0335,-0.1278,-0.1364,-0.1753,-0.2666,-0.3216,-0.3834,-0.4564,-0.4296,-0.4458,-0.5272,-0.4921,0.0,-0.5304,-0.5336,-0.5512,-0.5937,-0.5776,-0.7253,-1.0172,-0.9535,-1.0502,-1.258,-1.0,-0.7948,-0.624,-0.4377,-0.3737,-0.3932,-0.3274,-0.3044,-0.2896,-0.1806,-0.1378,-0.1467,-0.239,-0.2695,-0.2735,-0.2857,-0.2998,-0.3086,-0.2951,-0.2998,-0.3052,0.0,0.0,0.0,-0.4606,-0.4999,-0.5372,-0.6824,-0.7407,-0.7773,-0.8343,-0.8587,-0.8743,-0.8893,-0.8933,-0.8883,0.0,0.0,0.0,0.0,0.0,0.0,0.0,0.0,0.0,0.0,0.0,0.0,0.0,0.0,0.0,0.0,0.0,0.0,0.0,0.0,0.0,0.0,0.0,0.0,0.0,0.0,0.0,0.0,0.0134,0.2144,0.577,0.9402,1.0968,1.0934,1.0934,1.0934,1.0928,1.0778,1.0717,1.0717,1.0717,1.0717,1.0982,1.2668,1.3456,1.3892,0.0,0.0,0.0,0.0,0.0,0.0,0.0,0.0,0.0,0.0,0.0,0.0,0.0,-0.0469,-0.1068,-0.256,-0.2871,-0.3216,-0.3714,-0.3918,-0.4156,-0.4447,-0.4318,-0.4285,-0.4479,-0.4736,-0.5042,-0.5456,-0.5435,-0.6711,-0.9124,-0.8839,-0.9534,-1.0919,-0.8927,-0.7677,-0.6952,-0.4176,-0.3174,-0.3367,-0.2971,-0.2432,-0.1912,-0.2103,-0.1495,-0.0512,-0.0845,-0.1694,-0.2704,-0.2751,-0.2794,-0.2895,-0.3073,-0.31,-0.298,-0.2774,-0.296,-0.3364,-0.4131,-0.4694,-0.5298,-0.6322,-0.7021,-0.7584,-0.8085,-0.8465,-0.8757,-0.8906,-0.9015,0.0,0.0,0.0,0.0,0.0,0.0,0.0,0.0,0.0,0.0,0.0,0.0,0.0,0.0,0.0,0.0,0.0,0.0,0.0,0.0,0.0,0.0,0.0,0.0,0.0,0.0,0.0,0.0,0.0,0.0,0.1879,0.5503,0.9365,1.1131,1.109,1.1192,1.1124,1.0948,1.0887,1.0806,1.0717,1.0717,1.0717,1.0731,1.1488,1.2453,1.3553,0.0,0.0,0.0,0.0,0.0,0.3003,0.276,0.2693,0.2593,0.2259,0.0,0.0,0.0,0.0,-0.047,-0.1688,-0.2347,-0.2805,-0.3093,-0.3397,-0.37,-0.3993,-0.3853,-0.3821,-0.3993,-0.4403,-0.4724,-0.4998,-0.5306,-0.632,-0.7979,-0.8174,-0.8844,-0.9867,-0.7913,-0.7213,-0.7318,-0.4581,-0.345,-0.3519,-0.2918,-0.2313,-0.1755,-0.181,-0.107,0.0,0.0,-0.0954,-0.224,-0.224,-0.2247,-0.2258,-0.2544,-0.2753,-0.2883,-0.2734,-0.2967,-0.3317,-0.3622,-0.4192,-0.4897,-0.5806,-0.6444,-0.7068,-0.7923,-0.8309,-0.8574,-0.8872,-0.9055,0.0,0.0,0.0,0.0,0.0,0.0,0.0,0.0,0.0,0.0,0.0,0.0,0.0,0.0,0.0,0.0,0.0,0.0,0.0,0.0,0.0,0.0,0.0,0.0,0.0,0.0,0.0,0.0,0.0,0.0,0.1881,0.5503,0.9371,1.1027,1.1172,1.1321,1.128,1.109,1.0989,1.0887,1.0792,1.0738,1.0751,1.0812,1.0914,1.1646,1.2799,0.0,0.0,0.0,0.0,0.3307,0.2746,0.2712,0.2712,0.238,0.1471,0.0,0.0,0.0,0.0,0.0,0.0,-0.1621,-0.2666,-0.2699,-0.2706,-0.3076,-0.3928,-0.3528,-0.3495,-0.3961,-0.4339,-0.4564,-0.4564,-0.5337,-0.6109,-0.7014,-0.757,-0.8524,-0.9566,-0.7241,-0.6691,-0.7316,-0.5533,-0.4656,-0.435,-0.3194,-0.27,-0.2514,-0.0674,0.0,0.0,0.0,-0.0554,-0.1272,-0.1266,-0.1259,-0.1247,-0.1272,-0.1924,-0.2669,-0.2673,-0.2843,-0.3024,0.0,0.0,0.0,-0.5257,-0.5671,-0.6213,-0.7834,-0.8099,-0.818,-0.8784,-0.9028,0.0,0.0,0.0,0.0,0.0,0.0,0.0,0.0,0.0,0.0,0.0,0.0,0.0,0.0,0.0,0.0,0.0,0.0,0.0,0.0,0.0,0.0,0.0,0.0,0.0,0.0,0.0,0.0,0.0,0.0,0.1881,0.5366,0.9008,1.0926,1.1165,1.1321,1.1396,1.1369,1.1084,1.0962,1.0941,1.0792,1.0826,1.0955,1.0962,1.105,1.1192,0.0,0.0,0.0,0.4123,0.3798,0.3438,0.2779,0.2686,0.2593,0.0,0.0,0.0,0.0034,0.0,0.0,0.0,-0.1052,-0.197,-0.2666,-0.2686,-0.2812,-0.3043,-0.2944,-0.2944,-0.3043,-0.3462,-0.3821,-0.4156,-0.4898,-0.5659,-0.6451,-0.7001,-0.7682,-0.8353,-0.6829,-0.6329,-0.6411,-0.4216,-0.3411,-0.3591,-0.2934,-0.2688,-0.2485,-0.067,0.0,0.0,0.0,-0.0159,-0.0376,-0.0371,-0.0339,-0.0351,-0.0381,-0.099,-0.1675,-0.1684,-0.2427,-0.3269,-0.3434,0.0,0.0,0.0,0.0,0.0,-0.6471,-0.6953,-0.7434,-0.8147,-0.8289,0.0,0.0,0.0,0.0,0.0,0.0,0.0,0.0,0.0,0.0,0.0,0.0,0.0,0.0,0.0,0.0,0.0,0.0,0.0,0.0,0.0,0.0,0.0,0.0,0.0,0.0,0.0,0.0,0.0,0.0,0.0538,0.1744,0.7927,1.077,1.0906,1.1307,1.1416,1.1261,1.1307,1.1206,1.1097,1.1056,1.107,1.1118,1.1226,1.1294,1.1348,0.0,0.0,0.5017,0.4205,0.4,0.3673,0.2969,0.2869,0.2692,0.0,0.0,0.0,0.0038,0.0,0.0,0.0,-0.0927,-0.1862,-0.2634,-0.2747,-0.2747,-0.2719,-0.2712,-0.2713,-0.2774,-0.3141,-0.3563,-0.4091,-0.4638,-0.5206,-0.5833,-0.6386,-0.6772,-0.6842,-0.6046,-0.5591,-0.5356,-0.358,-0.2818,-0.275,-0.1916,-0.1593,-0.1444,-0.0386,0.0,0.0,0.0,0.0,0.0,0.0,0.0,0.0,0.0,-0.0329,-0.0762,-0.0753,-0.1294,-0.2203,-0.3488,-0.4004,-0.4244,-0.4463,0.0,0.0,-0.6424,-0.681,-0.7244,0.0,-0.8635,0.0,0.0,0.0,0.0,0.0,0.0,0.0,0.0,0.0,0.0,0.0,0.0,0.0,0.0,0.0,0.0,0.0,0.0,0.0,0.0,0.0,0.0,0.0,0.0,0.0,0.0,0.0,0.0,0.0,0.0,0.0,0.0134,0.6002,0.8654,0.8638,1.0582,1.1436,1.1308,0.9746,0.9971,1.1406,1.1212,1.1212,1.1267,1.1355,1.143,1.1497,0.0,0.0,0.499,0.4332,0.4075,0.377,0.3274,0.3155,0.2719,0.0,0.1297,0.0845,0.0093,0.0,0.0,0.0,-0.0987,-0.1935,-0.275,-0.2864,-0.2876,-0.2734,-0.2713,-0.2774,-0.293,-0.3151,-0.3568,-0.4202,-0.4471,-0.4861,-0.5344,-0.5927,-0.5948,-0.543,-0.5033,-0.4625,-0.4209,-0.3407,-0.2845,-0.2288,-0.0671,0.0,0.0,0.0,0.0,0.0,0.0,0.0,0.0,0.0,0.0,0.0,0.0,0.0,0.0,0.0,0.0,-0.0542,-0.3067,-0.4161,-0.4648,-0.4841,-0.4701,0.0,-0.6837,-0.6993,-0.7183,0.0,0.0,0.0,0.0,0.0,0.0,0.0,0.0,0.0,0.0,0.0,0.0,0.0,0.0,0.0,0.0,0.0,0.0,0.0,0.0,0.0,0.0,0.0,0.0,0.0,0.0,0.0,0.0,0.0,0.0,0.0,0.0,0.0,0.0134,0.3528,0.5461,0.6293,0.9713,1.143,1.118,0.7814,0.8232,1.1005,1.1174,1.1328,1.1416,1.1416,1.1504,1.1619,0.6013,0.5568,0.5065,0.4472,0.4553,0.4466,0.3778,0.3436,0.306,0.2494,0.1138,0.021,0.0,0.0,0.0,0.0,-0.0195,-0.124,-0.331,-0.3138,-0.2965,-0.2933,-0.2894,-0.293,-0.308,-0.301,-0.3365,-0.4202,-0.4474,-0.4955,-0.5638,-0.6021,-0.5844,-0.5168,-0.4708,-0.4131,-0.3526,-0.3505,-0.3698,-0.3825,-0.1096,0.0,0.0,0.0,0.0,0.0,0.0,0.0,0.0,0.0,0.0,0.0,0.0,0.0,0.0,0.0,0.0,-0.012,-0.0665,-0.2963,-0.5137,-0.4898,-0.4907,0.0,-0.506,-0.5379,-0.5861,0.0,-0.6977,-0.7368,0.0,0.0,0.0,0.0,0.0,0.0,0.0,0.0,0.0,0.0,0.0,0.0,0.0,0.0,0.0,0.0,0.0,0.0,0.0,0.0,0.0,0.0,0.0,0.0,0.0,0.0,0.0,0.0,0.0,0.0,0.0,0.0809,0.4456,1.0476,1.1054,1.1188,1.078,1.0587,0.9034,0.7234,1.0269,1.1579,1.1599,1.1586,1.1592,1.1619,0.6406,0.593,0.5479,0.5014,0.4976,0.4847,0.4428,0.4193,0.4002,0.3622,0.2298,0.1306,0.1104,0.0419,0.0,0.0,0.0,-0.0505,-0.1731,-0.2372,-0.2817,-0.3141,-0.3059,-0.312,-0.3344,-0.3127,-0.3391,-0.4213,-0.4202,-0.4566,-0.5293,-0.5383,-0.5273,-0.4998,-0.4431,-0.396,-0.3555,-0.3482,-0.3729,-0.4046,-0.3084,0.0,0.0,0.0,0.0,0.0,0.0,0.0,0.0,0.0,0.0,0.0,0.0,0.0,0.0,0.0,0.0,0.0,0.0,-0.1304,-0.3126,-0.4965,-0.5171,0.0,0.0,-0.5467,-0.5752,-0.6722,-0.6894,-0.7125,-0.7896,0.0,0.0,0.0,0.0,0.0,0.0,0.0,0.0,0.0,0.0,0.0,0.0,0.0,0.0,0.0,0.0,0.0,0.0,0.0,0.0,0.0,0.0,0.0,0.0,0.0,0.0,0.0,0.0,0.0,0.0,0.0,0.2174,0.6002,0.9846,1.1127,1.0722,1.1378,0.8193,0.3346,0.7123,0.9891,1.1653,1.1626,1.1619,1.1619,0.6967,0.6282,0.5804,0.549,0.5293,0.5095,0.4896,0.4925,0.4849,0.4683,0.3929,0.327,0.2959,0.1697,0.0663,0.0056,0.0,0.0,0.0,-0.1216,-0.2425,-0.3572,-0.3356,-0.3337,-0.3704,-0.3351,-0.3486,-0.4172,-0.3898,-0.415,-0.4828,-0.4656,-0.4636,-0.4702,-0.4332,-0.4014,-0.3744,-0.3615,-0.3799,-0.4273,-0.5113,-0.3705,-0.1051,-0.0265,0.0,0.0,0.0,0.0,0.0,0.0,0.0,0.0,0.0,0.0,0.0,0.0,0.0,0.0,0.0,0.0,-0.0755,-0.4023,-0.4912,-0.5193,0.0,0.0,0.0,-0.7054,-0.6939,-0.6817,-0.7448,0.0,0.0,0.0,0.0,0.0,0.0,-0.2397,0.0,0.0,0.0,0.0,0.0,0.0,0.0,0.0,0.0,0.0,0.0,0.0,0.0,0.0,0.0,0.0,0.0,0.0,0.0,0.0,0.0,0.0,0.0,0.0,0.0,0.0413,0.6637,0.9034,0.8647,0.9205,0.5706,0.0292,0.3488,0.7557,1.166,1.1633,1.1619,1.1619,0.6918,0.6058,0.5457,0.5217,0.5225,0.5128,0.4766,0.4938,0.5155,0.5304,0.5658,0.5748,0.5414,0.452,0.2935,0.0263,0.0,0.0,0.0,-0.0155,-0.16,-0.4562,-0.395,-0.3735,-0.4107,-0.3571,-0.3544,-0.4028,-0.3873,-0.4071,-0.4627,-0.45,-0.4306,-0.413,-0.4599,-0.4361,-0.3636,-0.4175,-0.4816,-0.5589,-0.5668,-0.5484,0.0,-0.1314,0.0,0.0,0.0,0.0,0.0,0.0,0.0,0.0,0.0,0.0,0.0,0.0,0.0,0.0,0.0,0.0,-0.0075,-0.0601,-0.319,-0.5467,-0.5067,0.0,-0.5399,-0.5426,0.0,-0.5603,-0.5827,0.0,0.0,0.0,0.0,0.0,-0.461,-0.5505,-0.5643,-0.373,0.0,0.0,0.0,0.0,0.0,0.0,0.0,0.0,0.0,0.0,0.0,0.0,0.0,0.0,0.0,0.0,0.0,0.0,0.0,0.0,0.0,0.0,0.0,0.0,0.0978,0.1274,0.1289,0.1307,0.073,0.0,0.0436,0.5087,1.1549,1.166,1.1633,1.1619,0.7086,0.6311,0.5857,0.5634,0.5303,0.5058,0.5116,0.5406,0.5677,0.5745,0.5947,0.6057,0.5969,0.5538,0.4147,0.1511,0.0,0.0,0.0,0.0,-0.0632,-0.2012,-0.3375,-0.4026,-0.3856,-0.3612,-0.3566,-0.3781,-0.3523,-0.3603,-0.4012,-0.3688,-0.3823,-0.4414,-0.4489,-0.4535,-0.4676,-0.4694,-0.4891,-0.5182,0.0,0.0,0.0,-0.3089,-0.1222,0.0,0.0,0.0,0.0,0.0,0.0,0.0,0.0,0.0,0.0,0.0,0.0,0.0,0.0,0.0,0.0,0.0,-0.1215,-0.2862,-0.4711,-0.5165,-0.5255,-0.5338,0.0,0.0,0.0,0.0,0.0,0.0,-0.6059,-0.6092,-0.5752,0.0,-0.6089,0.0,0.0,0.0,0.0,0.0,0.0,0.0,0.0,0.0,0.0,0.0,0.0,0.0,0.0,0.0,0.0,0.0,0.0,0.0,0.0,0.0,0.0,0.0,0.0,0.0,0.0,0.0,0.0,0.0,0.0,0.0,0.0,0.2037,0.538,0.9896,1.1647,1.1633,0.7224,0.6487,0.5967,0.5877,0.5258,0.4904,0.5243,0.5576,0.5827,0.5949,0.5969,0.6017,0.6139,0.6071,0.505,0.2687,0.0946,0.0,0.0,0.0,0.0,0.0,-0.2116,-0.3464,-0.3956,-0.3724,-0.3561,-0.352,-0.3256,-0.3218,-0.3468,-0.3068,-0.3396,-0.4321,-0.4358,-0.4755,-0.5298,-0.5291,-0.5338,-0.5447,-0.5204,-0.5742,-0.6428,-0.3699,-0.1565,0.0,0.0,0.0,0.0,0.0,0.0,0.0,0.0,0.0,0.0,0.0,0.0,0.0,0.0,0.0,0.0,0.0,0.0,-0.0724,-0.3338,-0.4652,-0.5402,-0.5576,-0.5433,0.0,0.0,0.0,-0.5549,-0.5766,0.0,-0.6179,-0.6444,-0.6616,-0.6205,-0.4721,0.0,0.0,0.0,0.0,0.0,0.0,0.0,0.0,0.0,0.0,0.0,0.0,0.0,0.0,0.0,0.0,0.0,0.0,0.0,0.0,0.0,0.0,0.0,0.0,0.0,0.0,0.0,0.0,0.0,0.0,0.0,0.0,0.0872,0.8734,1.1667,1.1653,0.7224,0.6213,0.5523,0.5523,0.4943,0.4626,0.5074,0.5148,0.5318,0.5752,0.0,0.0,0.0,0.0,0.0,0.0,0.0,0.0,0.0,0.0,0.0,0.0,-0.0111,-0.1608,-0.4783,-0.4043,-0.3514,-0.3288,-0.3162,-0.312,-0.3113,-0.2971,-0.3073,-0.3503,-0.4443,-0.4986,-0.5182,-0.5908,-0.6634,-0.7265,-0.6734,-0.7073,-0.7372,0.0,-0.0095,0.0,0.0,0.0,0.0,0.0,0.0,0.0,0.0,0.0,0.0,0.0,0.0,0.0,0.0,0.0,0.0,0.0,0.0,-0.0,-0.0126,-0.3156,-0.5942,-0.5741,-0.6009,-0.6132,-0.5847,-0.5793,-0.5793,-0.58,-0.6071,0.0,0.0,-0.6546,-0.678,-0.6986,-0.7265,-0.7855,0.0,0.0,0.0,0.0,0.0,0.0,0.0,0.0,0.0,0.0,0.0,0.0,0.0,0.0,0.0,0.0,0.0,0.0,0.0,0.0,0.0,0.0,0.0,0.0,0.0,0.0,0.0,0.0,0.0,0.0,0.0875,0.8775,1.1556,1.1653,0.7527,0.6394,0.5591,0.5395,0.4702,0.4321,0.4769,0.5176,0.5521,0.0,0.0,0.0,0.0,0.662,0.6482,0.0,0.0,0.0,0.0,0.0,0.0,0.0,0.0,-0.0508,0.0,-0.2142,-0.2784,-0.351,-0.3334,-0.3173,-0.305,-0.3035,-0.3208,-0.3591,-0.4497,-0.5162,-0.561,-0.5943,-0.6292,-0.6509,0.0,-0.594,-0.7459,0.0,0.0,0.0,0.0,0.0,0.0,0.0,0.0,0.0,0.0,0.0,0.0,0.0,0.0,0.0,0.0,0.0,0.0,0.0,0.0,0.0,0.0,-0.243,-0.4972,-0.604,-0.6331,-0.6166,-0.5861,-0.58,-0.5867,-0.6071,-0.6105,-0.6146,0.0,-0.6349,-0.6519,-0.6817,-0.7323,-0.764,-0.7699,-0.6648,0.0,-0.0245,0.0,0.0,0.0,0.0,0.0,0.0,0.0,0.0,0.0,0.0,0.0,0.0,0.0,0.0,0.0,0.0,0.0,0.0,0.0,0.0,0.0,0.0,0.0,0.0,0.0,0.0,0.0292,0.291,0.714,1.1563,0.7334,0.6293,0.5565,0.554,0.48,0.4314,0.4714,0.5189,0.0,0.0,0.5868,0.0,0.6471,0.0,0.668,0.0,0.2754,0.0,0.0,0.0,0.0,0.0,0.0,0.0,0.0,-0.0752,-0.1546,-0.2305,-0.2605,-0.293,-0.3208,-0.3115,-0.3288,-0.369,-0.4373,-0.5067,-0.584,-0.6093,-0.6525,-0.6764,0.0,-0.5119,0.0,0.0,0.0,0.0,0.0,0.0,0.0,0.0,0.0,0.0,0.0,0.0,0.0,0.0,0.0,0.0,0.0,0.0,0.0,0.0,0.0,0.0,0.0,0.0,-0.3488,-0.6738,-0.6909,-0.6458,-0.6573,-0.6288,-0.6159,-0.6519,-0.6356,-0.6186,0.0,-0.6227,-0.6349,-0.6593,-0.7143,-0.7321,-0.6905,-0.7617,-0.6521,-0.2812,-0.0961,0.0,0.0,-0.2434,-0.377,-0.377,-0.1345,0.0,0.0,0.0,0.0,0.0,0.0,0.0,0.0,0.0,0.0,0.0,0.0,0.0,0.0,0.0,0.0,0.0,0.0,0.0,0.0,0.0,0.4075,0.9786,0.6726,0.5791,0.5445,0.5838,0.5144,0.4551,0.0,0.0,0.5467,0.0,0.5808,0.5989,0.6268,0.6292,0.6427,0.6708,0.2645,0.0,0.0,0.0,0.0,0.0,0.0,0.0,0.0,0.0,0.0,-0.0,-0.1138,-0.2284,-0.3417,-0.3239,-0.3353,-0.3758,-0.4081,-0.4785,-0.5847,-0.6361,-0.7002,-0.7672,-0.7912,-0.4802,0.0,0.0,0.0,0.0,0.0,0.0,0.0,0.0,0.0,0.0,0.0,0.0,0.0,0.0,0.0,0.0,0.0,0.0,0.0,0.0,0.0,0.0,0.0,0.0,-0.1655,-0.7548,-0.7811,-0.7162,-0.7862,-0.719,-0.6647,-0.7041,-0.6742,-0.6363,-0.6078,-0.6159,-0.6308,-0.6464,-0.6763,-0.6949,-0.7015,-0.6713,-0.6671,-0.688,-0.2787,-0.0341,-0.0534,-0.6857,-1.0525,-1.0705,-0.4031,-0.0403,-0.0,0.0,0.0,0.0,0.0,0.0,0.0,0.0,0.0,0.0,0.0,0.0,0.0,0.0,0.0,0.0,0.0,0.0,0.0,0.0,0.2328,0.6098,0.6829,0.5864,0.5233,0.4945,0.4487,0.4314,0.0,0.0,0.0,0.0,0.4461,0.4246,0.6072,0.6329,0.5074,0.2079,0.0693,0.0,0.0,0.0,0.0,0.0,0.0,0.0,0.0,0.0,0.0,-0.0,-0.0309,-0.0624,-0.0976,-0.2879,-0.3391,-0.2778,-0.3779,-0.4813,-0.5847,-0.6438,-0.4913,-0.2421,-0.6396,-0.4834,0.0,0.0,0.0,0.0,0.0,0.0,0.0,0.0,0.0,0.0,0.0,0.0,0.0,0.0,0.0,0.0,0.0,0.0,0.0,0.0,0.0,0.0,0.0,0.0,0.0,0.0,0.0,0.0,0.0,-0.7319,-0.7034,-0.6695,-0.6458,-0.6288,-0.6213,-0.6139,-0.6227,-0.66,-0.7007,-0.7027,-0.6589,-0.5218,-0.4357,-0.4111,-0.4475,-0.5579,-0.7776,-0.7212,-0.8028,-1.0658,-0.8912,-0.5406,-0.0,0.0,0.0,0.0,0.0,0.0,0.0,0.0,0.0,0.0,0.0,0.0,0.0,0.0,0.0,0.0,0.0,0.0,0.0,0.0,0.0583,0.2468,0.6894,0.6066,0.5437,0.521,0.0,0.0,0.504,0.0,0.0,0.4472,0.4288,0.0,0.3572,0.3568,0.2552,0.0176,0.0,0.0,0.0,0.0,0.0,0.0,0.0,0.0,0.0,0.0,0.0,0.0,0.0,0.0,-0.005,-0.2335,-0.3128,-0.258,-0.3813,-0.4743,-0.5507,-0.5519,-0.3395,-0.0296,-0.3245,-0.2657,0.0,0.0,0.0,0.0,0.0,0.0,0.0,0.0,0.0,0.0,0.0,0.0,0.0,0.0,0.0,0.0,0.0,0.0,0.0,0.0,0.0,0.0,0.0,0.0,-0.1007,0.0,-0.7913,-0.9675,0.0,0.0,-0.6802,-0.658,-0.6295,-0.6159,-0.6159,-0.6146,-0.6227,-0.6478,-0.6783,-0.6763,-0.6213,-0.5181,-0.4073,-0.2969,-0.5292,-0.752,-0.9672,-0.8088,-0.829,-1.0625,-1.0658,-0.8236,-0.3115,-0.1093,0.0,0.0,0.0,0.0,0.0,0.0,0.0,0.0,0.0,0.0,0.0,0.0,0.0,0.0,0.0,0.0,0.0,0.0,0.0,0.0581,0.6881,0.6304,0.5893,0.5868,0.0,0.0,0.0,0.5359,0.0,0.2914,0.0,0.409,0.0409,0.0595,0.0965,0.0896,0.0,0.0356,0.0,0.0,0.0,0.0,0.0,0.0,0.0,0.0,0.0,0.0,0.0,0.0,-0.005,-0.1776,-0.2566,-0.2647,-0.3884,-0.4723,-0.5132,-0.4653,-0.2712,0.0,0.0,0.0,0.0,0.0,0.0,0.0,0.0,0.0,0.0,0.0,0.0,0.0,0.0,0.0,0.0,0.0,0.0,0.0,0.0,0.0,0.0,0.0,0.0,0.0,0.0,0.0,-0.0975,-0.4674,-0.8172,-1.056,0.0,0.0,-0.6542,-0.6632,-0.6376,-0.624,-0.6335,-0.6383,-0.6417,-0.643,-0.6614,0.0,-0.6105,-0.5863,-0.4967,-0.2966,-0.5459,-0.7505,-0.8488,-0.9129,-0.9764,-1.0731,-1.0751,-0.9679,-0.7665,0.0,-0.0968,0.0,0.0,0.0,0.0,0.0,0.0,0.0,0.0,0.0,0.0,0.0,0.0,0.0,0.0,0.0,0.0,0.0,0.0,0.0,0.6593,0.6417,0.624,0.5253,0.5227,0.5386,0.5677,0.5312,0.4468,0.2918,0.1777,0.0839,0.0086,0.3466,0.5813,0.5847,0.4121,0.0,0.0,0.0,0.0,0.0,0.0,0.0,0.0,0.0,0.0,0.0,0.0,0.0,-0.005,-0.1353,-0.1939,-0.2041,-0.3431,-0.4534,-0.537,-0.6177,0.0,0.0,0.0,0.0,0.0,0.0,0.0,0.0,0.0,0.0,0.0,0.0,0.0,0.0,0.0,0.0,0.0,0.0,0.0,0.0,0.0,0.0,0.0,0.0,0.0,0.0,0.0,0.0,-0.1055,-0.4595,-0.8226,-1.0417,-0.947,0.0,0.0,0.0,-0.7272,-0.7353,-0.7963,-0.755,-0.7224,-0.7353,-0.7814,-0.7624,-0.6342,-0.5941,-0.5078,-0.3565,-0.5262,-0.7232,-0.8934,-0.8818,-0.934,-1.0683,-1.0744,0.0,0.0,0.0,-0.5873,0.0,0.0,0.0,0.0,0.0,0.0,0.0,0.0,0.0,0.0,0.0,0.0,0.0,0.0,0.0,0.0,0.0,0.0,0.0,0.789,0.7502,0.704,0.6092,0.5841,0.0,0.0,0.5739,0.0,0.3136,0.1224,0.093,0.3418,0.5692,0.7143,0.7115,0.6103,0.4928,0.3767,0.1342,0.0,0.0,0.0,0.0,0.0,0.0,0.0,0.0,0.0,0.0,-0.005,-0.1216,-0.1798,-0.1891,-0.3767,-0.4898,-0.5375,-0.4986,0.0,-0.3035,-0.0833,0.0,0.0,0.0,0.0,0.0,0.0,0.0,0.0,0.0,0.0,0.0,0.0,0.0,0.0,0.0,0.0,0.0,0.0,0.0,0.0,0.0,0.0,0.0,0.0,-0.2827,-0.552,-0.5366,-0.8205,-1.0306,-0.9054,-0.842,0.0,0.0,0.0,0.0,-0.8495,-0.8174,-0.7977,-0.8045,-0.8377,-0.8133,-0.6953,-0.684,-0.6391,-0.5389,-0.6009,-0.7284,-0.9195,-0.8816,-0.9252,-1.0677,0.0,0.0,0.0,0.0,0.0,-0.2844,-0.0851,0.0,0.0,0.0,0.0,0.0,0.0,0.0,0.0,0.0,0.0,0.0,0.0,0.0,0.0,0.0,0.0,0.0,0.8977,0.8472,0.7875,0.6838,0.6302,0.0,0.6118,0.6273,0.5633,0.3381,0.1329,0.1451,0.5219,0.6455,0.7121,0.7101,0.7094,0.7101,0.7121,0.3147,0.0816,0.0831,0.1398,0.1415,0.0862,0.0289,0.0,0.0,0.0,0.0,-0.0052,-0.129,-0.2145,-0.2728,-0.4395,-0.5287,0.0,0.0,-0.3521,-0.4626,-0.1369,0.0,0.0,0.0,0.0,0.0,0.0,0.0,0.0,0.0,0.0,0.0,0.0,0.0,0.0,0.0,0.0,0.0,0.0,0.0,0.0,0.0,0.0,-0.0404,-0.1885,-0.661,-0.9875,-0.7125,-0.8745,-1.03,-0.9182,-0.8936,0.0,0.0,0.0,0.0,0.0,-0.8655,-0.8615,-0.871,-0.8601,-0.8275,-0.7665,-0.7502,-0.7373,-0.7224,-0.6993,-0.7466,-0.913,-0.892,-0.932,-1.0541,0.0,-1.0609,-1.0545,0.0,-0.9621,-0.6625,-0.2113,0.0,0.0,0.0,0.0,0.0,0.0,0.0,0.0,0.0,0.0,0.0,0.0,0.0,0.0,0.0,0.0,0.0,0.8495,0.859,0.8375,0.0,0.0,0.0,0.641,0.6576,0.5815,0.3435,0.1318,0.0179,0.0625,0.4478,0.7101,0.7101,0.7074,0.7068,0.7088,0.4732,0.3402,0.3592,0.5947,0.6068,0.3707,0.1289,0.0,0.0,0.0,0.0,-0.0058,-0.1477,-0.3338,-0.5441,-0.5227,0.0,0.0,-0.337,-0.156,-0.053,-0.0108,0.0,0.0,0.0,0.0,0.0,0.0,0.0,0.0,0.0,0.0,0.0,0.0,0.0,0.0,0.0,0.0,0.0,0.0,0.0,0.0,0.0,0.0,-0.175,-0.8257,-1.0175,-1.0564,-1.0264,-1.0505,-1.0664,-1.0521,-1.0531,-1.0294,0.0,0.0,0.0,0.0,-0.9232,-0.9049,-0.9456,-0.8554,-0.8024,-0.8343,-0.7054,-0.6736,-0.8045,-0.7711,-0.7784,-0.8533,-0.8791,-0.9286,-1.0086,-1.0114,-1.0122,-1.0156,-1.0584,-1.0816,-1.0951,-0.359,0.0,0.0,0.0,0.0,0.0,0.0,0.0,0.0,0.0,0.0,0.0,0.0,0.0,0.0,0.0,0.0,0.0,0.0,0.0,0.0,0.0,0.0,0.0,0.0,0.6867,0.6574,0.5593,0.2321,0.0,0.0,0.17,0.4028,0.6828,0.7088,0.7094,0.7115,0.6412,0.6143,0.642,0.7382,0.7524,0.6382,0.5327,0.3192,0.0,0.0,0.0,-0.0,-0.0592,-0.2365,-0.5008,0.0,-0.5437,-0.524,-0.5514,-0.3471,0.0,0.0,0.0,0.0,0.0,0.0,0.0,0.0,0.0,0.0,0.0,0.0,0.0,0.0,0.0,0.0,0.0,0.0,0.0,0.0,0.0,0.0,0.0,-0.3234,-0.7166,-1.0034,-0.9052,-0.8076,-1.0238,-1.0751,-1.0649,-1.0749,-1.0651,-1.0545,0.0,0.0,0.0,0.0,-1.0154,-1.0073,-1.0256,-0.9849,-0.9456,-0.9184,-0.8153,-0.7638,-0.797,-0.7082,-0.7095,-0.8411,-0.852,-0.8838,-0.949,0.0,-1.0263,-0.9882,-0.9117,-0.9596,-1.1302,-0.599,-0.3447,-0.349,-0.349,-0.349,-0.3492,-0.3665,-0.2353,0.0,0.0,0.0,0.0,0.0,0.0,0.0,0.0,0.0,0.0,0.9798,0.0,0.8349,0.0,0.6675,0.6695,0.688,0.6392,0.6287,0.7039,0.2964,0.0,0.0,0.0,0.1341,0.4746,0.5646,0.6192,0.6388,0.7067,0.7567,0.7785,0.787,0.0,0.7905,0.7979,0.5806,0.1204,0.0427,0.0,0.0,0.0,-0.1148,0.0,-0.4253,-0.5027,-0.5634,-0.7333,-0.4857,0.0,0.0,0.0,0.0,0.0,0.0,0.0,0.0,0.0,0.0,0.0,0.0,0.0,0.0,0.0,0.0,0.0,0.0,0.0,0.0,0.0,0.0,0.0,-0.54,-1.0732,-1.0712,-0.8767,-0.7655,-1.0206,-1.0731,-1.0724,-1.0738,-1.0663,-1.0587,-1.0439,0.0,0.0,-1.0439,-1.0507,-1.0651,-1.0344,-1.012,-0.9822,-0.9686,-0.9054,-0.8564,-0.8262,-0.7149,-0.7088,-0.854,-0.852,-0.8757,0.0,0.0,0.0,-0.9771,-0.8163,-0.874,-1.1321,-0.8886,-0.7684,-0.7606,-0.7637,-0.765,-0.7654,-0.7869,-0.6403,-0.3427,-0.1053,0.0,0.0,0.0,0.0,0.0,0.0,0.0,0.0,0.9642,0.8672,0.7757,0.7041,0.6926,0.698,0.7061,0.5092,0.4474,0.6764,0.2964,0.0,0.0,0.0,0.0,0.0089,0.2232,0.4016,0.4816,0.6213,0.7217,0.0,0.0,0.7738,0.7814,0.7898,0.6653,0.391,0.0,0.0,0.0,0.0,-0.0,-0.0087,-0.1592,-0.4402,-0.7932,-0.802,-0.4912,0.0,0.0,0.0,0.0,0.0,0.0,0.0,0.0,0.0,0.0,0.0,0.0,0.0,0.0,0.0,0.0,0.0,0.0,0.0,0.0,0.0,0.0,0.0,-0.54,-1.0732,-1.0712,-1.0685,-1.0658,-1.0731,-1.0717,-1.0717,-1.0717,-1.0717,-1.0521,-0.993,0.0,0.0,-0.9588,-1.026,-1.0425,-0.9645,-0.8588,-0.8501,-0.9693,-0.9274,-0.8995,-0.9367,-0.8526,-0.8282,-0.8899,-0.8933,-0.9273,-1.0019,-1.0053,0.0,-0.9787,-0.8148,-0.8863,-1.1626,-1.1921,-1.2065,-1.2072,-1.2074,-1.1992,-1.1992,-1.1992,-1.2149,-1.1684,-0.347,0.0,0.0,0.0,0.0,0.0,0.0,0.0,0.0,1.008,0.9092,0.801,0.7208,0.7001,0.7027,0.7088,0.6471,0.6215,0.6975,0.297,0.0,0.0,0.0,0.0,0.0,0.0717,0.2598,0.0,0.6781,0.727,0.7629,0.7719,0.7778,0.7892,0.7959,0.7585,0.6776,0.0,0.0,0.0,0.0,0.0,-0.0,-0.0485,-0.1381,-0.253,-0.2521,-0.1599,0.0,0.0,0.0,0.0,0.0,0.0,0.0,0.0,0.0,0.0,0.0,0.0,0.0,0.0,0.0,0.0,0.0,0.0,0.0,0.0,0.0,-0.1212,-0.6076,-0.9075,-1.0021,-0.7675,-0.9001,-1.0744,-1.0724,-1.0717,-1.0717,-1.0717,-1.0717,-1.0656,-1.0466,-1.0616,0.0,-1.037,-0.8399,-0.7877,-1.0084,-0.958,-0.936,0.0,-0.9736,0.0,-0.9467,-0.8323,-0.7889,-0.8587,-0.9015,0.0,0.0,-1.0134,0.0,-0.9777,-0.9968,-1.0645,-1.1592,-1.1983,-1.2168,-1.2168,-1.2067,-1.2088,-1.2094,-1.2203,-1.2257,-1.2119,-0.9566,-0.5111,0.0,0.0,0.0,0.0,0.0,0.0,0.0,1.0211,0.8945,0.7655,0.7204,0.7068,0.6815,0.5913,0.6526,0.6485,0.4654,0.1832,0.0,0.0,0.0,0.0,0.0,0.1616,0.3592,0.5662,0.6635,0.7204,0.7616,0.7658,0.7807,0.7872,0.0,0.0,0.6469,0.214,0.0,0.0,0.0,0.0,0.0,0.0,0.0,0.0,0.0,0.0,0.0,0.0,0.0,0.0,0.0,0.0,0.0,0.0,0.0,0.0,0.0,0.0,0.0,0.0,0.0,0.0,0.0,0.0,0.0,0.0,-0.2019,-0.5127,-0.9624,-1.0719,-1.0143,-0.7927,-0.9117,-1.0717,-1.0717,-1.0717,-1.0717,-1.0717,-1.0717,-1.0717,-1.0717,-1.0751,-1.0225,-0.8862,-0.5629,-0.4253,-0.6381,-0.8587,0.0,0.0,-1.0026,-0.9863,0.0,-0.9174,-0.8832,-0.93,-0.9198,-0.932,-0.9727,-1.0378,0.0,-1.0277,-1.1063,-1.143,-1.1646,-1.1938,-1.2176,-1.223,-1.223,-1.223,-1.223,-1.2325,-1.2379,-1.2246,-1.2508,-0.9392,-0.4376,-0.1257,0.0,0.0,0.0,0.0,0.0,1.0095,0.8377,0.0,0.0,0.7068,0.0,0.3935,0.5304,0.5014,0.0556,0.0,0.0,0.0,0.0,0.0092,0.0451,0.0,0.0,0.0,0.5913,0.7251,0.738,0.7536,0.7685,0.7828,0.5471,0.4117,0.3717,0.121,0.0,0.0,0.0,0.0,0.0,0.0,0.0,-0.0,-0.042,-0.064,-0.0535,-0.0221,0.0,0.0,0.0,0.0,0.0,0.0,0.0,0.0,0.0,0.0,0.0,0.0,0.0,0.0,0.0,0.0,0.0,0.0,-0.5258,-1.0732,-1.0712,-1.0705,-1.0685,-1.0765,-1.0738,-1.0717,-1.0717,-1.0717,-1.0717,-1.0717,-1.0717,-1.0717,-1.0717,-1.0632,-0.9436,-0.5904,-0.2682,-0.0658,-0.0374,0.0,0.0,0.0,-1.0306,-1.0642,0.0,-1.0656,-1.0656,-1.0656,0.0,-0.9381,-1.0677,-1.0717,-1.0792,-1.0948,-1.1253,-1.1497,-1.1687,-1.2108,-1.2372,-1.2501,-1.2501,-1.2501,-1.2501,-1.2501,-1.2501,-1.2501,-1.2535,-1.2549,-1.1772,-0.3954,-0.0636,-0.0479,-0.0164,0.0,0.0,0.0,0.0,0.7102,0.7136,0.7074,0.6311,0.3923,0.2484,0.1303,0.0189,0.0,0.0,0.0,0.0,0.1453,0.5064,0.6466,0.6853,0.6281,0.6924,0.7407,0.7543,0.7685,0.7841,0.7905,0.7347,0.5039,0.0907,0.0303,0.0,0.0,0.0,0.0,0.0,0.0,0.0,-0.0304,-0.4837,-0.6744,-0.6435,-0.1876,0.0,0.0,0.0,0.0,0.0,0.0,0.0,0.0,0.0,0.0,0.0,0.0,0.0,0.0,0.0,0.0,0.0,0.0,-0.5218,-1.0732,-1.0712,-1.0672,-1.0765,-1.0738,-1.0724,-1.0717,-1.0717,-1.0717,-1.0717,-1.0717,-1.0717,-1.0717,-1.0717,-1.0632,-0.9436,-0.5904,-0.7,-0.7102,0.0,-0.8029,-1.0685,-1.0411,-1.0527,-1.0392,0.0,0.0,-1.0032,-1.0032,-0.9734,-0.9917,-1.0697,-1.0717,-1.0792,-1.0948,-1.1355,-1.1809,-1.2291,-1.24,-1.2467,-1.2501,-1.2501,-1.2501,-1.2501,-1.2501,-1.2501,-1.2501,-1.2508,-1.2528,-1.2238,-1.037,-0.7537,-0.4405,-0.1118,0.0,0.0,0.9018,0.7929,0.7143,0.7143,0.7135,0.6303,0.3956,0.1593,0.0,0.0,0.0,0.0,0.0,0.0,0.1934,0.6703,0.6161,0.5925,0.7005,0.7312,0.7455,0.7597,0.7733,0.7889,0.7952,0.7979,0.5345,0.0,0.0,0.0,0.0,0.0,0.0,0.0,0.0,0.0,-0.0202,-0.3467,-0.6419,-0.8615,-0.5316,-0.2461,0.0,0.0,0.0,0.0,0.0,0.0,0.0,0.0,0.0,0.0,0.0,0.0,0.0,0.0,0.0,-0.0666,-0.3998,-0.7794,-1.0712,-1.0678,-1.0638,-1.0738,-1.0724,-1.0717,-1.0717,-1.0717,-1.0717,-1.0717,-1.0717,-1.0717,-1.0717,-1.0717,-1.0632,-0.9704,-0.6564,-0.8762,-1.0009,-0.8071,-0.9558,-1.0645,-1.0645,-1.0751,-1.0478,-1.0042,-1.0122,0.0,-1.0229,-1.0297,-1.0487,-1.0812,-1.0826,-1.0928,-1.1151,-1.1599,-1.2047,-1.2501,-1.2501,-1.2501,-1.2501,-1.2501,-1.2501,-1.2501,-1.2501,-1.2501,-1.2501,-1.2501,-1.2515,-1.2528,-1.2549,-1.1131,-0.8783,-0.655,-0.3225,0.0,0.8877,0.7841,0.7143,0.7054,0.7098,0.6465,0.4442,0.1815,0.0,0.0,0.0,0.0,0.0,0.0667,0.2527,0.6262,0.5116,0.5013,0.7025,0.7333,0.7475,0.7624,0.7767,0.7909,0.8038,0.7979,0.5349,0.0,0.0,0.0,0.0,0.0,0.0,0.0,0.0,0.0,0.0,0.0,-0.3199,-0.8282,-0.8699,-0.5618,-0.067,-0.0224,0.0,0.0,0.0,0.0,0.0,0.0,0.0,0.0,0.0,0.0,0.0,0.0,0.0,-0.1582,-0.8745,-1.0705,-1.0685,-1.0632,-1.0738,-1.0717,-1.0717,-1.0717,-1.0717,-1.0717,-1.0717,-1.0717,-1.0717,-1.0717,-1.0697,-1.0629,-1.0591,-0.9813,-0.7431,-0.9123,-1.0699,-1.0678,-1.0672,-1.0531,-0.9984,-0.9958,-1.0079,-1.0618,-1.0738,-1.0731,-1.0751,-1.088,-1.0968,-1.1016,-1.0995,-1.1131,-1.1457,-1.1884,-1.223,-1.2501,-1.2501,-1.2501,-1.2501,-1.2501,-1.2501,-1.2501,-1.2501,-1.2501,-1.2501,-1.2501,-1.2501,-1.2508,-1.2535,-1.2542,-1.2427,-1.2442,-0.7629,-0.0813,0.7724,0.7224,0.7061,0.7074,0.7108,0.695,0.6638,0.2861,0.0,0.0,0.0,0.0,0.0,0.361,0.5485,0.4227,0.5605,0.677,0.736,0.7495,0.7631,0.7773,0.7923,0.8024,0.7965,0.8006,0.5358,0.0,0.0,0.0,0.0,0.0,0.0,0.0,0.0,0.0,0.0,0.0,-0.2017,-0.5439,-0.7889,-0.6852,-0.3575,-0.1008,0.0,0.0,0.0,0.0,0.0,0.0,0.0,0.0,0.0,0.0,0.0,0.0,0.0,-0.1559,-0.8755,-1.0744,-1.0672,-1.0765,-1.0738,-1.0717,-1.0717,-1.0717,-1.0717,-1.0717,-1.0717,-1.0717,-1.0717,-1.0717,-1.0595,-1.0215,-1.039,-0.9852,-0.7394,-0.9222,-1.0699,-1.0678,-1.0672,-0.957,-0.6577,-0.6172,-0.7512,-1.0485,-1.0751,-1.0799,-1.0907,-1.0934,-1.1063,-1.1314,-1.1199,-1.1335,-1.1755,-1.2088,-1.2338,-1.2501,-1.2501,-1.2501,-1.2501,-1.2501,-1.2501,-1.2501,-1.2501,-1.2501,-1.2501,-1.2501,-1.2501,-1.2501,-1.2508,-1.2508,-1.2542,-1.2463,-0.9507,-0.4867,0.7386,0.7143,0.7061,0.7081,0.6059,0.5598,0.687,0.306,0.0,0.0,0.0,0.0977,0.3584,0.5769,0.6661,0.5541,0.6483,0.7182,0.7495,0.7563,0.7665,0.7801,0.7957,0.7335,0.5832,0.729,0.5363,0.0,0.0,0.0,0.0,0.0,0.0,0.0,0.0,0.0,-0.0202,-0.3462,-0.468,-0.4794,-0.7767,-0.7075,-0.4136,-0.112,0.0,0.0,0.0,0.0,0.0,0.0,0.0,0.0,0.0,0.0,0.0,0.0,0.0,-0.119,-0.6394,-0.9267,-1.0658,-1.0744,-1.0731,-1.0717,-1.0717,-1.0717,-1.0717,-1.0717,-1.0717,-1.0717,-1.0717,-1.0717,-1.0656,-1.0446,-1.0346,-0.9883,-0.9133,-0.9977,-1.0678,-1.0645,-1.0672,-1.0002,-0.836,-0.4699,-0.4021,-0.7512,-0.974,-1.09,-1.0948,-1.1104,-1.1246,-1.1389,-1.1477,-1.166,-1.1952,-1.2176,-1.2359,-1.2501,-1.2501,-1.2501,-1.2501,-1.2501,-1.2501,-1.2501,-1.2501,-1.2501,-1.2501,-1.2501,-1.2501,-1.2501,-1.2501,-1.2501,-1.2528,-1.2568,-0.9801,-0.5674,0.7312,0.7143,0.7061,0.7088,0.5165,0.4036,0.5281,0.2385,0.0,0.0,0.0,0.1852,0.6625,0.7063,0.7093,0.7101,0.7081,0.7202,0.7584,0.7597,0.7678,0.7855,0.7984,0.6736,0.4017,0.545,0.4142,0.0,0.0,0.0,0.0,0.0,0.0,0.0,0.0,0.0,-0.0306,-0.4849,-0.6313,-0.5687,-0.8011,-0.7081,-0.4136,-0.112,0.0,0.0,0.0,0.0,0.0,0.0,0.0,0.0,0.0,0.0,0.0,0.0,-0.1195,-0.2959,-0.483,-0.7937,-1.0658,-1.0731,-1.0717,-1.0717,-1.0717,-1.0717,-1.0717,-1.0717,-1.0717,-1.0717,-1.0717,-1.0717,-1.0683,-1.0582,-1.0274,-1.0187,-1.0498,-1.0765,-1.0725,-1.0034,-0.8974,-0.8178,-0.8178,-0.4888,-0.3523,-0.5413,-0.89,-1.1043,-1.105,-1.1267,-1.1409,-1.1443,-1.1728,-1.1938,-1.206,-1.2244,-1.2393,-1.2501,-1.2501,-1.2501,-1.2501,-1.2501,-1.2501,-1.2501,-1.2501,-1.2501,-1.2501,-1.2501,-1.2522,-1.2549,-1.2515,-1.2522,-1.2569,-1.2527,-1.0555,-0.7106,0.7312,0.7143,0.7061,0.7094,0.5196,0.2883,0.083,0.0189,0.0,0.0,0.0,0.1852,0.6625,0.7143,0.708,0.7101,0.7068,0.7272,0.7584,0.7597,0.7726,0.8011,0.7965,0.6753,0.4017,0.1712,0.0404,0.0,0.0,0.0,0.0,0.0,0.0,0.0,0.0,0.0,-0.0,-0.0423,-0.3764,-0.856,-0.8863,-0.7091,-0.4136,-0.112,0.0,0.0,0.0,0.0,0.0,0.0,0.0,0.0,0.0,0.0,0.0,0.0,-0.475,-0.9192,-0.6176,-0.7937,-1.0658,-1.0731,-1.0717,-1.0717,-1.0717,-1.0717,-1.0717,-1.0717,-1.0717,-1.0717,-1.0717,-1.0717,-1.0582,-1.0168,-1.0364,-1.0551,-1.0358,-1.1017,-1.0522,-0.7917,-0.3616,-0.0837,-0.0837,-0.6856,-0.9399,-0.5986,-0.9215,-1.1246,-1.1355,-1.1382,-1.1457,-1.1599,-1.1891,-1.2054,-1.206,-1.2345,-1.2488,-1.2501,-1.2501,-1.2501,-1.2501,-1.2501,-1.2501,-1.2501,-1.2501,-1.2501,-1.2501,-1.2501,-1.2583,-1.2698,-1.2556,-1.2589,-1.2705,-1.2603,-1.2344,-1.1506,0.721,0.7143,0.7061,0.7094,0.5191,0.2777,0.0363,0.0,0.0,0.0,0.2557,0.4536,0.4869,0.6247,0.7141,0.7068,0.7054,0.7231,0.7448,0.755,0.7733,0.8024,0.7972,0.6759,0.4017,0.141,0.0,0.0,0.0,0.0,0.0,0.0,0.0,0.0,0.0,0.0,0.0,0.0,-0.1288,-0.3717,-0.7382,-0.8227,-0.6735,-0.1793,0.0,0.0,0.0,0.0,0.0,0.0,0.0,0.0,0.0,-0.2997,-0.6615,-0.6699,-0.6985,-0.7665,-0.8462,-0.9679,-1.0765,-1.0731,-1.0717,-1.0717,-1.0717,-1.0717,-1.0717,-1.0717,-1.0717,-1.0717,-1.0717,-1.0717,-1.0663,-1.0493,-1.0711,-1.0846,-1.0711,-1.1104,-1.1034,-0.9926,-0.8258,-0.6295,-0.3769,-0.6295,-0.8403,-0.9093,-1.0582,-1.1502,-1.1389,-1.1484,-1.1558,-1.1619,-1.1816,-1.1965,-1.206,-1.2271,-1.2413,-1.2501,-1.2501,-1.2501,-1.2501,-1.2501,-1.2501,-1.2501,-1.2501,-1.2501,-1.2501,-1.2501,-1.2589,-1.2725,-1.2664,-1.2678,-1.2732,-1.2786,-1.2635,-1.2311,0.7109,0.7143,0.7061,0.7094,0.5369,0.3304,0.1433,0.1094,0.1108,0.1108,0.3977,0.565,0.4793,0.6166,0.7074,0.7143,0.7143,0.7204,0.736,0.7556,0.778,0.8038,0.7979,0.7172,0.5336,0.1814,0.0,0.0,0.0,0.0,0.0,0.0,0.0,0.0,0.0,0.0,0.0,0.0,0.0,-0.033,-0.4463,-0.7203,-0.8227,-0.2242,0.0,0.0,0.0,0.0,0.0,0.0,0.0,-0.0376,-0.2479,-0.6536,-1.0672,-1.0749,-0.8961,-0.7646,-1.0079,-1.0751,-1.0738,-1.0724,-1.0717,-1.0717,-1.0717,-1.0717,-1.0717,-1.0717,-1.0717,-1.0717,-1.0717,-1.0717,-1.0717,-1.0717,-1.0812,-1.09,-1.0941,-1.1063,-1.1179,-1.126,-1.1434,-1.0601,-0.7917,-0.7635,-0.8635,-1.1208,-1.1578,-1.1626,-1.1463,-1.1565,-1.1619,-1.1619,-1.1714,-1.1837,-1.1986,-1.2189,-1.2338,-1.2433,-1.2481,-1.2501,-1.2501,-1.2501,-1.2501,-1.2501,-1.2501,-1.2501,-1.2501,-1.2501,-1.2617,-1.28,-1.2752,-1.2786,-1.2874,-1.2935,-1.2874,-1.2615,0.7109,0.7136,0.7054,0.7081,0.5813,0.455,0.3749,0.3633,0.3588,0.3588,0.3588,0.4514,0.6838,0.7085,0.7074,0.7143,0.7143,0.7204,0.736,0.7645,0.7889,0.7965,0.7985,0.7999,0.8026,0.2727,0.0,0.0,0.0,0.0,0.0,0.0,0.0,0.0,0.0,0.0,0.0,0.0,0.0,0.0,0.0,-0.3589,-0.8227,-0.2242,0.0,-0.0,-0.0114,-0.0116,-0.0118,-0.0,-0.0,-0.1235,-0.7701,-1.0168,-1.0649,-1.0749,-1.0678,-1.0751,-1.0751,-1.0738,-1.0717,-1.0717,-1.0717,-1.0717,-1.0717,-1.0717,-1.0717,-1.0717,-1.0717,-1.0717,-1.0717,-1.0717,-1.0717,-1.0717,-1.0738,-1.0799,-1.0928,-1.0968,-1.109,-1.1362,-1.1557,-1.1633,-1.164,-1.1653,-1.1653,-1.1653,-1.1633,-1.1619,-1.1619,-1.1619,-1.1619,-1.1619,-1.1619,-1.1687,-1.183,-1.2135,-1.2291,-1.2291,-1.2433,-1.2501,-1.2501,-1.2501,-1.2501,-1.2501,-1.2501,-1.2501,-1.2501,-1.2501,-1.2684,-1.2942,-1.2793,-1.2915,-1.3152,-1.3017,-1.2868,-1.2732,0.6939,0.6993,0.7027,0.7068,0.6719,0.6358,0.6097,0.6037,0.6065,0.6065,0.6059,0.6329,0.7058,0.7094,0.7061,0.7143,0.7143,0.7251,0.7516,0.7611,0.7787,0.7972,0.6242,0.6052,0.7925,0.2727,0.0,0.0,0.0,0.0,0.0,0.0,0.0,0.0,0.0,0.0,0.0,0.0,0.0,0.0,0.0,-0.1121,-0.2466,-0.0672,0.0,-0.0562,-0.5264,-0.6874,-0.6509,-0.419,-0.3405,-0.4195,-0.8436,-1.0127,-1.0465,-1.0458,-1.0651,-1.0731,-1.0731,-1.0724,-1.0717,-1.0717,-1.0717,-1.0717,-1.0717,-1.0717,-1.0717,-1.0717,-1.0717,-1.0717,-1.0717,-1.0717,-1.0717,-1.0717,-1.0819,-1.0907,-1.0941,-1.1043,-1.1179,-1.1369,-1.1396,-1.1463,-1.1613,-1.1626,-1.1626,-1.1626,-1.1619,-1.1619,-1.1619,-1.1619,-1.1619,-1.1619,-1.1619,-1.164,-1.1681,-1.1979,-1.2182,-1.2291,-1.2433,-1.2501,-1.2501,-1.2501,-1.2501,-1.2501,-1.2501,-1.2501,-1.2501,-1.2501,-1.2684,-1.2956,-1.2908,-1.3003,-1.318,-1.3247,-1.3112,-1.2895,0.6871,0.6926,0.698,0.7048,0.7074,0.7074,0.7081,0.7081,0.7081,0.7081,0.7074,0.7074,0.7074,0.7061,0.7143,0.7143,0.7197,0.7339,0.7584,0.7651,0.7807,0.7979,0.5432,0.4225,0.4855,0.1615,0.0,0.0,0.0,0.0,0.0,0.0,0.0,0.0,0.0,0.0,0.0,0.0,0.0,0.0,0.0,0.0,0.0,0.0,-0.1458,-0.4052,-0.8329,-0.9764,-0.9503,-0.7491,-0.5989,-0.5421,-0.8781,-1.0093,-1.0445,-1.0304,-1.05,-1.0717,-1.0717,-1.0717,-1.0717,-1.0717,-1.0717,-1.0717,-1.0717,-1.0717,-1.0717,-1.0717,-1.0717,-1.0717,-1.0717,-1.0717,-1.0717,-1.0717,-1.0799,-1.086,-1.086,-1.0934,-1.1063,-1.1274,-1.1301,-1.1382,-1.1599,-1.1619,-1.1619,-1.1619,-1.1619,-1.1619,-1.1619,-1.1619,-1.1619,-1.1619,-1.1619,-1.1619,-1.1619,-1.1911,-1.2108,-1.2203,-1.2406,-1.2501,-1.2501,-1.2501,-1.2501,-1.2501,-1.2501,-1.2501,-1.2501,-1.2501,-1.2644,-1.2874,-1.2935,-1.3051,-1.3193,-1.3342,-1.3247,-1.3037,0.6851,0.6905,0.6959,0.7115,0.7143,0.7143,0.7143,0.7143,0.7143,0.7143,0.7143,0.7143,0.7143,0.7143,0.7143,0.7143,0.7285,0.7441,0.7611,0.774,0.7896,0.7979,0.5432,0.2714,0.0101,0.0,0.0,0.0,0.0,0.0,0.0,0.0,0.0,0.0,0.0,0.0,0.0,0.0,0.0,0.0,0.0,0.0,0.0,0.0,-0.3701,-0.8957,-0.9613,-0.971,-0.9738,-0.9802,-0.7771,-0.59,-0.8861,-1.0066,-1.0438,-1.029,-1.0487,-1.0717,-1.0717,-1.0717,-1.0717,-1.0717,-1.0717,-1.0717,-1.0717,-1.0717,-1.0717,-1.0717,-1.0717,-1.0717,-1.0717,-1.0717,-1.0717,-1.0717,-1.0717,-1.0724,-1.0738,-1.0744,-1.0853,-1.1151,-1.1185,-1.1301,-1.1592,-1.1619,-1.1619,-1.1619,-1.1619,-1.1619,-1.1619,-1.1619,-1.1619,-1.1619,-1.1619,-1.1619,-1.1619,-1.1911,-1.206,-1.2067,-1.2359,-1.2501,-1.2501,-1.2501,-1.2501,-1.2501,-1.2501,-1.2501,-1.2501,-1.2501,-1.2589,-1.2745,-1.2901,-1.3051,-1.3193,-1.3329,-1.3295,-1.3152,0.6695,0.6749,0.6831,0.7095,0.7143,0.7143,0.7143,0.7143,0.7143,0.7143,0.7143,0.7143,0.7143,0.7143,0.7143,0.7143,0.7285,0.7482,0.7746,0.7794,0.7896,0.7979,0.5432,0.2714,0.0101,0.0,0.0,0.0,0.0,0.0,0.0,0.0,0.0,0.0,0.0,0.0,0.0,0.0,0.0,0.0,0.0,0.0,0.0,0.0,-0.3701,-0.895,-0.9354,-0.9566,-0.9586,-0.9768,-0.9355,-0.8842,-0.9599,-1.0053,-1.029,-1.0283,-1.0487,-1.0717,-1.0717,-1.0717,-1.0717,-1.0717,-1.0717,-1.0717,-1.0717,-1.0717,-1.0717,-1.0717,-1.0717,-1.0717,-1.0717,-1.0717,-1.0717,-1.0717,-1.0717,-1.0765,-1.088,-1.09,-1.1009,-1.1307,-1.1341,-1.1416,-1.1599,-1.1619,-1.1619,-1.1619,-1.1619,-1.1619,-1.1619,-1.1619,-1.1619,-1.1619,-1.1619,-1.1619,-1.1619,-1.1911,-1.206,-1.2067,-1.2359,-1.2501,-1.2501,-1.2501,-1.2501,-1.2501,-1.2501,-1.2501,-1.2501,-1.2501,-1.2589,-1.2745,-1.2901,-1.3051,-1.3173,-1.3207,-1.32,-1.3152,0.6654,0.6756,0.6878,0.7102,0.7143,0.7143,0.7143,0.7143,0.7143,0.7143,0.7143,0.7143,0.7143,0.7143,0.717,0.7244,0.7455,0.7645,0.7801,0.7882,0.797,0.7985,0.5432,0.2714,0.0101,0.0,0.0,0.0,0.0,0.0,0.0,0.0,0.0,0.0,0.0,0.0,0.0,0.0,0.0,0.0,0.0,-0.1682,-0.4263,-0.4263,-0.6172,-0.8923,-0.9334,-0.951,-0.9632,-0.9788,-0.9829,-0.9822,-0.9836,-1.0039,-1.0283,-1.0283,-1.0487,-1.0717,-1.0717,-1.0717,-1.0717,-1.0717,-1.0717,-1.0717,-1.0717,-1.0717,-1.0717,-1.0717,-1.0717,-1.0717,-1.0717,-1.0717,-1.0717,-1.0717,-1.0717,-1.0772,-1.0928,-1.0948,-1.1056,-1.1355,-1.1389,-1.145,-1.1606,-1.1619,-1.1619,-1.1619,-1.1619,-1.1619,-1.1619,-1.1619,-1.1619,-1.1619,-1.1619,-1.1653,-1.1721,-1.1945,-1.2101,-1.2176,-1.2393,-1.2501,-1.2501,-1.2501,-1.2501,-1.2501,-1.2501,-1.2501,-1.2501,-1.2501,-1.2549,-1.2644,-1.2874,-1.2963,-1.2976,-1.3119,-1.3132,-1.3064,0.6702,0.6844,0.6973,0.7115,0.7143,0.7143,0.7143,0.7143,0.7143,0.7143,0.7143,0.7143,0.7143,0.7163,0.7244,0.74,0.7658,0.7821,0.7848,0.797,0.7952,0.7992,0.5432,0.2714,0.0101,0.0,0.0,0.0,0.0,0.0,0.0,0.0,0.0,0.0,0.0,0.0,0.0,0.0,0.0,0.0,0.0,-0.3589,-0.891,-0.891,-0.889,-0.8903,-0.9313,-0.9591,-0.9822,-0.9822,-0.9822,-0.9822,-0.9822,-1.0032,-1.0283,-1.0283,-1.0487,-1.0717,-1.0717,-1.0717,-1.0717,-1.0717,-1.0717,-1.0717,-1.0717,-1.0717,-1.0717,-1.0717,-1.0717,-1.0717,-1.0717,-1.0717,-1.0717,-1.0717,-1.0717,-1.0778,-1.0962,-1.0989,-1.1097,-1.1396,-1.143,-1.1484,-1.1606,-1.1619,-1.1619,-1.1619,-1.1619,-1.1619,-1.1619,-1.1619,-1.1619,-1.1619,-1.1619,-1.1687,-1.183,-1.1986,-1.2142,-1.2291,-1.2433,-1.2501,-1.2501,-1.2501,-1.2501,-1.2501,-1.2501,-1.2501,-1.2501,-1.2501,-1.2501,-1.2528,-1.284,-1.2868,-1.2759,-1.3003,-1.3024,-1.2929,0.6844,0.6912,0.6973,0.7115,0.7143,0.7143,0.7143,0.7143,0.7143,0.7143,0.7143,0.7143,0.7143,0.7258,0.74,0.7556,0.7719,0.7868,0.7997,0.8024,0.7952,0.7992,0.5432,0.2714,0.0101,0.0,0.0,0.0,0.0,0.0,0.0,0.0,0.0,0.0,0.0,0.0,0.0,0.0,0.0,0.0,0.0,-0.3589,-0.891,-0.891,-0.889,-0.8903,-0.9313,-0.9591,-0.9822,-0.9822,-0.9822,-0.9822,-0.9822,-1.0032,-1.0283,-1.0283,-1.0487,-1.0717,-1.0717,-1.0717,-1.0717,-1.0717,-1.0717,-1.0717,-1.0717,-1.0717,-1.0717,-1.0717,-1.0717,-1.0717,-1.0717,-1.0717,-1.0717,-1.0717,-1.0717,-1.0819,-1.1097,-1.1131,-1.1246,-1.1552,-1.1586,-1.1599,-1.1619,-1.1619,-1.1619,-1.1619,-1.1619,-1.1619,-1.1619,-1.1619,-1.1619,-1.1619,-1.1619,-1.1687,-1.183,-1.1986,-1.2142,-1.2291,-1.2433,-1.2501,-1.2501,-1.2501,-1.2501,-1.2501,-1.2501,-1.2501,-1.2501,-1.2501,-1.2501,-1.2528,-1.284,-1.2868,-1.2732,-1.2773,-1.2779,-1.2779,0.6885,0.6993,0.7068,0.7129,0.7143,0.7143,0.7143,0.7143,0.7143,0.7143,0.7143,0.7143,0.7143,0.7353,0.7529,0.7597,0.7807,0.797,0.8031,0.8038,0.7952,0.7992,0.5432,0.2714,0.0101,0.0,0.0,0.0,0.0,0.0,0.0,0.0,0.0,0.0,0.0,0.0,0.0,0.0,0.0,-0.0336,-0.3589,-0.5609,-0.6619,-0.8313,-0.887,-0.8994,-0.9293,-0.953,-0.9713,-0.9795,-0.9822,-0.9822,-0.9822,-1.0032,-1.0283,-1.0283,-1.0487,-1.0717,-1.0717,-1.0717,-1.0717,-1.0717,-1.0717,-1.0717,-1.0717,-1.0717,-1.0717,-1.0717,-1.0717,-1.0717,-1.0717,-1.0717,-1.0717,-1.0717,-1.0717,-1.0826,-1.1118,-1.1165,-1.1274,-1.1586,-1.1619,-1.1619,-1.1619,-1.1619,-1.1619,-1.1619,-1.1619,-1.1619,-1.1619,-1.1619,-1.1619,-1.1619,-1.1619,-1.1728,-1.1959,-1.2026,-1.2176,-1.2406,-1.2474,-1.2501,-1.2501,-1.2501,-1.2501,-1.2501,-1.2501,-1.2501,-1.2501,-1.2501,-1.2501,-1.2528,-1.284,-1.2922,-1.284,-1.2664,-1.2657,-1.2752]}]]